GEFSGL_500_meanwind_000.txt.gz
Wind_Speed
32 31 32 34 35 35 38 42 43 40 39 39 39 46 63 66 56 48 46 40 39 47 52 49 52 50 53 56 56 58 61 62 64 64 62 62 61 61 62 63 62 61 61
28 29 30 32 33 34 36 40 38 36 32 29 30 32 41 56 60 56 56 54 48 48 51 50 52 53 57 56 56 58 59 60 62 64 63 64 62 61 62 63 64 63 61
27 28 29 31 33 32 32 33 32 31 27 25 24 24 30 44 49 52 54 57 59 52 50 49 51 55 61 62 61 59 59 59 56 57 56 55 56 56 57 59 59 61 60
30 31 31 32 33 33 31 30 28 26 24 24 21 19 23 31 38 43 45 48 50 51 51 49 44 45 51 52 52 54 53 52 53 54 55 53 53 54 55 55 56 59 60
33 34 34 33 33 33 32 29 25 23 22 21 15 16 24 30 32 35 39 41 43 48 48 45 40 37 42 45 48 51 51 48 48 51 55 55 56 56 57 56 56 58 60
36 36 36 33 33 33 32 30 25 22 21 20 15 15 20 29 35 34 36 35 36 41 40 36 34 36 39 41 44 46 45 45 47 49 50 53 55 56 58 59 57 57 60
40 40 39 36 34 34 33 31 28 24 21 20 16 18 18 22 32 37 38 35 34 35 34 34 33 37 41 42 43 43 44 45 46 47 47 49 52 55 58 59 56 57 58
42 41 40 39 38 36 35 34 31 27 25 22 19 21 22 19 21 30 35 34 33 32 31 33 36 38 40 41 42 43 43 45 47 49 49 47 47 50 56 58 56 54 51
46 45 44 42 39 37 36 36 34 31 29 27 25 25 26 25 23 25 29 30 31 30 32 33 37 40 39 41 43 44 44 46 48 50 51 50 48 47 48 53 55 54 49
52 50 47 44 41 40 37 37 36 34 32 32 31 30 31 31 30 30 31 33 34 35 36 37 38 40 40 39 40 42 41 42 43 46 48 49 49 49 49 47 48 51 49
56 53 51 48 45 44 41 39 38 37 36 35 36 36 36 36 35 35 35 36 37 37 38 39 40 42 43 42 41 40 40 39 39 42 43 42 44 48 48 46 45 49 48
57 55 53 51 48 47 45 43 42 41 39 38 38 39 40 41 40 40 39 38 39 39 39 39 38 39 41 42 40 40 39 39 39 38 40 42 43 43 45 45 48 51 45
49 48 46 45 46 47 47 46 46 45 44 42 41 41 43 44 45 46 45 44 43 43 43 41 40 40 41 42 41 40 40 41 41 41 40 41 43 42 41 43 44 44 43
47 43 40 38 37 38 40 44 47 49 48 47 45 45 45 46 48 49 50 50 50 49 47 45 44 44 44 44 44 43 42 42 42 43 43 42 42 44 44 45 45 45 45
49 44 39 36 34 33 33 33 37 43 48 50 50 49 49 49 51 52 52 53 54 54 53 52 51 50 49 48 48 47 45 44 43 43 43 41 40 40 40 39 39 39 40
49 45 40 36 35 35 34 33 31 31 35 40 48 52 52 53 55 56 56 56 57 57 56 56 56 56 56 55 53 51 49 47 47 46 45 43 43 43 43 42 42 43 43
49 46 42 39 37 36 34 32 31 29 28 29 32 39 47 54 58 59 58 59 60 60 59 60 60 60 60 59 59 58 55 53 52 52 51 49 48 48 47 46 45 45 44
50 48 46 44 41 38 35 33 30 27 26 26 26 27 32 39 48 55 59 61 63 64 63 63 63 63 63 62 62 63 62 60 58 57 56 56 55 53 53 52 51 50 49
51 50 50 48 45 41 38 35 32 30 28 27 26 25 25 27 32 38 46 54 61 65 66 66 66 65 65 66 66 66 66 65 64 63 62 60 59 59 58 57 56 56 55
55 53 54 52 49 45 41 38 35 33 31 29 28 27 26 25 25 26 30 36 44 53 61 67 69 69 69 69 69 69 69 69 69 68 68 67 65 64 63 62 61 59 58
57 53 53 53 53 49 44 41 38 35 33 32 31 29 27 25 24 24 23 25 28 34 42 51 60 67 70 72 72 71 71 71 71 71 71 71 71 70 68 67 66 65 64
57 53 53 53 52 48 44 40 37 35 34 32 31 30 28 26 24 24 24 22 21 23 27 32 39 47 57 65 71 73 74 74 73 73 72 72 73 73 73 72 71 71 70
59 59 58 58 56 50 45 41 39 37 35 31 28 27 26 25 24 23 23 23 20 18 20 22 25 29 34 43 53 62 69 73 76 76 75 74 73 73 73 73 73 73 72
63 61 60 60 57 52 47 44 42 39 34 30 26 22 21 20 20 21 20 20 19 16 16 18 20 21 23 26 31 39 49 58 66 71 74 75 75 74 73 71 70 69 68
62 59 60 62 60 55 51 48 46 41 36 31 26 20 19 18 16 15 16 17 16 16 15 15 15 17 18 19 21 24 29 36 44 53 61 67 72 75 75 73 71 69 67
62 58 58 60 63 63 59 54 50 46 40 35 30 24 19 16 14 12 12 12 13 12 12 12 12 10 8 8 9 11 14 18 24 31 38 46 53 60 66 70 71 70 68

GEFSGL_500_meanwind_006.txt.gz
Wind_Speed
45 43 40 37 35 32 30 29 28 28 29 30 31 32 33 34 36 38 39 43 50 56 58 59 59 58 61 65 67 68 70 73 76 77 76 75 74 74 74 74 73 72 71
47 45 43 41 39 37 35 34 33 33 33 34 35 35 35 35 36 37 39 39 40 44 46 49 51 51 53 58 63 64 62 63 67 71 74 75 75 74 74 74 74 73 72
50 49 48 46 45 42 40 39 38 38 37 36 37 37 36 36 35 34 34 31 29 32 38 46 51 53 54 53 54 56 55 56 60 63 66 68 69 70 70 71 72 73 72
54 53 51 50 49 48 46 44 43 41 40 39 38 38 37 35 32 30 27 22 24 32 39 42 48 52 55 55 53 51 49 49 51 55 57 60 61 62 63 65 67 68 68
54 53 52 52 51 50 49 48 46 44 42 40 38 37 36 34 30 26 22 21 25 33 38 39 41 45 48 50 50 50 49 49 50 53 56 57 57 58 59 60 61 61 62
52 51 50 49 48 47 46 46 47 46 44 42 40 38 36 34 30 25 24 27 29 34 38 41 42 41 42 44 46 48 48 48 50 52 55 58 59 59 59 59 57 57 58
54 53 52 50 48 45 43 42 43 44 44 42 40 38 36 34 31 29 27 33 36 36 39 41 42 43 43 44 46 47 48 47 48 50 53 57 59 61 60 60 59 57 57
58 56 54 51 48 44 41 39 38 40 42 41 40 39 37 36 34 32 32 33 38 40 41 41 42 41 41 43 45 47 48 49 49 49 50 53 56 58 58 57 54 53 53
59 57 54 51 48 43 39 35 33 34 37 39 40 40 39 38 38 36 36 36 37 40 43 43 43 41 41 42 45 46 48 49 49 49 50 51 52 52 51 51 51 50 49
60 58 54 52 50 46 40 34 30 29 29 33 38 41 41 41 41 41 39 39 38 38 41 44 46 44 43 44 45 47 49 50 50 50 50 49 49 49 49 50 49 48 47
62 59 55 52 50 48 44 38 32 28 26 26 31 37 42 44 44 44 44 42 41 40 39 41 45 47 47 47 47 48 50 52 52 52 51 50 49 49 50 49 48 47 46
62 59 56 53 50 48 45 42 37 31 27 24 24 29 37 42 46 47 47 46 44 42 40 39 41 45 48 49 49 49 51 53 54 54 53 52 50 50 50 49 48 47 47
62 59 56 53 51 49 46 43 39 35 30 26 23 23 28 37 44 48 49 49 47 45 44 42 41 42 44 46 47 48 49 51 52 53 53 52 51 51 50 50 49 49 49
61 59 58 57 55 52 49 45 40 36 32 28 25 22 22 27 36 45 48 49 49 48 47 47 45 44 44 44 46 47 48 48 48 49 50 49 49 50 50 50 48 47 47
59 59 60 62 60 55 50 46 41 35 32 29 26 22 20 21 26 34 43 47 49 50 50 50 49 48 46 46 47 48 49 48 48 48 48 48 48 48 49 49 47 46 44
58 58 60 63 63 60 53 46 42 37 32 29 27 24 21 19 20 24 31 40 48 52 52 52 52 51 51 50 49 49 50 50 50 50 49 49 49 49 49 48 47 46 43
58 58 60 63 65 63 56 48 40 36 32 28 26 24 23 20 18 19 22 28 37 47 51 53 53 54 54 54 54 53 52 52 52 52 51 50 50 50 49 48 46 44 43
58 58 60 62 65 66 61 52 43 35 30 27 24 23 22 21 20 19 19 20 25 33 43 50 54 56 57 57 57 57 56 55 54 53 52 51 50 50 50 48 46 44 43
57 58 59 61 65 69 67 59 48 38 31 25 22 20 19 19 19 19 19 19 20 23 30 39 48 54 58 59 59 59 59 59 57 56 55 53 52 51 50 49 47 45 43
57 58 61 62 63 67 69 66 56 44 35 27 22 18 16 15 15 16 16 17 18 19 21 27 35 44 53 58 61 61 61 61 61 60 59 58 56 55 53 51 49 47 45
58 59 61 62 62 64 67 69 65 54 42 32 25 19 15 12 11 11 11 13 14 16 17 20 24 31 40 50 57 62 64 64 64 64 64 63 62 60 58 56 54 51 49
61 59 60 61 62 62 65 67 68 64 56 44 34 26 20 15 11 9 8 9 11 12 13 15 17 21 27 35 45 54 61 65 67 67 67 67 67 66 64 62 60 58 55
61 59 58 59 59 60 61 62 64 65 64 60 51 41 32 24 18 13 10 10 10 10 9 9 11 13 17 23 29 38 47 57 64 68 69 70 70 69 68 67 65 63 61
60 59 57 56 57 59 60 61 61 62 62 62 60 56 51 45 37 31 25 20 17 14 11 9 8 10 12 15 18 24 30 39 49 59 66 70 71 72 72 71 69 67 65
58 58 57 55 56 58 59 60 60 59 59 58 57 57 55 54 51 48 45 41 37 32 27 20 14 8 5 7 10 14 19 24 31 40 51 61 67 71 72 72 71 70 69
55 57 57 56 56 57 58 59 59 58 57 56 55 54 53 52 52 50 49 47 44 42 40 37 33 28 21 14 7 2 6 12 17 24 32 41 51 60 66 70 71 71 71

GEFSGL_500_meanwind_012.txt.gz
Wind_Speed
51 52 52 51 50 49 47 46 44 42 41 41 40 37 34 32 32 32 32 32 33 34 37 40 46 52 60 69 77 83 87 88 88 87 85 80 78 77 75 73 72 71 72
53 54 54 54 52 50 47 45 43 41 39 39 41 41 39 36 34 34 34 35 35 35 36 37 39 43 47 54 63 71 78 82 86 86 86 84 81 79 78 77 75 73 71
56 56 56 54 52 49 46 43 40 38 36 36 38 41 42 41 38 37 37 37 38 38 38 38 38 40 43 46 51 58 66 72 77 81 82 83 82 79 77 76 76 76 74
57 57 55 53 51 49 46 43 40 36 33 32 34 38 42 44 42 40 39 40 40 40 40 40 39 40 41 44 48 52 57 62 67 70 73 76 78 77 76 74 74 76 75
58 57 53 51 51 50 48 45 41 37 33 30 30 33 39 44 45 44 42 42 42 42 41 40 39 38 38 38 41 46 50 55 58 61 64 67 70 71 72 70 71 73 74
59 55 51 50 50 51 51 48 44 39 34 30 28 29 33 40 45 46 44 43 43 42 41 40 37 36 34 33 35 41 48 51 53 56 60 63 65 66 67 68 68 70 72
59 54 51 51 52 53 53 52 48 42 36 31 27 26 28 34 40 44 44 43 43 43 41 40 37 35 32 32 34 38 48 50 51 55 56 59 62 64 64 65 66 67 68
58 54 53 53 54 55 55 55 53 47 38 31 27 25 25 29 35 40 43 43 44 44 43 41 39 37 35 36 37 39 47 50 52 55 55 58 60 61 63 64 64 63 64
58 54 54 55 56 56 57 58 56 51 41 32 26 23 23 25 30 36 40 43 45 46 46 44 43 41 41 41 39 41 46 50 52 55 55 54 54 55 57 58 59 59 59
57 56 57 58 58 58 60 61 59 52 40 30 24 21 21 23 27 33 38 42 45 47 48 48 47 46 46 45 43 42 43 46 50 51 52 51 50 50 50 52 52 52 52
58 57 59 60 60 61 64 64 61 50 36 27 21 18 19 21 24 29 35 40 45 48 50 50 50 50 50 50 47 45 43 43 45 47 49 50 50 50 50 50 50 50 50
58 58 60 62 63 64 67 66 60 45 31 22 18 16 16 17 20 25 30 36 42 46 49 51 51 51 52 53 51 48 46 44 43 43 45 47 49 51 52 52 52 51 51
58 59 61 63 64 67 70 68 60 44 28 19 15 13 13 14 16 21 25 31 38 44 49 51 51 52 52 53 53 52 50 47 46 45 45 46 48 50 51 52 52 52 51
58 59 61 63 64 67 71 71 62 47 30 19 13 11 11 12 13 16 20 25 32 40 45 49 50 51 51 52 53 53 52 51 50 49 48 48 48 49 50 51 52 52 52
57 59 61 62 63 66 69 73 66 54 38 24 14 10 10 11 12 13 15 19 25 32 40 46 48 50 50 51 51 51 52 52 53 52 52 52 51 51 51 51 51 51 52
57 58 60 62 62 65 68 71 70 61 48 32 21 13 9 9 10 10 11 13 18 24 32 40 46 49 50 51 51 50 50 50 52 55 55 55 55 54 53 53 52 51 51
57 58 61 62 63 63 66 68 69 67 58 44 30 20 13 10 9 9 10 11 13 17 23 32 40 47 49 51 51 51 49 49 50 53 56 57 57 57 56 56 55 54 53
57 58 61 62 63 63 64 65 67 68 65 57 45 31 21 14 10 9 9 10 11 12 16 22 31 40 47 50 51 52 51 50 49 49 52 55 58 58 58 58 57 56 55
56 57 60 61 62 62 63 63 64 65 65 63 58 48 36 25 17 12 9 9 10 11 12 15 21 30 39 47 50 52 53 52 50 49 48 50 53 54 55 57 57 56 55
55 57 59 60 60 61 62 62 62 62 62 62 61 58 52 43 32 22 15 11 9 9 11 13 16 21 29 39 47 51 52 53 53 51 49 48 49 50 51 52 53 53 53
54 55 57 58 58 59 60 61 61 60 60 59 59 58 57 54 48 42 33 23 15 10 9 10 13 16 21 28 38 46 51 53 54 53 52 50 49 49 49 49 50 50 50
53 54 55 55 56 58 59 60 60 60 60 58 57 56 56 55 53 50 47 42 35 25 15 8 8 11 15 20 28 37 46 51 53 54 54 53 52 51 50 49 49 49 49
50 52 53 53 54 55 56 57 59 59 60 59 58 56 55 54 54 53 51 48 45 41 33 23 12 5 7 12 18 26 35 44 51 54 56 56 55 54 53 52 51 50 49
47 48 50 51 52 53 54 55 56 58 59 59 59 57 56 54 53 52 52 51 49 46 43 39 31 19 9 3 8 14 22 31 41 49 54 57 58 58 57 56 54 53 52
43 45 47 48 50 51 52 52 53 55 56 58 58 58 58 56 55 53 51 50 49 48 46 44 41 36 28 18 8 3 9 16 26 37 46 53 57 59 60 60 59 58 56
41 42 43 45 47 49 50 50 51 52 53 55 56 57 58 58 57 55 53 50 48 47 47 45 43 40 37 32 26 17 7 3 11 20 31 41 50 56 60 62 63 62 61

GEFSGL_500_meanwind_018.txt.gz
Wind_Speed
61 60 58 56 55 54 53 52 50 48 47 45 42 40 36 33 32 33 36 39 41 41 39 38 37 37 39 47 61 79 91 94 93 89 87 85 82 77 72 69 68 69 70
60 58 57 57 57 56 56 55 53 51 49 47 45 41 37 33 31 31 33 36 39 39 38 37 35 34 35 39 48 64 79 90 92 91 88 86 84 81 76 72 68 67 68
58 56 57 58 59 59 58 57 56 54 53 50 47 42 37 33 30 30 30 33 36 37 37 36 35 34 34 36 41 52 65 78 87 89 88 87 85 83 80 76 73 69 68
57 57 58 59 61 61 61 60 60 59 57 53 48 43 37 33 29 28 28 30 34 37 37 37 36 34 34 35 38 44 53 64 75 83 85 85 85 84 82 78 75 72 69
57 57 59 61 63 63 63 64 64 63 60 54 47 40 34 29 27 26 27 27 33 36 37 37 37 36 35 35 36 39 44 52 62 71 77 80 82 82 81 78 76 73 71
56 58 61 63 64 64 65 67 67 64 58 49 39 29 24 22 22 23 24 26 32 36 37 38 38 37 36 35 35 36 39 44 51 59 65 71 76 78 79 77 76 74 72
57 59 62 64 66 67 68 70 70 64 54 40 27 17 13 14 18 20 22 24 30 36 38 38 38 38 37 36 35 36 37 40 44 50 56 62 67 73 74 74 74 73 71
57 59 63 65 67 68 71 73 70 63 50 34 21 9 4 9 13 16 20 23 28 35 39 39 39 39 38 36 36 36 36 37 39 43 47 52 57 62 66 69 69 69 68
57 60 63 66 67 69 72 74 71 62 47 33 19 9 1 5 9 12 16 20 26 33 38 40 40 39 39 37 37 36 36 35 37 38 41 45 50 54 58 62 64 63 63
58 60 64 66 68 69 72 74 72 63 48 34 21 11 3 2 6 9 13 17 23 30 36 40 41 41 40 39 37 36 34 34 34 34 36 39 45 50 55 59 61 60 60
58 60 63 66 68 69 71 74 73 65 51 37 24 14 7 2 3 6 9 14 20 26 33 39 42 42 41 40 38 36 35 33 31 31 32 33 38 45 50 54 59 58 58
59 60 62 64 66 68 69 71 72 68 56 42 29 18 11 6 4 5 6 9 15 22 29 36 41 44 43 42 41 39 37 35 33 32 32 32 35 41 45 51 56 56 56
58 59 60 63 65 67 68 69 71 70 64 51 37 25 16 10 6 5 5 7 11 18 26 33 39 44 45 45 44 42 40 38 36 36 35 36 39 41 45 50 54 54 55
57 57 58 60 63 65 67 68 69 69 68 62 49 35 23 15 10 7 5 6 8 14 22 29 37 43 46 47 47 45 43 42 40 39 39 40 43 44 46 49 52 53 55
56 56 57 59 61 64 66 67 68 68 69 66 61 50 36 24 16 10 7 5 6 10 17 25 33 40 45 48 49 48 47 45 44 42 42 43 45 46 47 50 53 53 53
54 55 55 57 59 61 64 66 67 67 66 66 64 61 53 41 28 17 11 7 5 7 12 19 27 36 42 47 49 50 50 49 48 46 45 45 47 48 47 48 50 51 51
52 53 54 55 56 58 60 63 64 65 65 64 64 63 61 55 46 33 21 12 8 6 8 13 21 30 38 44 48 51 51 51 50 49 47 47 48 48 48 48 48 49 49
50 52 53 54 55 56 57 59 62 63 64 64 63 62 61 60 57 50 40 26 14 8 7 9 15 23 32 40 46 49 51 52 52 52 51 49 49 49 48 48 48 48 49
48 49 51 53 53 54 55 56 58 61 62 64 64 63 61 60 58 57 53 45 32 18 9 7 10 16 24 34 41 47 50 51 52 53 52 52 51 50 50 49 49 49 49
46 47 48 50 51 52 52 53 55 57 59 61 63 63 62 60 58 57 56 54 48 38 23 11 7 9 16 25 34 42 47 50 51 51 52 53 52 52 52 51 51 50 50
45 45 45 47 48 49 50 51 53 54 56 58 60 62 62 62 60 58 56 54 53 50 42 29 15 6 8 15 24 34 42 47 50 51 51 51 52 52 53 53 53 53 53
44 43 43 44 45 46 48 49 50 52 54 55 57 58 60 61 61 59 57 54 53 51 49 44 35 21 9 5 13 23 34 42 47 50 51 51 51 51 52 53 54 55 55
43 43 42 42 43 44 45 46 48 50 51 53 54 55 56 57 58 58 58 56 53 51 49 47 44 38 27 14 5 10 21 32 41 47 50 52 52 51 51 51 52 53 54
41 42 42 42 41 42 42 44 45 47 49 50 51 52 53 53 54 55 56 56 54 52 49 46 44 42 38 31 20 8 6 17 30 40 47 51 52 53 52 52 51 51 51
40 41 41 41 41 41 42 42 43 45 47 48 50 50 51 51 51 51 52 53 53 52 50 47 44 41 39 36 32 24 13 4 13 26 37 46 51 53 54 53 52 52 51
38 39 40 41 41 41 41 42 43 43 45 46 47 48 49 49 49 48 49 50 51 51 50 48 45 42 39 36 33 30 25 17 7 9 21 33 43 50 53 55 54 53 52

GEFSGL_500_meanwind_024.txt.gz
Wind_Speed
69 67 63 61 62 65 68 71 73 74 72 66 58 49 41 38 37 37 36 34 31 30 31 35 40 46 53 62 67 67 65 63 66 74 86 96 100 96 93 90 87 82 78
68 66 64 63 64 66 69 73 75 74 70 60 49 37 27 22 24 28 30 30 29 28 29 32 36 41 48 56 62 64 63 61 61 66 76 86 94 93 90 90 89 85 81
67 66 64 63 65 67 70 74 75 73 64 52 40 29 19 9 7 16 21 24 25 26 27 29 33 38 43 50 56 59 60 58 57 61 68 78 86 90 88 88 89 86 84
66 65 64 64 66 68 72 75 75 71 59 46 35 27 20 13 6 3 12 17 21 23 25 27 31 35 40 45 51 54 55 55 54 57 64 72 79 84 85 86 87 87 85
66 65 64 65 67 69 72 75 75 69 56 41 31 26 21 17 12 4 3 11 17 20 23 26 30 33 37 42 46 48 50 50 50 53 60 69 77 80 81 82 84 85 85
65 64 64 65 67 69 71 74 74 68 56 41 28 21 17 15 11 6 2 7 13 18 22 26 29 32 35 38 41 43 44 44 44 48 55 67 78 82 81 82 82 83 84
63 63 64 65 66 68 71 73 74 69 58 44 29 19 13 10 8 5 2 5 10 16 21 25 29 32 34 36 38 38 39 38 39 41 48 62 77 87 84 82 83 83 83
62 62 63 64 65 67 69 71 73 71 62 49 35 24 16 11 9 7 5 3 7 14 20 25 29 31 33 34 35 35 34 34 34 36 41 54 73 87 90 86 82 84 84
60 61 62 63 64 65 67 69 71 71 67 57 43 31 22 16 13 10 7 3 4 11 18 25 29 31 32 33 33 32 32 31 31 32 35 43 61 79 91 90 85 84 84
59 59 60 61 63 64 66 68 70 70 69 64 53 40 29 21 16 12 8 4 3 9 17 24 29 31 33 33 32 31 30 29 29 30 33 38 48 65 83 91 90 85 83
58 58 58 59 61 63 65 67 69 69 68 67 62 51 39 28 21 15 10 6 1 7 14 22 28 31 32 32 31 30 28 27 27 27 30 35 41 52 67 82 88 87 83
56 56 56 57 59 61 63 64 66 67 67 66 65 61 51 39 27 19 13 8 3 4 11 20 26 30 31 32 32 30 28 26 25 24 26 31 37 45 55 67 79 83 82
54 54 54 55 56 58 60 61 63 63 64 64 64 62 60 52 40 27 18 11 5 2 8 16 24 29 31 32 32 30 29 27 25 23 24 27 32 39 48 57 67 74 77
52 51 51 52 54 56 58 59 60 61 62 63 63 62 61 59 52 40 26 17 10 3 5 13 21 27 31 32 32 31 30 28 26 24 23 24 28 33 41 51 59 65 69
51 50 49 50 51 53 55 57 58 59 60 61 61 61 60 59 58 53 41 26 15 8 2 8 17 25 30 32 33 32 31 29 28 25 24 24 26 30 36 44 53 60 63
49 49 48 48 49 51 53 56 57 58 58 58 59 60 60 59 57 56 52 42 26 15 7 2 11 20 27 32 33 34 33 32 30 28 26 26 26 28 32 39 47 55 60
48 47 47 47 48 49 50 52 53 55 56 56 56 56 57 57 56 55 53 50 41 26 14 6 4 13 23 29 33 35 35 34 32 31 29 28 28 29 31 36 43 50 56
46 46 47 47 47 48 49 50 51 51 52 53 54 54 54 54 55 54 52 51 48 40 27 14 5 5 15 25 31 35 37 36 35 34 32 31 30 30 31 34 40 47 52
44 45 45 46 47 47 48 49 49 50 50 51 51 51 51 51 52 52 51 50 48 45 39 27 15 5 6 17 27 33 37 39 38 37 36 34 33 33 33 34 38 43 48
43 43 44 45 46 47 48 48 48 49 49 49 49 49 49 49 49 49 49 49 47 45 43 38 28 16 5 6 18 28 35 39 41 41 40 38 38 37 37 37 38 41 45
43 42 42 43 44 45 47 47 48 48 48 48 48 48 49 48 47 47 47 46 46 44 43 40 36 28 17 6 6 19 29 37 41 43 43 43 42 41 41 41 41 42 45
42 42 41 41 42 43 45 47 48 48 47 47 47 47 47 47 46 45 45 44 44 43 41 40 38 35 28 18 6 6 19 30 38 43 46 47 46 46 45 45 45 45 46
42 41 41 40 41 42 43 45 46 47 46 46 45 45 45 45 45 45 44 43 42 41 40 38 37 35 33 28 18 7 6 18 31 40 45 48 50 50 49 49 49 49 49
41 41 40 40 40 40 41 42 43 45 45 45 44 44 44 44 44 44 43 42 41 40 38 37 35 34 32 30 26 18 8 6 18 31 40 46 50 52 53 53 52 52 52
40 40 40 40 40 39 39 39 41 42 43 44 43 43 43 42 42 42 42 41 40 38 37 36 35 33 31 29 26 23 17 8 6 18 31 40 47 51 54 55 55 55 55
39 39 40 40 40 40 39 38 38 39 41 42 42 42 41 41 41 41 41 40 39 38 37 36 35 34 32 29 26 23 20 15 8 7 18 31 41 47 52 55 57 58 57

GEFSGL_500_meanwind_030.txt.gz
Wind_Speed
73 71 70 69 69 70 71 72 74 76 75 67 59 51 44 39 34 29 21 10 1 8 16 22 26 28 30 33 36 41 48 58 65 72 75 76 80 89 99 102 100 97 96
71 69 68 67 68 69 70 71 73 75 75 67 57 49 41 35 31 26 20 13 4 3 10 16 20 23 25 28 32 37 44 53 61 67 72 73 75 82 92 100 101 97 95
69 68 66 66 66 68 70 71 72 73 74 68 57 48 40 34 29 24 19 12 6 2 7 12 16 19 21 24 28 33 40 49 57 63 68 70 71 76 86 96 101 98 95
67 66 65 64 65 67 69 70 71 72 73 70 60 49 40 34 29 24 19 12 6 3 6 10 14 16 18 21 24 30 37 45 53 60 65 67 68 70 79 90 99 101 96
66 65 64 63 64 65 67 69 70 71 72 71 65 54 43 35 30 24 19 13 7 5 7 9 12 14 16 18 22 27 34 41 49 57 62 64 64 66 72 84 94 99 97
65 64 63 62 62 63 65 67 68 69 70 71 68 60 49 38 31 26 20 15 9 6 7 9 11 12 14 17 20 25 32 39 46 54 59 61 61 62 65 74 87 96 95
64 63 62 61 61 62 63 65 66 66 68 69 69 65 56 45 35 28 21 16 11 6 5 7 10 12 15 17 21 25 30 36 43 50 56 58 57 57 59 66 77 89 94
63 62 60 60 60 61 62 63 64 65 66 67 68 67 62 53 41 31 25 19 13 7 3 5 9 12 15 18 21 25 29 34 40 46 52 54 54 53 55 60 69 79 88
62 60 59 59 59 60 60 61 62 63 64 65 66 66 64 59 49 37 29 23 16 9 4 3 8 12 16 19 22 25 28 32 38 44 48 51 51 50 51 55 62 71 79
61 59 58 58 59 59 59 60 61 62 62 63 64 65 65 63 56 45 34 27 20 13 6 1 7 12 16 20 22 25 28 32 36 41 46 49 49 48 48 50 57 64 70
61 58 57 57 57 58 59 59 59 60 61 62 62 63 64 62 60 52 40 31 23 16 8 2 7 13 17 20 23 24 27 30 34 38 42 45 47 46 46 47 53 59 65
60 58 57 56 56 56 57 58 58 58 59 59 59 60 61 61 60 58 48 37 28 20 11 4 7 13 17 20 22 24 26 28 31 34 37 41 43 44 45 47 51 57 61
59 57 56 55 55 55 55 56 56 56 56 57 57 58 59 59 59 58 54 44 33 24 15 7 6 12 16 19 21 23 25 27 29 31 33 35 38 41 44 47 51 57 62
58 57 55 54 54 54 54 55 55 55 55 55 56 56 56 57 57 57 56 50 39 30 20 10 6 10 14 17 20 21 23 24 26 27 29 31 34 37 41 46 51 58 64
57 56 54 53 53 53 53 54 54 55 56 55 55 55 54 54 55 56 55 53 46 36 26 15 6 7 12 15 18 20 21 22 23 24 25 27 29 33 38 44 50 58 66
56 54 53 52 52 51 51 52 54 54 54 54 54 54 54 53 53 52 52 51 49 42 32 21 10 4 9 13 17 18 20 21 22 21 22 23 25 28 32 39 47 55 64
55 53 52 51 51 50 50 49 50 51 53 53 52 52 51 51 50 49 49 48 47 45 38 27 16 6 5 11 15 18 19 20 21 21 20 21 22 24 27 32 41 51 61
55 53 51 50 50 50 50 49 48 48 49 50 50 50 49 48 47 46 46 45 45 44 41 35 24 13 3 8 14 18 20 21 21 21 20 20 20 21 24 27 34 45 56
54 53 51 49 49 49 49 49 48 48 47 47 47 47 47 47 46 45 43 42 41 41 41 38 32 22 10 2 10 16 20 22 23 22 21 20 20 20 22 25 30 38 49
52 52 50 49 48 48 49 48 47 46 46 46 46 45 44 44 44 43 42 40 39 39 39 38 36 30 20 8 4 13 19 23 24 24 23 22 21 21 22 23 27 34 42
51 51 50 48 47 47 48 48 47 46 45 45 45 44 43 43 42 42 41 39 38 36 36 36 36 33 27 19 7 6 15 21 25 27 26 25 23 22 22 23 26 32 38
50 50 49 48 47 46 47 47 47 46 44 43 43 43 42 41 41 40 40 39 37 35 34 34 34 33 30 25 17 6 8 17 24 28 29 28 27 25 24 24 27 31 37
49 49 49 47 46 45 46 46 46 45 44 43 41 41 41 40 39 39 38 38 37 35 33 33 33 32 30 28 23 15 5 10 19 26 30 31 30 28 27 26 28 31 35
47 48 48 47 46 45 45 45 45 44 43 42 40 40 39 39 38 38 37 37 36 35 33 32 32 31 31 29 26 21 13 5 12 22 29 33 34 33 31 30 30 32 35
46 46 47 46 45 44 44 43 43 43 42 41 39 38 38 37 37 36 36 36 35 34 33 33 32 32 32 31 29 24 18 10 5 15 24 32 36 37 36 34 33 34 35
44 45 46 46 45 44 43 42 42 42 41 40 38 37 37 36 36 35 35 35 34 33 32 32 33 33 33 33 32 27 21 14 8 8 18 28 35 39 40 40 38 37 37

GEFSGL_500_meanwind_036.txt.gz
Wind_Speed
74 76 76 74 71 68 67 66 66 65 65 66 68 69 67 58 47 37 30 25 20 16 12 9 6 5 9 16 23 31 38 44 47 50 53 55 62 72 83 91 100 108 113
73 75 75 73 70 68 66 65 65 64 65 66 67 68 68 60 49 39 32 26 21 16 12 9 7 6 9 13 18 25 31 38 42 45 50 52 57 66 76 85 94 103 110
73 74 74 72 69 67 65 64 64 63 64 65 66 67 68 63 53 43 35 28 22 17 13 10 8 8 9 12 15 20 26 32 37 41 46 49 53 61 70 79 88 98 106
72 74 73 72 69 66 64 63 63 63 63 63 65 66 67 65 57 47 39 31 24 18 13 10 8 7 8 10 13 17 21 26 32 37 42 46 50 58 66 75 83 93 102
71 73 73 71 68 66 64 63 62 62 62 63 64 65 66 66 61 52 42 34 26 19 14 9 7 7 7 9 11 14 18 22 28 33 37 42 48 55 63 71 79 88 97
70 72 72 70 68 66 64 62 61 61 61 62 63 63 65 65 62 55 46 37 28 21 15 10 5 5 6 8 10 12 15 19 24 29 34 40 46 53 60 67 75 83 91
70 71 71 70 68 65 63 61 61 61 60 60 61 62 63 63 62 57 49 40 31 23 16 10 4 3 4 6 9 11 14 17 21 26 31 38 44 51 58 64 72 79 87
69 70 71 70 67 65 63 61 60 60 60 59 59 60 61 62 62 58 51 43 33 25 18 12 6 1 3 5 7 10 13 16 19 24 29 36 43 49 56 62 68 74 82
68 69 70 69 67 64 62 60 59 58 59 58 58 59 59 60 61 58 53 45 37 28 20 13 8 5 4 5 7 9 11 14 18 23 28 35 42 49 54 59 64 70 77
67 68 69 68 66 63 61 60 58 57 58 58 58 57 57 58 58 58 54 47 39 30 22 15 10 7 6 7 7 9 10 12 17 22 27 34 41 48 52 56 60 66 73
66 67 68 68 65 63 61 59 57 56 56 56 56 56 55 55 56 56 55 49 41 32 24 17 12 9 8 8 8 8 9 11 15 21 26 33 40 46 50 54 57 62 69
64 66 67 67 66 63 60 58 57 55 54 54 53 53 53 53 53 54 53 50 43 34 25 18 13 10 9 9 9 8 8 10 14 20 26 32 38 44 48 51 54 58 63
63 64 66 67 66 63 60 58 56 54 52 52 51 51 51 51 50 50 51 50 44 36 27 20 14 10 8 8 9 8 8 10 14 19 26 32 37 42 46 48 50 53 59
62 63 64 66 66 64 60 57 54 53 51 50 50 50 50 49 49 48 49 49 46 39 29 21 15 10 7 7 8 8 8 10 14 18 25 31 36 40 44 45 47 49 54
61 61 63 64 65 64 61 57 54 52 51 50 49 49 48 48 47 47 47 47 47 43 34 24 17 11 7 6 7 8 9 11 14 18 24 29 34 39 41 43 44 46 50
60 60 61 62 63 63 61 58 55 52 51 50 49 48 47 47 46 45 44 44 44 43 38 29 19 12 7 5 5 7 9 11 14 18 23 28 32 36 39 40 42 44 47
59 58 59 60 62 61 59 56 54 52 50 49 47 47 46 45 45 43 42 41 41 42 40 33 24 15 8 4 4 7 9 11 14 18 22 26 30 34 37 39 41 43 46
57 57 57 58 60 60 59 56 52 50 48 47 46 45 44 44 43 42 41 39 39 38 38 36 29 20 11 4 3 6 9 12 15 18 21 25 29 32 35 37 39 42 45
56 55 55 56 58 59 59 57 53 49 47 45 44 44 43 42 41 40 39 38 36 35 36 36 33 26 17 7 1 6 10 13 15 18 21 24 27 30 33 35 38 40 44
55 53 53 54 56 57 58 57 54 50 46 44 42 41 41 41 40 39 38 36 35 34 34 35 35 32 23 13 3 5 11 14 16 19 21 23 26 28 31 34 37 39 42
53 52 51 52 53 55 56 56 54 50 46 43 40 39 40 40 39 38 37 35 34 33 33 33 35 35 30 21 10 3 10 15 18 20 22 23 24 26 28 31 35 39 42
52 50 50 50 51 53 55 55 54 50 46 42 40 39 39 39 38 37 36 35 33 32 32 32 34 35 34 28 18 7 7 14 19 22 24 24 25 26 27 29 32 36 41
50 48 48 48 49 51 53 54 53 50 46 42 39 38 37 38 38 37 36 35 33 32 31 31 33 34 36 33 26 15 6 11 19 24 26 27 27 27 27 28 30 34 38
48 46 46 46 47 49 51 52 52 50 47 42 39 37 36 36 37 36 36 34 33 31 30 31 32 34 36 36 31 23 12 7 16 24 28 30 29 29 28 28 29 31 35
46 44 44 44 45 46 49 50 51 50 47 43 39 36 35 35 35 36 35 34 33 32 30 30 31 33 36 37 36 30 19 8 10 20 28 32 33 32 31 30 30 30 33
44 42 42 42 42 44 46 48 49 49 47 43 39 36 34 34 34 34 35 34 33 32 30 30 31 33 35 37 38 35 27 15 5 14 24 31 34 35 34 33 31 31 33

GEFSGL_500_meanwind_042.txt.gz
Wind_Speed
76 75 75 74 75 77 79 80 79 76 73 69 68 67 67 67 67 67 66 60 53 47 41 35 29 24 20 18 16 15 15 16 22 33 43 53 59 60 60 60 62 69 81
76 77 76 75 75 77 78 79 78 75 72 69 67 67 66 66 66 66 64 59 53 47 40 35 28 23 19 17 15 13 13 14 18 27 37 47 54 57 57 57 58 62 72
76 78 76 75 75 76 78 79 78 74 71 68 67 66 65 65 65 65 64 58 52 47 40 34 28 23 18 15 13 12 11 12 15 23 32 42 49 53 54 54 54 57 64
75 78 77 76 75 76 77 78 77 74 70 67 66 65 65 64 64 64 63 57 52 47 41 34 28 23 18 15 12 11 9 10 13 19 27 36 43 49 50 51 51 53 59
75 77 78 76 75 75 76 77 76 74 70 66 65 64 64 63 63 62 62 58 52 47 41 34 28 23 18 15 12 10 9 8 11 15 23 30 38 44 47 48 49 50 54
74 76 77 76 75 74 75 76 75 73 69 65 64 63 63 62 62 61 62 58 52 47 41 35 29 23 20 16 13 11 9 6 8 12 18 25 32 39 43 45 45 47 50
72 75 77 77 75 74 74 75 75 73 69 65 63 62 62 61 60 60 60 57 51 45 40 34 29 25 21 18 15 12 9 6 6 9 15 22 28 34 39 41 43 43 47
71 74 76 76 75 73 73 74 74 72 69 65 62 61 60 60 59 58 58 56 50 44 39 34 29 25 22 19 16 14 11 8 5 6 12 18 25 30 35 38 40 42 46
70 72 74 75 74 72 72 73 73 72 69 65 62 60 59 59 58 56 56 55 50 44 38 34 29 25 22 20 18 15 13 10 6 4 8 14 21 27 32 36 38 41 46
68 70 73 74 73 72 71 71 72 71 69 65 61 59 58 57 57 55 54 54 50 44 38 33 29 25 22 20 19 17 15 12 8 4 4 10 17 23 29 33 36 40 47
67 69 71 73 72 71 70 70 70 70 68 65 61 58 57 56 55 54 53 53 50 45 39 32 28 25 22 20 19 18 15 13 10 6 1 6 13 20 26 31 36 40 46
66 67 69 71 71 70 68 68 69 69 68 64 60 57 56 55 54 53 51 50 49 45 40 33 28 25 22 20 19 18 16 14 11 8 4 5 11 17 24 30 35 39 45
65 65 67 69 69 68 67 66 67 67 67 64 60 56 54 54 53 52 50 48 48 46 41 36 29 25 22 20 18 17 15 14 11 9 6 7 11 16 23 30 36 40 45
65 64 65 67 67 67 65 64 65 65 65 64 60 56 53 52 51 50 48 47 46 46 42 37 32 26 22 19 17 15 14 12 10 8 7 8 12 17 23 31 36 40 43
64 62 63 64 66 65 63 63 63 64 65 64 61 56 52 50 50 49 48 46 44 44 44 39 34 28 23 19 16 14 13 11 9 8 7 8 13 19 25 32 37 40 43
62 61 61 62 63 63 62 61 61 62 64 63 61 56 52 49 49 49 47 45 43 43 43 41 36 30 24 19 15 13 11 9 8 7 8 9 14 20 26 32 36 39 43
61 59 59 60 61 61 60 59 59 60 62 62 60 55 51 48 47 47 47 45 43 42 41 41 39 33 26 20 15 11 9 7 7 7 8 11 15 21 26 32 36 39 43
59 57 57 58 58 58 57 56 56 57 59 59 59 55 50 47 45 46 46 44 42 40 40 40 39 36 29 22 15 11 7 5 5 6 8 11 16 21 26 31 36 39 44
57 55 55 55 55 56 55 54 54 55 56 57 57 55 50 46 44 43 44 43 42 40 38 39 39 38 33 25 17 10 6 3 4 6 9 12 16 21 25 29 34 39 43
55 53 53 53 53 53 52 51 51 52 53 54 54 53 50 46 43 42 42 42 41 39 38 37 38 38 35 29 20 11 5 1 4 7 10 13 16 20 24 28 32 38 42
53 51 50 50 50 50 50 49 48 49 50 52 52 52 49 45 42 40 40 41 41 39 38 37 37 37 36 31 23 14 6 2 6 9 12 14 17 20 24 27 30 35 40
51 49 48 47 47 47 47 46 46 46 47 49 50 51 49 45 41 39 38 39 40 39 37 36 36 37 36 33 27 18 9 3 7 12 15 17 19 21 24 26 29 33 38
50 47 46 45 44 44 44 43 43 43 45 46 48 48 48 44 41 38 37 38 38 38 37 36 35 36 36 35 31 23 13 5 7 13 17 20 21 23 25 27 29 32 36
48 45 43 42 41 41 41 41 40 41 42 44 45 46 46 44 40 37 36 36 37 37 37 36 35 35 36 36 34 28 19 8 6 14 19 23 24 25 26 27 29 32 36
45 43 41 39 38 38 38 38 38 38 39 41 43 44 45 43 40 37 35 35 36 36 36 35 34 34 35 36 35 32 25 14 4 12 20 24 27 28 28 28 30 32 35
44 41 38 37 36 36 35 35 35 36 37 38 40 42 43 42 39 36 34 33 34 35 35 35 34 34 35 35 35 34 29 20 8 8 18 25 29 30 30 30 31 32 35

GEFSGL_500_meanwind_048.txt.gz
Wind_Speed
55 56 58 61 64 66 69 72 74 74 75 75 75 75 75 73 71 68 66 65 64 63 60 56 52 48 45 43 40 36 34 31 25 19 21 22 23 25 31 40 54 68 82
55 56 58 61 64 67 69 72 74 74 75 75 75 75 74 72 70 67 65 64 63 61 58 54 50 46 44 41 38 35 33 31 27 21 20 20 19 21 27 36 47 60 72
56 57 58 61 64 67 70 72 74 74 75 75 75 74 73 71 69 66 64 62 61 60 56 52 48 45 42 40 37 35 32 30 27 23 19 18 17 17 22 31 41 53 63
56 57 59 61 64 67 70 72 73 74 74 74 74 73 72 70 68 65 63 61 60 58 55 51 47 43 41 38 36 33 31 29 26 23 19 17 15 15 19 27 37 47 57
57 58 59 61 64 67 69 72 73 73 73 73 73 72 71 69 67 64 61 60 59 57 54 50 46 42 40 37 35 33 30 28 25 22 19 17 14 13 18 25 34 43 51
57 58 60 62 64 67 70 72 72 72 72 73 72 71 70 68 65 63 61 60 58 56 53 49 45 41 38 36 35 33 31 28 25 22 19 16 13 12 16 24 32 40 46
58 59 60 63 65 68 69 71 71 71 71 71 71 70 69 67 64 61 59 58 57 55 52 48 44 40 36 34 33 32 31 28 25 22 18 15 12 11 16 24 31 38 44
59 60 61 64 66 68 69 70 70 70 70 70 69 68 67 66 63 60 58 57 56 54 52 48 44 40 36 33 31 30 29 27 25 22 18 13 11 11 15 23 31 36 41
60 61 63 65 67 68 69 70 70 69 68 68 68 66 65 64 62 59 57 55 54 53 51 48 45 40 36 32 30 29 28 26 25 22 18 13 10 10 15 22 30 36 39
62 63 64 66 67 68 68 68 68 67 66 66 66 65 63 62 61 59 57 54 53 51 50 48 45 41 36 32 29 27 26 25 24 22 17 12 9 9 13 21 29 35 38
64 65 66 67 67 67 67 67 66 65 64 64 64 64 62 61 60 58 55 54 52 50 49 47 45 41 36 32 29 26 25 23 22 20 16 12 8 8 13 20 28 33 37
66 66 66 66 66 66 65 64 64 63 61 61 62 62 61 59 58 56 54 53 51 50 48 46 44 42 37 32 28 25 23 22 21 19 16 12 7 6 12 19 26 31 36
65 65 65 65 65 64 63 62 61 60 59 59 59 60 59 57 56 54 52 51 50 49 48 46 44 43 39 32 28 25 23 21 19 17 15 12 7 4 10 17 24 29 34
63 63 63 63 63 61 60 59 58 57 57 56 57 57 56 55 54 52 51 49 48 48 47 45 44 43 41 35 29 26 22 20 18 16 14 12 7 2 8 15 22 27 31
59 59 60 60 60 58 57 56 55 55 54 54 54 55 54 53 52 50 48 47 46 46 46 45 44 43 40 36 29 25 22 19 17 15 13 10 6 1 5 12 18 23 27
57 57 57 57 57 56 55 54 53 53 52 51 52 52 52 51 50 49 47 46 45 45 45 44 42 42 39 36 29 24 21 18 16 13 11 8 5 2 6 10 15 19 24
55 55 55 55 54 54 53 52 51 50 49 49 49 50 50 49 48 47 46 45 44 43 43 43 42 41 39 36 30 24 20 17 14 11 8 6 5 4 8 11 15 19 22
52 53 54 54 53 52 52 50 48 47 47 47 47 47 47 47 46 46 45 44 43 42 42 42 41 40 39 36 31 25 20 15 12 9 6 4 4 4 7 11 14 18 21
51 51 52 52 52 51 50 48 46 45 44 44 44 45 45 45 44 43 43 43 42 41 41 41 40 40 39 36 32 26 20 14 10 6 3 2 3 5 7 10 14 18 22
50 51 51 50 50 49 47 45 43 42 41 42 42 42 43 42 41 41 41 41 40 39 39 39 39 39 38 36 32 27 20 14 8 4 1 2 4 6 8 10 15 19 23
52 52 51 49 49 47 45 43 40 39 39 40 40 40 40 40 39 39 40 39 39 38 38 38 38 38 38 36 33 28 21 14 7 2 1 4 6 8 9 12 16 20 23
52 52 50 48 46 44 42 40 38 37 36 37 37 37 38 37 37 37 38 38 37 36 36 36 37 37 37 36 33 29 23 15 7 1 4 7 9 10 11 14 18 21 23
52 51 49 46 44 42 40 38 36 34 34 35 35 35 35 35 35 35 36 36 36 35 35 35 36 37 37 36 33 30 24 16 7 1 6 9 11 12 14 15 19 22 25
52 50 47 44 43 41 38 36 33 32 32 32 33 32 33 32 32 33 34 34 34 33 33 34 35 36 36 35 33 30 26 18 9 1 7 11 14 15 16 17 19 22 26
51 48 45 43 41 39 36 33 30 29 29 30 30 30 30 30 30 31 32 33 33 32 32 33 34 35 35 35 33 30 27 21 11 1 8 14 16 17 18 19 20 23 26
49 46 43 41 39 36 34 30 28 27 27 27 28 27 27 27 28 29 31 31 31 31 31 32 33 34 34 34 33 30 27 22 14 2 9 16 19 19 20 21 22 24 27

GEFSGL_500_meanwind_054.txt.gz
Wind_Speed
57 57 58 59 60 61 61 61 63 64 65 66 67 69 69 71 73 74 74 74 75 75 74 73 71 71 69 68 66 63 61 59 55 48 46 46 45 43 41 39 35 30 28
58 59 59 60 61 62 62 63 65 66 67 68 68 69 70 70 72 73 73 73 74 73 72 71 69 69 67 66 64 61 59 56 54 49 45 45 44 42 40 38 35 31 28
58 59 60 61 62 63 64 65 66 67 67 68 69 69 69 69 71 72 72 72 72 72 71 69 68 67 66 64 62 60 57 55 52 49 45 44 43 41 39 37 35 31 28
59 59 60 62 64 64 65 66 67 67 68 68 68 68 68 68 69 70 71 70 71 70 69 68 66 65 64 62 61 58 56 53 50 47 45 43 42 40 38 36 33 31 27
59 60 62 64 65 66 67 67 67 67 67 67 67 67 66 66 68 68 68 68 69 68 67 66 64 64 63 61 60 58 56 53 49 46 44 43 42 40 38 35 32 29 26
61 62 64 66 66 67 67 67 67 66 66 65 65 64 64 64 66 66 66 66 66 67 65 64 62 62 61 59 58 57 55 53 49 46 44 43 41 40 38 34 31 27 24
64 65 65 66 67 67 66 66 65 64 63 62 62 62 61 62 64 64 65 64 65 65 64 62 60 60 60 58 56 55 53 51 48 45 43 42 41 39 36 33 30 26 22
65 66 66 66 65 65 64 63 62 60 60 60 60 59 59 60 62 62 62 62 63 63 62 61 59 58 58 56 54 53 52 49 46 44 42 41 39 37 34 31 27 23 20
65 64 64 63 63 62 60 59 58 57 58 58 57 56 57 58 60 60 60 60 60 60 60 59 58 57 56 55 54 52 50 46 43 42 41 40 38 35 32 29 25 21 17
61 61 60 59 59 58 57 56 56 56 56 56 54 54 56 57 58 59 58 58 58 58 58 57 56 55 54 53 53 51 48 44 40 38 37 37 35 32 30 26 22 18 14
58 58 57 56 56 54 53 53 54 54 54 53 53 53 54 55 56 57 56 56 56 56 55 54 54 53 53 52 51 50 48 44 39 37 35 34 32 29 27 23 19 14 12
53 53 52 52 52 51 51 51 51 51 51 51 51 52 52 53 54 55 54 54 55 54 54 53 52 51 51 50 50 48 45 42 38 36 35 32 29 27 24 20 15 11 10
49 49 50 50 49 49 49 50 50 49 49 49 50 50 51 52 52 52 52 52 53 53 52 51 51 50 49 49 48 47 44 41 37 35 33 30 27 24 20 17 12 9 9
49 49 49 49 48 49 49 49 49 48 48 48 48 48 49 50 50 50 50 50 51 51 51 50 50 49 48 47 47 45 43 40 36 33 31 27 24 21 17 13 10 7 9
51 51 51 50 50 50 49 49 48 48 48 48 48 47 47 48 48 48 48 48 49 49 48 48 48 47 46 46 46 44 41 39 35 32 29 25 22 19 15 11 7 6 8
52 52 52 52 51 51 50 50 50 49 48 47 47 46 45 46 46 46 47 46 47 47 46 46 46 45 45 44 44 42 39 37 33 29 27 23 19 16 13 9 6 5 8
53 53 52 51 51 51 51 51 50 50 49 47 46 44 44 44 44 44 45 44 45 45 45 45 45 44 43 43 43 40 37 35 30 27 24 21 17 13 10 7 4 5 7
53 53 53 52 52 52 52 52 51 50 48 46 45 43 43 43 42 43 43 42 42 43 43 43 43 43 42 42 41 39 36 33 29 26 23 19 15 11 9 6 4 5 7
55 55 55 55 55 54 54 53 51 49 46 44 43 41 40 40 40 41 40 40 40 41 41 42 42 41 41 42 40 38 35 32 28 25 21 17 13 10 8 6 4 4 7
56 56 56 56 56 55 53 52 49 46 44 42 40 38 38 38 38 39 38 38 38 39 39 40 40 40 40 40 39 36 34 32 28 24 19 15 11 8 6 4 2 3 6
58 57 57 56 55 54 52 50 47 44 42 40 38 36 36 36 36 36 35 35 36 37 38 39 39 39 39 39 37 35 34 32 28 24 18 13 10 7 5 3 2 3 6
58 57 56 56 55 53 50 47 44 42 39 36 35 34 33 34 34 33 33 33 34 35 36 37 38 38 37 37 35 34 33 31 28 23 16 12 8 5 3 3 3 4 5
56 55 55 54 54 52 48 45 42 38 36 33 32 31 31 31 31 30 30 31 32 33 35 36 37 36 36 35 34 33 32 31 27 21 15 10 6 3 3 4 5 5 5
56 56 55 53 52 49 45 42 38 35 33 31 29 29 29 29 28 27 28 28 30 31 33 34 35 34 34 34 33 33 32 31 27 20 13 7 3 3 4 4 4 4 6
56 55 53 51 49 45 41 38 34 32 30 28 26 26 26 26 25 25 25 26 28 30 32 33 33 33 33 33 32 33 32 30 26 18 11 4 2 5 5 6 6 6 7
54 53 51 48 44 41 37 33 30 28 26 24 24 24 23 23 22 22 22 24 26 28 30 31 31 31 32 32 32 32 31 29 24 16 7 0 5 7 7 7 7 8 9

GEFSGL_500_meanwind_060.txt.gz
Wind_Speed
53 54 55 57 59 60 61 61 62 63 64 65 65 66 66 66 66 67 66 65 64 64 65 66 68 69 69 69 69 69 70 71 72 70 70 70 70 69 67 65 61 57 53
52 52 53 55 56 57 59 60 62 63 64 65 66 66 65 65 65 66 65 64 64 64 65 66 67 68 68 68 69 68 69 70 72 72 69 68 67 66 64 61 58 55 52
50 51 52 54 55 56 58 60 61 62 63 64 65 65 64 64 64 64 64 63 63 63 64 65 66 68 67 68 67 67 68 69 71 71 69 67 65 63 61 58 55 52 51
49 50 52 53 55 57 58 59 61 62 62 63 63 62 63 63 62 62 61 61 61 62 62 64 66 67 66 66 66 66 67 68 69 69 68 66 63 62 60 56 53 50 49
48 50 52 53 55 56 57 58 59 59 60 60 60 61 61 61 60 59 59 60 60 60 61 64 65 66 65 65 65 64 65 66 67 67 66 64 62 61 58 55 52 49 47
49 50 51 53 53 54 55 55 56 57 57 57 58 58 58 57 56 57 57 58 58 59 61 63 64 64 64 64 63 63 64 65 65 65 64 62 61 59 56 53 52 49 46
49 49 50 50 51 52 53 54 54 54 54 54 54 55 54 54 55 55 56 56 56 57 59 60 61 61 62 62 61 61 61 62 63 63 62 60 60 58 55 51 50 48 46
46 46 47 48 49 50 51 52 52 52 52 53 53 53 53 53 54 55 55 55 56 57 58 59 59 59 60 60 59 59 59 59 59 60 60 58 57 55 52 50 48 45 43
44 45 46 47 49 50 51 52 52 52 52 53 53 53 53 52 53 53 54 55 56 56 57 58 58 58 58 58 57 57 57 56 56 57 57 56 55 53 50 48 46 44 41
45 46 47 47 49 50 51 52 53 53 53 54 54 53 53 53 53 54 54 55 55 55 56 56 57 56 56 56 56 56 55 54 54 54 53 53 52 50 47 46 44 41 39
47 47 48 50 50 51 52 52 53 53 54 55 54 53 53 53 53 53 54 54 55 55 55 55 55 55 55 55 55 54 54 53 52 52 51 51 49 46 43 42 41 39 36
49 50 51 52 52 52 53 53 54 55 55 55 54 54 54 53 53 53 54 54 54 54 53 53 53 53 53 53 53 52 52 51 51 50 49 48 45 43 40 39 38 36 34
51 53 53 54 54 54 55 55 55 55 56 55 54 54 54 53 54 54 54 53 53 52 52 52 51 51 51 51 51 50 50 49 49 48 46 44 42 39 38 37 35 33 31
53 54 55 55 55 56 56 55 55 55 55 54 55 55 55 54 54 54 53 52 51 51 50 50 50 50 50 49 49 49 48 48 47 45 42 40 39 37 36 35 32 30 28
54 55 56 57 56 56 56 55 55 55 55 55 55 55 55 54 54 53 52 51 49 49 48 47 48 48 48 47 47 47 47 46 45 43 40 38 37 35 34 33 30 27 25
56 56 57 57 56 56 56 55 55 56 55 55 55 54 53 53 52 50 49 48 47 47 46 45 45 46 46 46 45 45 45 44 42 40 38 36 35 33 32 31 28 25 23
58 57 57 57 56 56 56 56 56 56 55 55 54 54 53 52 50 49 47 46 45 44 43 43 43 44 44 43 43 42 42 41 40 38 36 35 34 32 30 27 25 23 21
57 58 57 57 57 57 57 57 57 56 55 54 54 53 52 50 48 45 44 43 42 41 40 41 41 41 41 41 40 39 39 38 38 36 35 34 32 30 28 25 23 21 19
57 57 56 56 56 56 56 57 57 56 55 54 53 51 49 47 45 42 41 40 39 39 38 38 39 39 39 38 37 38 37 37 36 35 34 33 30 28 25 23 21 19 17
55 54 54 55 55 55 56 57 56 55 55 53 51 49 47 45 42 40 38 37 36 36 35 36 36 36 36 35 36 36 35 35 34 34 33 31 28 26 23 21 19 17 15
52 52 53 53 53 54 55 55 54 54 53 51 49 47 44 41 39 37 34 33 33 33 33 33 33 33 33 34 34 34 33 33 33 32 31 29 26 24 22 19 17 15 13
50 50 51 52 52 54 54 55 55 54 52 49 45 41 38 36 34 32 30 30 30 30 30 30 30 30 31 32 33 32 32 32 32 31 29 27 24 21 19 16 14 13 11
48 49 50 52 53 54 54 54 52 50 46 42 37 34 32 30 28 27 26 26 26 26 27 27 28 28 30 31 31 30 30 30 31 30 27 25 21 18 15 13 11 10 9
48 49 51 52 53 52 51 50 48 44 39 35 31 27 25 23 22 22 22 22 22 23 24 25 26 27 29 29 29 29 29 29 29 28 25 22 18 14 11 10 9 8 8
48 49 50 50 50 48 47 44 40 36 32 27 23 21 19 19 18 18 18 18 19 21 22 23 24 26 28 28 28 28 28 29 28 26 23 18 13 9 7 6 6 6 5
46 47 47 47 46 44 42 37 33 29 25 21 18 17 16 15 14 14 15 16 17 19 20 22 24 25 27 27 27 27 27 27 26 23 19 13 8 5 4 4 4 4 4

GEFSGL_500_meanwind_066.txt.gz
Wind_Speed
51 53 54 55 56 57 58 59 60 61 62 62 63 64 64 64 64 64 64 64 65 65 66 66 66 66 66 66 66 66 65 66 64 63 64 66 67 68 68 68 69 69 69
52 53 54 55 57 57 58 59 59 59 60 61 61 62 63 63 63 64 63 63 64 65 65 65 65 66 66 66 66 65 65 65 65 64 64 66 67 68 68 68 69 69 70
53 54 54 55 57 57 58 58 58 58 59 59 60 61 61 61 61 61 61 62 63 63 64 64 64 65 64 65 64 64 65 65 65 64 64 65 66 67 67 68 69 69 69
54 54 54 55 56 57 57 57 57 57 58 58 59 59 59 59 59 60 61 62 63 63 63 63 63 63 63 64 64 64 64 64 64 64 64 64 64 65 67 68 68 67 67
56 56 56 56 55 56 56 56 57 58 58 58 57 57 57 58 59 60 61 62 62 62 62 61 61 62 62 62 62 62 63 63 63 63 63 63 63 65 66 67 66 66 65
58 58 58 58 57 57 56 56 57 57 57 56 56 57 57 58 59 61 61 61 61 61 61 61 62 62 61 62 62 62 62 63 63 63 63 63 63 64 65 65 65 65 64
60 60 59 59 58 57 57 57 57 56 56 56 56 57 58 59 61 62 63 62 61 60 61 61 61 61 61 61 61 61 62 62 62 63 62 62 62 63 64 64 64 64 63
63 62 61 60 59 59 58 58 58 57 57 57 57 58 59 59 61 61 62 62 61 60 60 60 60 59 59 59 60 61 61 61 61 62 62 61 61 61 62 62 62 62 60
64 62 61 61 59 59 58 58 58 57 57 58 58 59 59 59 61 61 61 61 60 60 59 59 58 58 58 59 60 60 60 60 61 61 61 60 59 59 60 61 61 61 59
64 62 61 61 60 59 58 57 57 57 57 57 58 59 60 60 60 60 60 59 59 58 58 58 58 58 58 59 59 58 58 58 59 59 58 58 57 57 58 59 59 59 57
64 62 61 60 59 58 58 57 57 57 57 57 58 58 59 58 58 58 58 58 58 58 58 57 56 57 57 57 57 56 56 56 56 56 55 55 54 54 55 55 56 56 53
62 60 59 58 58 58 58 57 57 57 57 57 57 57 57 56 57 57 58 58 58 58 56 55 54 54 55 54 54 54 53 54 53 53 52 52 52 52 52 52 52 50 49
60 59 58 58 58 58 57 57 57 57 57 56 55 55 55 55 56 57 57 57 57 56 54 54 54 53 53 52 51 52 52 51 51 51 50 50 50 50 49 49 48 47 46
59 58 58 57 56 56 56 56 55 55 54 54 54 54 54 55 55 55 55 55 54 54 53 53 52 51 50 49 49 49 49 48 49 49 48 48 48 47 47 46 45 44 44
57 56 56 55 54 54 53 53 53 53 54 53 53 54 54 54 54 55 55 54 53 52 52 51 49 48 47 46 46 45 45 46 46 46 45 45 45 45 44 43 43 42 42
55 54 53 53 52 51 50 49 50 50 51 52 52 53 53 54 54 54 53 52 51 50 49 48 46 45 44 44 43 43 43 44 44 43 43 43 43 42 41 41 41 41 39
54 52 51 50 49 48 47 47 46 46 47 49 50 51 52 52 53 53 52 50 49 48 46 44 43 43 42 41 41 41 41 41 40 40 41 41 40 39 39 38 38 38 37
51 50 49 48 46 45 44 45 45 46 46 47 49 50 51 51 51 51 49 47 45 43 42 41 40 39 39 38 38 38 38 38 38 38 39 39 38 37 37 36 36 35 34
48 47 46 45 44 43 43 44 46 47 47 48 49 49 50 49 48 46 44 42 40 39 38 37 36 36 36 36 35 35 35 35 36 37 36 36 36 35 35 34 34 34 33
45 44 43 42 42 42 43 44 45 46 47 47 47 47 46 44 42 40 39 38 36 35 34 34 33 33 32 32 32 32 33 33 34 34 34 34 34 34 34 33 33 32 30
42 40 40 40 41 42 43 44 44 45 45 45 44 42 41 39 37 34 33 32 31 30 30 29 28 28 27 27 28 29 30 31 32 32 32 33 33 33 33 32 31 29 26
39 39 40 41 41 42 43 43 44 44 44 42 40 38 36 35 32 30 30 29 28 27 25 23 23 23 23 24 25 27 28 29 29 29 30 31 32 32 31 30 28 25 23
39 39 40 40 41 41 42 42 42 41 40 38 36 34 33 32 30 29 28 27 25 23 21 19 19 20 21 22 24 26 27 27 28 28 29 30 30 30 28 26 23 20 19
38 38 39 39 40 40 40 40 39 38 36 34 33 31 31 29 28 27 25 24 22 20 19 18 18 19 20 22 24 25 26 26 27 27 28 28 27 25 23 22 19 17 15
36 37 37 38 38 38 38 37 36 34 32 31 30 29 27 26 25 23 22 20 19 18 18 18 18 19 20 22 24 25 26 26 26 26 25 24 22 21 20 18 15 12 11
35 35 36 36 36 36 35 33 32 31 29 28 26 25 23 22 22 21 20 19 18 18 17 18 18 20 21 23 24 25 25 25 23 22 21 20 20 19 16 13 11 10 9

GEFSGL_500_meanwind_072.txt.gz
Wind_Speed
49 51 53 55 57 59 60 61 62 63 64 65 65 65 66 66 67 68 68 68 68 68 69 69 68 69 68 68 68 68 67 67 64 61 63 63 64 64 65 66 65 64 64
55 57 59 61 62 64 65 66 67 67 68 68 67 67 67 67 68 68 68 68 68 68 68 68 68 69 68 68 68 67 66 66 65 62 63 64 64 65 66 66 65 65 65
61 63 65 66 68 69 69 70 70 70 70 70 70 69 68 68 68 68 68 68 67 67 67 67 67 67 66 66 66 65 65 65 65 64 64 65 65 65 66 66 65 65 66
67 69 70 72 73 73 74 74 73 73 72 72 71 70 69 69 69 69 68 67 67 66 66 65 65 65 64 64 65 65 65 65 66 65 65 65 64 65 66 65 66 66 66
72 74 75 76 77 77 76 76 75 75 74 73 71 70 69 69 68 68 68 67 66 65 64 63 62 62 63 63 63 63 64 65 65 65 65 64 64 65 65 65 65 65 64
77 78 79 79 79 78 77 76 75 74 72 71 70 69 68 68 67 67 66 65 64 63 62 61 61 61 61 62 63 63 64 64 64 64 64 64 63 64 64 65 64 64 63
81 81 81 80 79 78 76 75 73 72 70 69 68 67 66 65 65 64 63 63 61 60 59 59 59 59 60 61 62 63 63 63 63 63 63 62 62 63 64 64 64 64 62
83 82 81 80 78 76 74 72 70 69 67 66 65 64 62 61 61 60 59 58 57 56 56 57 58 59 60 61 61 61 61 61 62 62 62 61 61 62 63 63 64 63 62
82 81 80 78 75 73 70 68 67 65 64 63 61 60 59 58 58 57 56 55 55 54 55 56 57 58 59 61 60 60 60 60 61 62 62 61 60 61 61 62 62 62 61
81 79 76 73 70 68 66 64 63 61 60 59 58 57 57 56 55 54 54 53 53 53 53 54 56 56 57 58 59 59 59 59 60 60 60 60 59 59 59 60 60 61 61
78 74 70 67 65 63 62 60 58 57 56 55 54 53 53 53 52 52 52 52 52 52 52 53 54 55 56 57 58 57 57 58 58 57 56 56 56 56 57 58 59 60 60
72 68 65 63 61 60 59 57 56 55 54 53 51 50 50 50 50 49 49 49 50 50 50 51 52 53 54 55 55 55 55 55 54 54 53 53 54 54 55 56 57 58 58
67 64 61 59 58 57 56 55 53 52 52 50 48 47 46 46 46 46 46 47 48 49 49 50 51 52 52 53 53 53 53 53 52 52 51 51 52 53 54 54 55 55 55
63 60 58 57 54 53 52 52 50 49 48 47 46 44 43 42 43 44 44 45 46 47 48 48 49 50 50 50 50 50 51 51 50 49 49 49 49 50 50 51 51 52 52
59 57 56 54 52 50 49 49 47 46 46 44 43 42 42 41 42 43 43 44 45 46 46 47 47 47 48 48 47 48 48 48 48 48 47 47 48 48 48 49 49 49 48
56 54 52 50 48 47 46 44 44 44 43 43 42 43 42 42 42 42 43 43 44 44 44 43 43 44 44 44 44 44 45 46 46 46 46 46 46 46 46 46 46 46 45
54 51 49 48 47 46 44 43 40 39 40 41 42 43 42 42 42 42 42 42 41 41 41 40 40 40 40 41 41 42 42 43 43 43 43 43 43 43 43 43 43 43 43
51 49 48 47 45 43 42 41 41 40 39 39 40 41 41 41 41 41 40 40 39 39 39 38 38 38 37 38 38 38 38 38 38 39 39 39 39 39 39 40 40 40 40
48 47 45 44 43 42 41 41 41 40 40 39 38 39 40 40 39 39 38 38 37 37 37 36 36 36 36 35 35 34 34 33 34 34 34 35 35 36 36 37 37 38 38
45 44 44 43 42 41 40 40 39 39 39 39 38 38 38 37 36 36 35 35 35 35 35 35 35 34 34 33 32 30 29 29 30 30 31 32 33 34 34 35 35 35 36
43 42 42 42 41 40 39 38 38 39 38 37 37 36 35 35 33 32 32 33 33 33 33 33 33 32 31 30 29 28 28 28 29 29 30 31 32 32 32 32 33 33 33
42 41 41 40 39 38 37 37 38 37 36 35 34 33 33 32 31 31 31 31 31 31 32 32 31 30 29 28 28 28 27 27 28 29 29 30 30 29 29 29 29 28 28
41 40 39 39 38 36 35 36 36 35 34 33 32 31 31 31 30 30 30 30 30 30 30 30 29 28 27 27 26 26 26 26 26 27 26 26 25 24 24 24 25 25 25
39 38 38 37 35 34 34 34 34 33 32 32 31 30 30 30 30 30 30 30 29 30 30 29 28 27 26 25 25 25 24 24 23 22 22 21 21 22 22 23 24 25 25
37 36 35 35 33 33 32 32 32 31 31 30 30 29 29 29 30 30 30 29 29 29 29 28 28 26 25 23 22 21 21 21 21 21 21 21 21 22 22 23 23 24 23
34 34 33 32 32 31 31 31 30 30 29 29 28 28 29 30 30 30 29 29 28 28 28 27 26 24 22 20 19 19 19 19 20 20 20 20 21 21 21 22 22 22 21

GEFSGL_500_meanwind_078.txt.gz
Wind_Speed
50 52 55 57 60 62 65 68 70 72 75 77 79 81 82 83 84 84 85 85 85 85 85 85 84 83 83 82 82 82 82 81 79 74 75 75 75 74 74 74 73 73 72
55 57 60 62 65 68 70 73 75 77 80 82 83 84 85 85 85 85 85 85 85 85 84 84 84 83 83 82 81 81 80 79 78 74 73 74 73 73 73 73 72 72 71
60 62 65 68 70 73 75 78 80 82 83 84 85 86 86 85 85 85 84 84 83 82 82 81 80 80 79 78 78 77 76 76 75 73 70 71 71 71 71 71 71 70 70
65 67 70 73 75 78 80 81 83 85 86 86 86 86 85 85 83 82 82 81 79 78 76 75 75 74 74 73 73 72 72 71 71 70 68 68 68 68 69 69 69 69 69
69 72 75 77 79 81 83 84 85 86 87 87 86 85 83 81 79 78 76 74 72 71 69 68 68 68 67 67 67 66 66 66 66 66 64 64 65 65 66 67 68 68 68
73 76 78 80 82 84 85 86 87 87 86 85 83 81 78 75 73 71 69 67 65 64 62 62 61 61 61 61 61 61 61 61 61 61 61 60 60 61 63 64 64 65 64
77 79 81 83 84 85 87 87 87 86 84 81 77 74 71 68 66 64 62 61 59 58 57 57 56 56 56 56 57 57 57 58 58 58 58 57 58 59 60 61 62 62 63
80 81 83 85 86 87 87 86 85 82 79 75 71 68 65 62 60 59 59 58 56 55 54 53 52 52 52 53 53 53 53 54 54 55 55 54 56 58 59 60 61 61 61
82 83 84 86 87 87 86 83 79 76 72 68 64 62 60 57 57 56 55 53 52 50 50 49 49 48 49 49 49 49 49 50 51 52 53 53 54 55 57 58 59 60 60
83 84 85 86 86 85 82 77 73 69 66 62 59 57 56 54 53 52 51 50 48 47 46 45 45 45 45 46 46 46 46 47 48 50 51 52 52 53 54 55 56 57 57
84 85 85 85 82 79 75 70 67 64 60 57 55 53 53 52 50 49 48 47 46 44 43 42 42 43 43 43 43 44 44 45 46 48 49 50 51 51 52 53 54 54 54
84 85 83 80 76 72 68 64 61 59 56 54 52 50 49 49 48 47 46 45 44 43 42 41 41 41 41 42 43 43 44 45 45 46 46 47 49 50 51 52 53 53 54
84 82 78 74 69 66 63 60 57 55 53 52 50 48 46 45 44 44 43 43 43 43 42 41 40 40 40 41 42 42 42 43 44 44 44 45 46 47 49 50 51 52 52
81 77 72 68 64 60 57 55 53 52 51 50 48 46 44 42 42 41 41 41 41 41 41 40 40 39 39 38 38 39 40 40 41 41 42 43 43 44 45 46 47 47 48
76 71 67 63 59 55 52 51 50 49 50 49 47 45 43 41 40 40 39 39 39 39 39 38 38 37 37 37 37 38 38 39 39 40 41 41 42 43 43 44 45 46 46
71 66 62 57 54 51 49 47 46 47 47 47 46 45 43 42 40 40 39 39 39 38 38 37 36 35 35 36 37 38 38 38 38 38 39 39 40 40 40 41 43 44 44
66 61 57 53 51 49 47 46 44 43 43 43 44 43 42 41 40 39 39 38 38 37 37 36 35 35 35 35 36 36 37 37 37 37 37 38 38 38 39 40 41 42 42
60 56 53 50 48 47 46 45 44 42 40 39 40 41 41 40 39 38 37 36 35 35 35 34 33 33 33 34 34 34 35 35 35 35 35 35 36 37 37 38 38 38 39
55 52 49 48 47 45 45 44 43 42 41 39 38 38 38 38 37 37 36 35 34 34 34 34 34 34 34 34 33 33 33 33 33 33 32 32 32 33 33 34 34 35 36
50 49 48 47 45 44 43 42 42 41 40 38 37 37 36 36 35 35 35 34 34 33 33 33 34 34 34 33 32 32 31 31 30 30 30 30 30 31 31 31 32 32 33
48 46 46 45 43 42 41 41 40 39 38 36 36 37 36 35 34 33 33 33 33 33 34 34 34 34 33 32 30 29 29 28 28 28 29 29 29 29 29 29 29 30 31
46 44 43 42 40 39 39 39 39 38 37 36 35 35 35 34 33 33 33 34 34 34 34 33 33 32 30 29 28 28 27 27 26 27 27 27 27 28 28 28 28 29 30
43 42 41 40 39 38 38 38 38 37 35 34 34 34 33 33 32 33 33 33 33 33 32 32 31 30 28 27 26 25 25 24 25 25 25 25 25 26 27 28 28 29 29
40 40 38 37 37 36 36 36 36 35 34 34 33 33 33 32 32 32 32 32 32 31 31 30 29 28 27 26 25 25 24 25 25 25 25 24 24 24 25 25 26 26 27
38 37 36 36 35 35 34 34 34 33 33 33 32 32 31 31 31 31 31 31 31 30 29 29 29 28 27 26 25 25 25 25 25 25 24 24 24 23 23 23 23 24 25
36 35 35 34 34 33 33 33 33 32 32 31 31 30 30 30 30 30 30 30 29 29 29 29 28 27 26 25 25 24 25 24 24 24 24 24 24 23 23 24 24 25 25

GEFSGL_500_meanwind_084.txt.gz
Wind_Speed
43 45 46 48 51 53 55 58 61 63 66 68 71 73 75 78 80 82 83 85 86 87 88 88 88 88 88 88 87 87 87 87 87 82 81 83 84 84 83 83 83 84 84
46 48 50 52 55 57 60 62 65 68 70 73 75 78 80 82 84 85 87 88 88 88 87 87 86 84 83 81 80 79 78 77 77 74 71 72 74 74 75 74 74 75 76
49 51 54 56 59 61 64 66 69 72 74 77 79 81 83 85 87 88 88 88 88 86 84 82 80 77 75 73 71 70 69 69 69 67 64 64 65 66 67 67 66 67 67
53 55 57 60 63 65 68 70 73 76 78 80 83 85 86 88 88 88 87 86 83 81 78 75 71 69 67 65 64 63 63 63 63 62 59 58 58 59 61 61 61 62 62
56 58 61 63 66 69 71 74 77 79 81 83 85 87 88 88 87 86 83 80 77 73 69 66 64 62 61 60 59 58 58 58 58 57 55 54 53 54 55 56 57 58 59
59 61 64 67 69 72 74 77 79 81 83 86 87 88 87 85 83 80 77 73 69 66 63 61 59 58 56 56 56 55 55 54 54 53 52 50 49 50 51 52 53 54 55
62 64 67 70 72 75 77 79 82 84 86 87 87 87 84 80 76 72 69 66 62 60 58 56 54 53 52 52 51 50 50 50 51 51 49 47 47 47 49 50 50 50 50
64 67 70 72 75 77 80 82 84 86 87 87 85 82 78 73 69 66 62 59 56 55 53 52 50 48 48 47 47 46 46 47 48 48 47 46 45 45 46 47 47 48 47
67 70 72 75 77 80 82 84 86 87 86 84 80 76 71 66 63 60 57 54 52 51 50 48 47 46 45 45 45 44 44 44 45 45 45 44 43 43 43 43 43 44 44
69 72 74 77 80 82 84 86 86 86 83 79 73 68 64 60 57 55 53 51 50 48 46 45 45 44 44 44 44 44 43 43 43 42 42 42 41 41 41 41 41 42 42
72 74 76 79 82 84 85 85 84 81 77 72 67 62 59 56 54 52 51 50 48 46 44 43 43 43 43 43 43 43 42 42 41 39 39 38 39 39 39 40 40 41 41
74 76 78 81 83 84 84 82 79 75 70 65 60 56 54 53 51 49 48 47 47 45 44 43 42 42 42 42 42 41 41 40 39 38 37 37 37 38 38 39 39 40 41
75 78 80 82 83 82 81 77 72 68 64 60 56 53 50 49 48 46 45 45 45 44 43 42 41 41 41 40 40 40 39 39 38 38 37 37 37 37 37 38 39 39 40
77 80 82 82 81 78 75 71 67 63 60 56 54 51 48 46 45 43 42 42 42 42 41 40 39 39 39 38 37 37 37 37 38 38 37 37 37 38 39 39 39 39 39
80 81 81 80 78 74 70 66 62 59 57 54 51 49 47 44 42 41 41 40 40 39 39 38 37 37 36 36 36 36 36 36 36 36 36 36 37 37 38 38 38 38 39
81 80 79 77 74 69 65 60 57 55 53 51 49 47 45 43 41 40 40 40 39 39 38 37 36 35 35 35 35 35 35 35 35 35 35 35 35 35 35 35 36 36 37
80 79 77 73 69 64 60 56 52 49 48 47 46 45 44 42 41 40 39 38 38 38 37 35 35 35 35 35 35 35 35 35 35 34 34 33 33 33 33 33 34 35 35
78 75 72 68 64 60 56 53 49 47 44 42 42 43 42 40 39 39 38 37 37 36 35 35 34 34 34 34 34 34 34 34 33 33 32 32 31 31 31 32 33 33 34
74 71 67 63 59 55 52 49 47 45 43 41 40 39 39 38 37 37 37 36 36 35 34 33 33 33 33 33 32 32 31 31 31 30 30 30 29 30 30 30 31 32 33
69 66 62 58 54 51 49 47 45 43 42 41 39 38 36 36 35 35 36 35 34 33 32 32 32 31 31 31 31 31 30 30 29 28 28 27 27 28 29 29 30 30 31
65 60 57 54 51 49 47 45 43 42 41 40 38 37 36 35 34 34 34 33 32 32 31 31 30 30 30 30 30 30 29 28 28 27 27 27 28 28 28 29 29 29 30
60 56 53 50 48 46 44 43 42 41 40 39 37 36 35 34 34 33 32 31 31 30 30 29 29 29 29 30 29 29 28 28 27 27 27 27 28 28 28 28 29 29 29
55 52 50 48 46 44 42 41 41 39 38 37 35 34 33 33 32 32 31 31 30 29 29 28 28 29 30 30 30 30 29 29 29 28 28 28 28 28 28 28 28 28 28
52 50 48 46 44 42 40 39 38 37 36 34 33 32 32 31 31 30 30 30 29 29 28 28 28 29 30 30 30 30 30 30 30 29 29 28 28 28 27 27 27 27 27
49 47 45 43 41 39 38 37 36 34 33 33 32 31 30 30 30 30 29 29 29 28 28 28 29 29 30 31 31 31 31 30 30 30 29 29 28 28 28 27 27 27 27
47 45 43 40 38 37 36 35 33 32 31 31 30 29 29 29 29 28 29 29 28 28 28 28 28 29 30 31 31 31 31 30 30 30 29 29 28 28 27 27 27 27 27

GEFSGL_500_meanwind_090.txt.gz
Wind_Speed
42 42 43 44 46 47 49 50 52 53 55 57 58 60 62 64 66 68 70 72 74 76 78 80 81 83 84 85 85 85 85 84 85 80 77 75 75 74 72 71 69 68 67
43 44 45 47 48 50 51 53 54 56 57 60 61 63 65 67 69 71 73 75 77 79 81 82 83 84 84 83 82 81 79 78 77 74 70 68 67 67 65 64 62 61 61
45 47 48 49 51 52 53 55 56 58 60 62 64 66 68 70 72 75 77 78 80 82 83 84 83 83 82 79 77 75 72 71 69 68 64 61 59 58 57 56 56 56 55
48 49 50 51 53 54 55 57 59 61 63 64 67 69 71 73 75 77 79 81 82 83 83 83 81 79 77 74 71 68 66 64 62 61 58 54 52 52 52 51 50 50 50
50 51 52 53 55 56 58 60 62 64 65 67 69 71 74 76 78 80 82 83 83 82 81 79 76 73 70 67 64 61 59 58 56 55 52 50 48 48 48 48 47 47 47
51 53 54 55 57 58 60 62 64 66 68 69 72 74 76 78 80 82 84 84 83 80 77 73 69 65 62 60 57 56 54 54 52 50 49 47 46 45 45 46 46 45 44
53 54 56 57 59 61 63 64 66 68 70 72 74 76 78 80 82 83 83 82 79 75 71 67 62 59 57 55 53 51 51 50 49 48 47 46 45 44 45 44 44 44 43
54 56 58 59 61 63 65 66 68 70 72 74 77 79 80 82 82 82 80 77 72 68 64 61 58 55 53 52 49 48 47 46 46 47 46 45 45 44 44 43 43 42 40
56 58 59 61 63 65 66 68 70 72 75 77 79 81 82 81 80 78 75 71 66 62 58 56 55 52 50 49 47 46 45 44 45 45 45 44 43 43 43 42 41 41 38
57 59 61 63 65 66 68 70 73 75 78 80 81 82 81 79 76 73 69 66 61 58 55 52 51 49 47 46 45 45 44 43 43 42 42 42 42 41 41 41 41 40 39
59 60 62 64 66 68 70 73 76 78 80 82 82 80 78 75 71 67 64 60 57 54 51 49 47 45 44 43 43 43 43 42 41 41 40 40 40 39 39 40 40 40 38
60 62 64 66 68 70 73 76 79 81 82 82 80 77 73 69 65 61 58 55 53 51 48 46 44 43 42 41 41 41 42 41 41 40 39 38 38 37 37 38 38 38 37
61 63 65 67 70 73 76 78 81 82 82 80 77 73 67 63 59 56 53 51 50 49 47 45 43 41 41 40 40 41 41 40 39 38 37 36 36 36 36 36 36 36 36
63 65 67 70 72 75 78 80 82 81 80 76 72 68 63 58 55 52 50 48 46 45 44 41 40 39 39 39 39 39 39 37 36 36 35 35 34 34 34 34 35 35 35
65 67 70 72 75 77 79 81 81 79 76 72 68 64 60 55 52 50 48 46 44 42 41 39 37 37 37 37 37 36 34 33 34 34 33 33 32 32 32 33 33 34 34
68 70 72 75 77 80 81 80 77 74 70 67 63 60 56 53 50 48 46 44 42 41 39 38 37 36 36 35 34 32 32 32 31 31 31 31 31 31 31 31 31 31 31
70 73 75 77 80 81 81 79 74 68 65 61 58 56 53 50 48 46 44 41 40 40 38 37 36 35 34 33 32 31 30 30 29 29 30 30 30 30 30 30 29 28 28
73 75 78 79 80 80 78 75 71 67 61 55 54 52 50 47 45 44 42 40 38 38 37 36 35 34 33 32 32 31 29 29 29 29 29 30 29 29 29 29 28 27 27
76 78 79 80 79 78 75 71 67 63 59 54 50 48 46 44 42 41 40 38 37 36 35 34 34 33 32 32 31 30 29 29 29 30 30 30 30 29 29 28 28 28 27
77 79 79 79 77 75 71 67 63 60 55 52 48 45 43 41 38 37 37 36 36 35 33 33 33 32 32 31 30 29 29 29 29 30 30 30 30 30 29 29 29 28 28
79 78 78 77 74 71 67 63 60 56 52 48 45 42 41 39 36 35 34 34 34 33 32 32 32 32 32 31 30 29 29 29 30 30 30 30 30 30 30 30 29 29 29
78 78 76 74 71 67 64 60 56 52 49 46 42 39 38 36 35 33 33 32 32 32 32 32 31 31 31 30 29 29 29 30 30 31 31 31 31 31 30 30 30 30 30
77 76 74 71 67 63 59 55 51 48 46 42 39 37 35 34 33 32 32 32 31 31 32 31 30 30 31 30 29 29 30 31 31 32 32 32 32 31 31 31 31 31 31
75 73 70 66 62 57 53 50 47 44 42 39 37 35 33 32 32 31 32 31 30 31 31 30 30 30 30 29 29 30 31 31 32 32 32 32 32 31 31 31 31 32 32
72 69 65 61 56 52 49 46 44 41 39 37 35 33 32 31 31 31 31 30 29 30 30 30 29 30 29 29 30 30 31 32 32 33 33 33 32 32 32 32 32 32 32
68 64 60 56 52 49 46 43 41 39 36 35 33 32 31 31 30 30 30 29 29 29 29 29 30 30 30 30 31 31 32 33 33 34 34 34 33 33 33 33 33 32 32

GEFSGL_500_meanwind_096.txt.gz
Wind_Speed
41 42 43 44 45 46 47 49 50 50 51 52 53 54 55 57 58 59 61 62 64 65 66 68 70 72 73 75 77 78 80 82 84 82 83 84 84 84 83 82 80 77 75
43 44 45 46 47 48 49 50 51 52 53 54 55 56 57 59 60 61 62 64 65 66 68 70 71 74 75 77 79 80 82 83 85 84 82 82 81 80 78 75 72 69 67
45 46 47 48 49 50 51 52 53 54 55 56 57 58 59 60 61 63 64 65 67 68 70 72 74 76 77 79 81 82 83 84 84 84 80 78 75 72 69 66 64 61 60
46 47 48 49 50 51 52 53 54 55 56 57 58 59 60 61 62 64 65 67 68 70 72 74 76 78 80 81 82 82 82 82 80 78 75 71 67 64 62 59 57 55 53
48 49 50 51 52 53 54 54 56 57 58 58 59 60 61 62 64 66 67 68 70 72 75 77 79 80 82 82 81 80 79 77 74 71 67 63 59 57 55 54 52 50 48
49 50 51 52 53 53 54 56 56 57 58 60 61 62 62 64 66 68 70 72 74 76 77 79 80 81 81 79 78 76 74 71 67 64 60 56 53 52 50 49 47 46 44
50 51 52 53 53 54 56 56 57 58 59 61 61 63 64 66 68 70 73 75 77 78 80 81 80 79 77 75 72 69 66 63 60 58 54 51 49 47 46 45 45 44 42
51 52 53 53 54 55 56 57 58 60 61 61 63 64 66 68 71 74 76 78 79 81 81 80 78 75 72 69 66 62 58 56 54 53 50 47 45 43 43 43 42 41 40
52 52 53 54 55 56 57 58 59 61 62 63 65 67 69 71 74 77 80 81 81 81 79 76 74 70 66 64 61 57 53 51 50 48 46 44 42 41 42 41 41 40 39
51 52 53 54 56 57 58 59 61 62 63 65 67 69 72 75 78 81 83 83 82 78 75 71 68 65 61 58 56 52 49 47 45 43 42 41 40 40 40 40 39 38 37
51 52 54 55 57 58 59 60 62 64 66 67 69 72 75 79 81 83 84 83 79 75 70 66 62 59 56 54 52 49 46 44 41 40 38 37 38 38 38 37 36 35 34
52 53 54 56 57 59 60 62 64 66 68 70 73 75 78 81 83 83 81 78 75 71 66 61 57 54 51 49 47 45 43 41 39 37 36 35 35 35 34 34 33 33 32
53 54 55 57 58 60 62 64 66 69 72 74 77 79 80 82 82 80 77 73 70 66 61 57 53 50 47 45 43 42 41 39 36 35 34 33 32 31 31 30 30 30 29
53 55 56 58 60 62 64 67 70 73 76 78 81 82 82 81 80 76 72 68 64 60 56 52 49 46 44 42 40 39 38 36 34 33 32 31 30 29 28 27 27 27 27
55 56 58 60 62 65 67 70 73 76 80 82 84 84 83 80 76 73 68 63 59 55 51 47 44 42 40 39 38 36 35 34 33 32 31 30 29 28 27 27 26 26 25
56 58 61 63 66 68 71 73 76 79 82 84 84 84 82 78 73 68 63 58 55 51 47 44 41 39 37 35 34 34 33 32 32 31 30 28 27 27 27 27 26 25 25
59 61 64 67 70 72 75 78 79 80 82 83 82 81 78 73 68 62 58 54 50 47 43 41 38 36 34 33 32 31 31 31 30 29 28 28 27 27 27 27 26 26 25
62 65 68 70 74 76 79 81 83 83 82 79 78 76 72 67 62 57 53 49 45 43 41 39 36 33 32 31 30 30 29 29 29 28 27 27 27 26 27 27 26 26 25
66 68 71 74 77 79 81 83 84 83 82 79 74 69 65 61 56 52 49 46 43 40 38 36 34 32 31 30 29 29 29 28 28 27 27 26 26 26 26 26 26 25 25
69 72 76 78 80 81 83 83 83 81 79 74 69 64 59 55 50 46 44 43 40 38 36 33 31 30 30 29 29 29 28 28 27 27 26 26 26 26 26 26 26 26 25
73 76 78 80 81 83 83 83 81 78 74 69 63 59 55 51 47 43 41 39 37 35 33 31 30 30 29 29 29 28 28 27 27 26 25 26 26 26 26 26 26 26 26
76 78 79 81 82 83 82 80 77 73 69 64 59 55 52 48 44 41 38 36 34 33 31 30 29 29 29 29 28 27 27 26 26 25 26 26 26 27 27 27 27 27 27
78 80 81 82 82 81 79 76 72 67 63 59 56 51 47 44 41 38 35 33 32 31 31 30 29 29 29 29 28 27 26 26 26 26 26 26 26 27 27 28 28 28 28
80 81 82 81 80 77 73 69 65 61 57 54 50 47 43 40 37 34 33 31 31 30 30 29 29 29 28 28 28 27 26 26 26 26 26 26 26 27 28 28 29 29 29
81 81 80 78 75 71 67 63 59 55 52 49 45 42 39 36 34 32 31 30 30 29 29 29 28 28 27 27 27 27 27 27 27 27 27 27 27 28 28 28 29 29 29
79 78 76 73 69 65 61 57 53 50 47 44 41 38 35 33 31 30 30 29 28 28 28 28 27 27 27 27 27 27 27 28 28 28 28 28 27 28 28 29 29 28 29

GEFSGL_500_meanwind_102.txt.gz
Wind_Speed
39 40 42 43 44 45 46 47 47 48 49 50 51 51 52 53 54 55 56 57 58 59 60 61 62 63 63 64 66 67 69 71 72 71 73 75 77 78 78 79 79 79 79
40 42 43 44 45 46 47 48 49 50 51 51 52 53 54 55 56 56 57 58 59 60 61 62 62 63 64 66 67 69 71 73 75 75 76 78 79 80 81 80 80 80 79
42 43 44 45 46 47 48 49 50 51 52 53 54 54 55 56 57 58 59 59 60 61 62 63 64 65 66 68 69 71 74 76 78 79 79 79 80 80 80 79 78 77 75
42 43 44 46 47 48 49 50 52 53 54 54 55 56 56 57 58 59 59 60 61 62 63 64 66 67 69 70 72 75 77 79 81 82 81 80 79 78 78 76 74 72 69
43 45 46 47 48 49 51 52 53 54 54 55 56 56 57 58 59 60 61 61 62 63 64 66 68 70 72 74 77 79 81 82 82 82 81 79 76 75 73 71 68 64 60
45 46 47 48 49 50 51 52 53 54 55 56 56 57 58 59 61 62 62 63 64 65 67 69 71 73 75 78 80 82 83 83 83 81 79 75 72 69 67 63 60 56 51
46 47 48 49 50 51 52 53 54 55 55 56 57 58 59 61 62 63 64 66 67 69 71 73 75 77 79 81 82 83 82 81 80 77 73 70 66 62 59 55 52 49 45
46 47 49 50 51 52 53 54 54 55 56 56 58 59 61 63 64 65 67 69 70 72 74 76 78 80 82 84 84 82 79 76 73 70 67 63 59 55 52 49 46 43 39
47 48 50 51 52 52 53 54 54 55 56 58 59 61 63 64 66 68 70 72 73 74 77 80 82 83 84 84 82 78 73 69 66 64 60 56 52 49 47 45 41 39 35
48 49 50 51 52 52 53 54 55 57 58 60 61 63 65 67 69 71 73 75 77 78 80 82 83 83 82 79 76 72 68 63 59 56 53 49 47 44 43 41 38 36 33
48 49 50 51 52 53 54 55 57 59 60 62 64 65 67 70 72 74 77 79 81 82 82 81 80 79 76 73 70 66 62 58 53 49 46 43 41 39 38 37 35 33 30
48 49 50 51 53 54 55 57 59 61 63 64 66 67 69 72 74 77 80 82 83 83 82 80 77 74 71 67 63 60 56 52 48 44 41 39 37 36 35 34 32 30 29
48 50 51 52 54 55 57 59 61 63 65 67 69 71 72 74 77 80 82 83 83 82 80 77 73 69 65 61 57 54 51 47 43 40 37 35 34 33 32 31 30 29 27
49 50 52 53 55 57 59 61 63 65 68 70 72 75 76 77 80 82 82 81 80 78 76 72 68 63 59 55 51 48 45 42 39 36 34 32 31 30 30 29 28 27 26
50 52 53 55 57 59 61 63 66 68 71 74 76 78 80 80 81 83 82 80 78 76 72 68 63 59 54 50 46 43 40 38 35 33 31 30 29 29 28 27 26 25 24
51 53 55 57 59 61 63 65 68 70 73 76 79 81 82 83 83 82 80 78 75 72 68 63 58 54 49 44 41 38 36 34 32 30 29 28 27 27 27 26 24 23 23
53 55 57 59 61 64 66 69 70 72 75 77 79 82 84 84 82 79 76 74 70 67 62 58 54 49 44 40 36 34 32 31 30 29 28 27 26 26 25 24 23 23 22
55 57 59 62 64 67 69 72 74 76 76 77 79 83 83 81 78 75 72 69 65 60 57 53 49 44 40 36 33 32 30 29 28 28 27 26 26 25 24 23 22 22 22
57 60 62 65 67 70 72 74 76 78 79 81 81 80 78 76 73 70 67 64 60 56 53 48 44 39 36 33 31 30 29 28 27 27 26 26 25 24 23 23 22 22 21
60 63 65 68 70 72 74 76 78 80 82 82 80 77 73 71 68 65 62 60 57 53 49 44 39 36 33 31 30 29 28 27 26 26 25 25 25 24 23 23 22 22 21
63 65 68 70 72 74 76 78 80 82 82 80 76 72 69 67 64 62 59 56 53 49 44 39 36 33 31 30 28 28 27 26 26 26 25 25 24 23 23 22 22 22 22
66 68 69 72 74 76 78 80 82 81 79 75 70 67 64 63 62 59 55 51 48 44 40 36 33 31 29 28 27 27 27 26 26 25 25 24 23 23 22 22 22 21 21
67 69 72 74 76 78 79 81 80 77 74 70 66 63 61 60 58 54 50 46 43 39 36 33 30 28 28 27 27 27 26 25 25 24 24 23 23 23 22 22 22 22 22
70 72 75 77 78 79 79 78 75 72 69 65 62 61 59 56 53 50 46 42 38 35 32 30 28 27 26 27 26 26 26 25 24 24 23 23 23 23 22 22 22 22 22
73 75 77 78 79 78 76 74 70 67 64 62 60 58 55 53 49 45 41 37 34 32 30 28 27 26 26 25 25 25 25 24 24 23 23 23 23 23 23 23 23 23 23
75 77 78 78 77 74 72 68 65 63 61 59 56 54 51 48 44 40 37 34 31 29 28 27 26 26 25 24 24 24 24 24 24 24 23 23 23 23 24 24 24 23 23

GEFSGL_500_meanwind_108.txt.gz
Wind_Speed
32 33 34 35 37 38 39 40 42 43 44 45 46 47 47 48 50 51 52 52 53 53 54 54 55 56 57 58 59 60 62 64 64 64 66 68 70 71 73 74 76 77 77
33 34 36 37 38 39 40 42 43 44 44 45 46 47 48 50 51 52 53 53 53 54 54 55 56 57 58 60 62 63 65 66 67 67 68 71 73 76 77 78 79 79 80
34 36 37 38 39 40 42 42 43 44 45 46 47 48 50 51 52 53 53 53 54 54 55 56 58 59 61 63 65 66 67 68 70 72 72 75 77 78 79 80 80 80 81
36 37 37 38 39 40 41 42 43 45 46 47 48 50 51 52 53 53 53 54 55 56 57 59 61 62 64 66 67 68 70 72 74 75 76 77 78 79 81 80 80 80 79
37 37 37 39 39 41 42 43 44 45 47 48 49 51 52 52 53 54 54 55 56 58 59 62 63 65 66 68 70 71 73 75 76 77 78 79 79 80 79 78 77 75 73
36 37 38 39 40 41 42 44 45 47 48 49 50 51 52 53 54 55 56 57 59 60 62 64 66 67 68 70 72 74 76 77 79 80 80 80 79 77 75 73 72 69 65
36 37 38 40 41 42 44 45 46 48 49 50 51 52 52 54 55 56 58 60 62 64 65 67 68 70 72 73 74 75 77 78 80 81 80 78 75 72 70 68 65 62 57
37 38 39 40 42 43 45 46 48 49 50 50 51 52 53 55 57 59 61 63 65 66 68 69 71 72 74 76 76 77 78 78 79 78 76 73 69 67 65 63 59 54 49
37 38 39 41 43 44 46 47 48 49 49 51 52 53 55 57 59 62 64 66 67 68 69 71 73 74 76 77 78 79 78 76 75 73 70 68 65 62 60 56 51 46 41
38 39 41 42 44 45 46 47 48 49 50 51 53 55 57 60 62 64 66 68 69 70 71 73 74 76 77 78 79 78 76 73 71 68 66 63 60 56 53 49 45 40 35
39 40 42 43 44 45 46 47 48 50 51 53 55 57 60 62 64 66 68 70 71 72 73 74 76 77 78 77 77 75 73 70 67 65 61 57 53 50 46 42 38 34 31
40 41 42 44 44 45 46 47 49 51 53 55 57 60 62 64 65 68 70 72 74 75 75 76 77 77 76 75 73 71 69 67 64 60 55 51 47 43 40 36 33 30 28
41 42 43 43 44 45 47 48 50 53 55 57 60 62 64 66 67 69 71 73 75 76 77 78 77 75 73 70 68 67 65 63 59 54 49 45 42 38 35 32 29 27 25
41 41 42 43 45 46 48 50 52 55 57 60 62 64 66 68 70 72 73 74 75 77 78 76 74 71 68 66 65 63 61 57 53 48 44 41 37 34 31 28 26 24 23
40 41 43 44 46 48 49 52 54 57 60 63 65 67 68 70 72 74 75 75 77 78 76 73 69 67 65 63 61 59 56 52 47 44 39 36 33 30 28 26 24 22 22
41 43 44 46 47 49 52 54 57 60 62 65 67 69 71 72 73 74 75 76 77 76 73 70 67 65 64 61 58 55 51 47 42 39 35 32 29 27 25 24 22 21 21
43 44 46 48 50 52 55 58 60 62 64 67 69 70 72 72 73 74 75 76 75 73 71 68 65 63 60 58 55 51 46 42 37 34 31 28 26 24 23 22 21 20 20
44 46 48 51 53 56 58 61 63 65 66 68 70 71 72 73 74 75 75 75 72 70 67 64 62 60 57 54 51 46 41 36 33 30 27 25 23 22 21 20 20 19 19
47 49 51 53 56 59 61 63 65 67 69 70 71 72 73 74 75 75 74 72 69 66 63 60 58 55 52 49 44 40 35 32 29 27 24 23 21 20 20 19 18 18 18
49 51 53 56 58 60 63 65 67 69 71 71 72 73 74 74 73 71 69 67 64 60 58 55 53 50 46 42 38 34 31 28 26 24 22 21 20 19 19 18 17 17 17
51 53 56 58 60 62 65 67 69 71 72 72 73 73 73 71 69 67 65 63 59 56 53 51 48 44 40 37 33 30 27 25 24 22 21 20 19 19 18 17 17 16 16
53 55 58 60 62 65 67 69 71 72 73 73 73 71 69 68 66 64 62 59 55 52 49 46 42 39 36 33 30 28 25 23 22 21 20 19 19 18 18 17 17 16 16
55 57 59 62 64 67 69 71 72 73 73 73 71 68 66 65 63 61 58 55 51 48 45 42 39 37 34 31 27 25 23 22 21 20 19 18 18 17 17 17 17 16 16
57 59 62 64 67 70 71 72 73 73 72 70 67 65 63 61 59 57 54 50 47 44 41 39 37 34 31 28 25 23 21 20 20 19 18 18 17 17 17 17 17 17 16
59 61 64 67 70 72 72 72 72 72 69 67 64 61 59 57 56 53 49 46 43 40 38 36 33 30 28 26 23 21 20 20 19 19 18 18 18 17 17 17 17 17 16
61 65 68 70 71 71 71 71 71 69 66 62 59 57 55 53 51 48 44 42 39 37 35 32 29 28 26 23 22 21 21 20 19 19 18 18 18 18 18 18 17 17 17

GEFSGL_500_meanwind_114.txt.gz
Wind_Speed
34 34 34 34 34 35 36 36 37 38 39 40 42 43 43 44 45 46 47 47 48 48 49 50 51 51 51 51 52 53 55 56 57 57 59 61 63 64 65 66 68 69 70
33 33 33 34 34 35 35 37 38 39 40 41 42 43 44 45 46 47 47 48 49 49 50 51 51 52 52 53 55 56 58 60 61 61 62 64 66 67 69 70 71 72 74
33 33 33 33 34 35 36 37 38 39 40 41 43 44 45 46 46 47 48 49 49 50 51 52 52 53 55 56 58 59 61 63 64 65 65 67 69 70 71 72 73 74 75
33 33 33 34 35 36 37 37 39 40 41 43 44 45 45 46 47 48 49 50 51 51 52 53 54 56 57 59 61 62 64 65 67 68 69 70 71 72 74 74 74 74 74
33 33 34 35 36 36 36 38 39 41 42 44 44 45 46 47 48 49 50 51 52 52 53 55 57 59 60 62 63 65 66 68 70 71 72 72 72 73 74 74 74 73 72
32 32 33 34 35 36 37 38 40 42 43 44 44 45 47 48 49 51 52 52 53 54 55 58 60 61 63 64 66 67 69 71 72 73 74 74 73 74 74 73 72 70 67
31 32 33 34 35 37 38 40 41 42 43 44 45 47 48 49 50 52 53 54 54 56 58 60 62 64 65 66 68 69 71 72 74 75 75 74 74 73 72 70 68 66 63
32 33 34 35 36 38 39 41 42 43 44 45 46 48 49 50 52 52 53 55 56 59 61 63 64 65 67 69 70 71 72 72 74 75 75 74 72 70 69 67 65 62 60
32 33 34 36 37 39 40 41 42 43 45 46 47 48 50 51 52 53 55 57 59 61 63 65 67 68 70 72 72 72 72 72 74 74 73 70 68 67 66 64 62 60 56
32 33 35 36 38 39 40 41 42 44 45 46 47 49 50 52 53 55 58 59 61 63 65 67 68 70 71 72 73 73 73 73 73 71 68 67 66 64 62 61 58 55 52
33 34 35 37 38 39 40 41 43 44 46 47 48 50 52 53 55 57 60 62 63 65 67 68 69 71 71 72 73 74 74 73 71 68 66 64 63 61 58 56 54 51 47
34 35 36 37 38 40 41 42 43 45 46 47 49 51 52 54 56 59 61 64 66 68 69 69 70 71 72 72 73 73 72 70 68 65 63 61 59 56 54 52 49 45 41
34 35 36 37 38 39 40 42 44 45 47 48 50 51 53 56 58 61 63 66 68 69 69 70 70 71 71 71 71 69 68 66 63 62 60 58 55 52 50 46 42 38 33
34 35 36 38 39 40 41 43 44 46 47 49 51 53 55 57 60 63 65 67 68 69 69 69 70 70 70 69 67 65 63 62 61 59 57 53 50 47 44 40 36 32 28
35 36 38 39 40 41 42 44 45 47 49 51 52 55 57 59 62 65 66 68 69 69 69 69 69 68 67 66 64 62 60 59 58 56 52 48 45 41 37 33 30 26 24
37 38 39 40 41 42 43 45 46 48 50 52 54 56 59 61 64 66 68 69 69 70 70 69 67 67 66 63 61 59 57 56 54 50 47 43 39 35 32 28 25 23 21
38 39 40 41 42 43 45 46 48 49 51 53 55 58 61 64 66 68 69 69 69 70 69 67 66 65 63 60 58 55 54 52 49 45 41 37 34 30 28 24 22 20 18
39 40 41 42 43 44 46 48 49 51 52 55 58 61 63 66 68 68 69 69 68 68 67 66 64 62 59 57 54 52 50 47 44 39 36 33 30 27 24 22 20 18 16
40 41 42 43 44 46 47 49 51 53 55 57 60 63 65 67 68 68 69 69 68 66 65 63 61 58 56 54 52 49 46 42 39 35 33 30 27 24 22 20 18 17 15
41 42 43 44 46 47 49 51 53 55 57 60 62 64 66 67 67 68 69 69 67 64 62 59 57 55 53 51 48 45 41 38 35 33 30 27 24 22 20 18 16 15 13
42 43 44 46 48 49 51 53 55 57 60 62 64 66 68 68 68 69 69 67 64 61 58 55 54 52 49 46 43 40 37 35 33 30 27 24 22 20 18 16 15 13 12
43 44 45 47 49 51 53 55 57 60 62 64 66 67 68 69 69 69 67 63 60 57 54 53 50 47 45 42 39 37 34 32 30 26 23 21 20 18 16 15 13 12 11
44 45 47 49 51 53 55 57 60 62 64 66 67 67 68 68 68 66 62 58 56 53 51 48 45 43 40 38 36 34 31 29 26 23 21 20 18 16 15 14 13 12 11
45 47 49 51 53 54 57 59 62 64 65 66 67 67 67 66 64 61 58 54 51 49 46 44 41 39 37 36 33 31 29 26 23 21 19 18 16 15 14 13 13 12 11
47 49 50 52 54 57 59 62 63 64 65 66 66 66 65 63 61 57 53 50 47 45 42 40 38 36 35 33 31 29 26 23 21 19 18 17 16 15 14 14 13 13 12
48 50 52 54 57 59 61 63 64 65 65 65 65 64 62 60 57 53 49 46 43 41 40 38 36 34 32 30 28 26 23 21 20 18 17 16 15 15 14 14 14 13 13

GEFSGL_500_meanwind_120.txt.gz
Wind_Speed
34 34 34 34 34 35 35 35 36 36 36 36 36 37 38 39 40 41 41 42 43 45 46 47 47 48 49 50 50 51 52 53 54 54 56 57 60 61 63 64 65 66 67
33 32 32 33 34 34 35 35 35 35 36 36 36 37 38 39 40 41 42 43 45 46 46 47 49 50 51 51 52 53 55 56 57 57 59 61 63 64 65 66 67 69 70
32 32 32 33 33 33 34 34 34 35 35 36 36 37 38 39 40 41 43 44 45 46 47 49 50 51 52 53 54 56 57 59 60 62 63 64 65 66 67 68 70 71 72
31 31 32 32 32 32 32 33 33 34 35 35 36 38 39 40 41 42 43 44 45 47 48 50 52 53 54 55 57 58 60 61 63 65 66 66 67 68 69 70 70 71 72
30 30 31 31 31 31 32 32 33 34 35 36 37 38 39 41 42 43 44 45 46 48 50 51 53 54 56 57 59 60 62 64 65 67 67 67 68 69 71 71 71 71 70
30 30 30 31 31 31 31 32 33 34 35 36 37 38 40 41 42 43 44 46 47 49 51 53 54 55 57 59 61 63 65 66 68 68 69 69 70 71 71 71 71 70 68
29 30 30 30 30 31 32 33 33 34 36 36 37 39 40 41 43 44 45 47 48 50 52 53 55 56 59 61 62 64 66 68 70 70 70 71 71 71 71 70 69 68 67
29 29 29 30 31 32 32 32 33 35 36 37 38 39 40 42 43 45 46 48 50 51 53 54 56 58 60 62 64 66 67 68 69 70 71 71 70 70 69 68 67 65 63
28 29 30 30 31 32 32 33 34 35 36 37 38 39 41 42 44 46 47 49 50 52 53 55 58 60 62 64 66 67 67 68 69 70 70 69 68 68 68 67 64 62 59
29 29 30 30 31 32 33 34 35 35 36 37 38 40 41 43 45 46 48 50 51 52 54 57 59 61 63 65 67 67 68 68 69 68 67 67 66 66 65 64 61 58 56
29 29 30 30 31 32 33 34 34 35 36 38 39 41 43 45 46 47 49 51 52 54 56 58 60 62 64 66 67 68 68 68 67 66 65 64 64 63 61 59 57 54 52
29 29 30 31 32 33 33 34 34 36 37 39 41 42 44 45 46 48 50 51 53 55 57 59 61 63 65 66 67 67 67 67 65 64 63 62 61 59 57 55 53 51 49
29 30 31 32 33 33 34 34 36 37 38 40 41 43 44 46 47 49 50 53 55 57 59 61 63 64 65 66 66 66 66 65 64 62 61 60 58 56 53 51 49 47 44
30 31 32 32 33 33 34 35 37 38 39 41 42 43 44 46 48 49 52 54 56 58 60 62 63 64 64 65 65 66 65 64 63 61 59 57 55 52 49 46 44 41 38
30 31 32 32 33 34 35 36 37 39 40 41 42 44 45 47 49 51 53 55 57 59 61 62 62 63 64 65 65 65 64 63 61 58 55 53 50 47 44 42 39 36 33
30 31 32 33 34 34 36 37 38 40 41 42 43 45 46 48 50 52 55 57 58 60 61 61 62 63 64 64 64 63 62 60 56 53 51 49 46 43 40 37 34 31 28
30 31 32 33 34 35 36 38 39 40 41 43 44 46 47 49 51 54 56 57 59 60 61 62 63 63 63 63 62 61 58 55 52 49 46 44 41 38 36 33 30 27 25
31 32 33 33 35 36 37 38 40 41 42 44 45 47 48 51 53 55 56 58 59 61 62 63 63 63 62 61 59 57 54 51 48 44 42 39 37 34 31 29 26 24 22
32 32 33 34 35 37 38 39 41 42 43 44 46 48 50 52 54 56 57 59 60 61 62 62 62 61 60 58 55 52 49 46 43 40 38 36 34 31 28 26 24 22 20
32 33 34 35 36 37 39 40 42 43 44 45 47 49 51 53 54 56 58 59 60 61 62 61 60 58 56 54 51 48 45 42 40 38 36 33 30 28 26 24 22 20 18
33 34 35 36 37 39 40 41 42 43 45 46 48 51 53 54 56 57 58 59 60 61 61 60 58 56 53 50 47 44 41 39 38 36 33 30 28 26 24 22 21 18 16
34 35 36 37 39 40 41 42 43 45 46 48 50 53 54 56 57 57 58 60 61 61 60 57 55 53 49 46 43 41 39 38 36 33 30 28 26 24 22 21 19 16 14
34 36 37 39 40 41 42 43 45 46 48 50 52 54 55 56 57 58 59 60 60 59 57 55 52 48 45 42 40 39 37 35 33 31 29 26 24 22 21 19 17 15 13
36 37 38 40 41 42 43 44 46 48 50 52 54 55 55 57 58 59 60 59 58 56 54 51 48 44 41 39 38 37 35 33 31 29 27 24 22 20 19 17 15 13 12
37 38 39 41 42 43 44 46 48 50 51 53 54 56 57 58 59 59 59 57 55 52 50 47 43 40 38 37 36 34 32 30 29 27 24 22 20 18 17 15 13 12 11
38 39 40 41 43 44 46 47 49 51 52 54 56 57 57 58 58 58 56 54 51 49 47 44 41 39 37 35 34 32 30 29 27 24 22 20 18 17 15 13 12 12 11

GEFSGL_500_meanwind_126.txt.gz
Wind_Speed
38 38 38 37 37 37 37 37 37 37 37 37 37 37 37 37 38 38 39 40 40 41 43 43 44 44 45 47 48 49 50 52 52 53 55 56 57 58 60 61 63 65 67
38 38 37 37 37 37 37 37 37 37 36 37 37 37 37 37 38 38 39 40 41 42 43 43 44 45 46 48 49 51 52 53 55 56 57 58 59 61 62 64 66 68 69
37 37 36 36 36 36 36 36 36 36 36 36 37 37 37 37 38 38 39 41 41 42 43 44 45 46 47 49 51 52 54 56 58 58 59 60 61 64 65 66 67 69 70
36 36 36 35 35 35 35 35 35 35 36 36 36 36 36 37 38 39 40 41 41 42 43 44 45 47 49 50 52 54 56 58 59 60 61 62 64 65 67 67 68 69 70
35 35 35 35 35 34 34 34 35 35 35 35 35 36 36 37 38 39 40 40 41 42 43 45 47 48 50 52 54 56 57 59 60 62 63 64 65 67 67 69 69 69 69
34 34 34 34 34 34 34 34 34 34 34 35 35 35 36 37 38 39 40 41 41 43 44 46 48 50 52 53 55 57 58 60 62 63 64 66 67 67 68 69 69 69 67
33 33 33 33 33 33 32 32 33 33 34 34 34 35 36 37 38 39 40 41 42 43 45 47 49 51 53 54 55 57 60 62 63 65 66 67 67 67 68 68 68 67 66
32 32 32 32 32 32 32 32 33 33 33 33 34 35 36 37 38 39 40 41 43 45 46 48 50 52 53 55 56 58 60 62 64 65 66 66 66 67 67 67 67 66 65
32 32 31 32 32 32 32 32 33 33 33 34 34 35 36 37 38 40 41 42 44 45 47 49 51 52 54 56 57 59 61 63 64 65 65 65 66 66 67 67 67 66 64
31 31 31 31 31 31 31 31 32 32 33 33 34 35 36 38 39 40 42 43 45 46 48 50 51 53 55 57 59 61 62 63 63 63 63 64 65 66 66 67 67 65 62
32 31 30 30 30 31 31 31 32 32 32 33 34 36 37 38 39 41 42 44 45 47 49 50 52 54 56 58 60 61 62 62 62 62 63 64 64 64 65 65 64 61 58
32 31 30 30 31 31 31 31 32 32 32 33 34 36 37 38 39 41 43 45 46 47 49 50 52 54 57 59 60 61 62 62 61 62 62 63 63 63 63 62 59 57 54
31 31 31 30 30 30 31 31 31 32 33 34 35 36 37 38 40 42 44 45 46 47 49 51 53 56 58 59 60 61 60 60 61 61 61 62 62 61 60 58 55 52 49
30 30 30 30 30 30 30 31 31 32 33 34 35 36 38 39 41 42 44 45 46 48 50 52 55 57 58 59 59 59 59 59 60 60 61 61 60 59 56 53 49 46 44
30 30 29 29 30 30 30 31 32 32 33 34 35 37 38 40 41 43 44 46 47 49 51 53 55 56 57 58 58 58 58 59 60 60 60 59 58 55 51 48 45 42 40
30 29 29 29 29 30 31 31 32 33 33 35 36 38 39 41 42 44 45 47 48 50 52 54 55 56 56 57 57 58 58 59 60 60 58 56 53 50 46 44 42 40 37
29 29 29 29 29 30 31 31 32 33 34 35 37 38 40 41 43 44 46 47 49 51 53 54 54 55 56 57 57 58 58 59 59 57 54 50 48 45 43 41 39 37 35
29 29 29 29 30 31 31 32 33 34 35 36 37 39 40 42 43 45 47 48 50 52 53 54 54 55 55 56 57 57 57 57 55 52 48 45 44 42 40 38 36 34 32
29 29 29 29 30 30 31 32 33 34 35 36 38 40 41 43 44 46 47 49 51 52 53 53 54 55 56 56 56 56 55 53 51 48 45 43 42 41 38 35 33 32 29
28 29 29 29 30 30 31 32 33 34 35 37 39 40 41 43 45 47 48 50 51 51 53 54 54 55 56 55 55 54 52 49 47 44 42 41 40 38 36 33 31 29 26
28 28 28 29 29 30 31 32 33 35 36 38 39 41 42 44 46 48 50 51 51 52 53 54 54 55 55 55 53 51 48 46 44 42 41 40 38 36 34 32 29 26 22
27 27 28 28 29 30 31 33 34 35 37 38 40 42 43 45 47 49 50 51 52 52 53 54 53 54 54 53 50 47 45 43 41 41 40 38 36 34 32 29 26 22 19
27 27 28 29 30 31 32 33 34 36 37 39 41 43 45 47 48 50 51 52 52 52 53 52 52 53 52 49 47 45 43 41 40 39 38 36 34 32 29 25 22 19 17
27 28 29 30 31 31 32 34 35 37 39 41 42 44 46 48 50 51 52 52 52 52 52 52 51 50 48 47 45 43 41 40 39 38 35 33 31 28 24 21 19 16 15
28 28 29 30 31 32 33 34 36 38 40 42 43 45 47 49 50 51 52 52 51 51 52 51 49 48 47 46 44 42 41 39 37 35 32 30 27 24 21 19 17 15 13
28 29 29 30 31 33 34 36 37 39 41 43 45 47 48 50 51 51 51 51 51 51 51 49 48 47 46 44 42 41 39 37 34 31 28 26 24 22 20 17 15 14 13

GEFSGL_500_meanwind_132.txt.gz
Wind_Speed
42 41 41 40 39 39 39 38 38 38 38 37 37 36 36 36 37 36 37 37 38 38 39 40 41 41 42 43 44 45 46 47 48 49 51 53 54 55 56 57 58 59 60
42 41 41 40 39 39 38 38 38 38 38 37 36 36 36 36 37 37 37 38 38 39 39 40 41 41 42 44 45 46 47 48 50 51 53 54 55 57 58 59 60 61 62
42 41 40 39 39 39 39 38 38 38 37 36 36 36 36 37 37 37 37 38 39 39 39 40 41 42 43 44 45 46 48 50 52 53 54 56 57 59 60 61 62 63 64
41 40 39 39 38 38 38 38 37 37 36 36 36 36 36 36 37 37 37 38 38 38 39 40 41 42 43 44 46 47 49 51 53 54 56 57 59 61 62 63 63 64 64
40 39 39 38 38 38 38 37 36 36 36 36 35 36 36 36 37 37 37 37 38 38 39 40 41 42 43 45 47 49 51 53 54 56 57 59 61 62 63 63 64 64 63
38 38 38 38 37 37 37 36 35 35 35 35 35 35 35 36 36 36 36 37 37 38 39 40 41 43 44 46 48 50 52 54 56 57 59 60 62 63 63 63 64 63 62
38 37 36 35 35 35 34 34 34 34 34 34 34 35 36 36 36 36 36 36 37 38 40 41 42 43 45 47 49 51 53 55 57 59 60 61 62 62 62 62 61 61 61
36 36 35 34 33 33 33 34 34 34 34 34 35 35 35 35 35 35 36 37 38 39 40 41 43 44 46 48 50 52 54 56 58 59 60 61 61 61 61 60 60 60 61
35 35 34 34 33 33 33 33 33 33 33 34 34 34 35 35 35 35 36 37 37 39 40 42 43 44 47 49 50 52 55 57 58 58 58 59 59 59 60 60 60 61 62
34 33 33 33 33 33 32 32 32 32 32 33 33 33 34 34 34 35 35 36 38 39 40 42 43 45 47 49 51 53 55 56 56 56 57 58 58 58 59 61 61 61 61
34 33 33 32 32 32 32 32 32 32 32 32 33 33 33 33 34 34 35 36 38 39 40 42 44 46 48 50 52 53 54 55 55 56 57 57 57 58 60 60 60 60 59
33 33 33 32 32 32 32 32 32 32 32 32 32 32 32 33 33 34 35 37 38 39 40 42 44 46 48 50 52 53 54 54 55 56 56 57 57 58 59 59 58 57 55
34 33 32 32 32 32 32 31 31 31 31 31 31 32 32 33 33 34 35 36 37 39 41 43 45 47 49 51 52 53 53 54 55 55 56 57 58 58 58 57 55 53 51
34 33 33 32 31 31 31 30 30 30 30 31 31 31 32 32 33 34 35 36 38 39 41 43 45 47 49 51 51 52 53 54 54 55 56 57 58 57 56 54 52 49 47
33 33 32 31 31 30 30 30 30 30 30 30 30 31 31 32 33 34 35 36 38 40 41 43 46 48 50 50 51 52 53 54 54 55 56 57 56 55 53 50 48 46 45
33 32 31 31 30 30 29 29 29 29 29 30 30 30 31 32 33 34 35 37 38 40 42 44 46 48 49 50 52 52 53 53 54 55 56 56 54 52 49 47 45 44 42
32 31 31 30 30 29 29 29 29 29 29 29 30 30 31 32 33 34 36 37 39 41 43 44 46 48 49 50 52 52 53 53 54 55 55 54 51 48 46 45 43 42 40
32 31 30 30 30 29 29 29 28 29 29 29 30 31 32 32 34 35 37 38 39 41 43 45 47 48 49 50 52 52 53 54 54 54 53 51 48 45 44 42 41 40 38
31 31 30 29 29 29 29 29 29 29 29 29 30 31 32 33 35 36 37 38 40 42 44 46 48 48 49 51 52 52 53 54 53 52 49 47 44 42 41 40 39 38 37
31 30 30 29 29 29 29 29 29 29 29 30 30 31 32 34 35 36 37 39 40 43 45 47 48 48 49 51 52 52 53 52 50 48 46 43 41 40 39 38 37 36 34
30 30 29 29 29 29 29 29 29 29 30 30 31 32 33 34 35 36 38 39 41 43 45 47 48 48 49 51 51 51 51 49 47 45 42 40 39 38 37 36 35 33 30
29 28 28 28 28 28 28 28 28 29 29 30 31 32 33 34 35 36 38 40 42 44 46 47 47 48 50 51 50 50 49 47 44 42 40 38 37 36 35 34 32 30 27
30 29 28 28 28 28 28 28 29 29 30 30 31 32 33 34 35 37 39 40 42 44 46 47 47 48 50 50 50 49 47 44 42 39 37 36 35 35 34 32 29 26 24
30 29 28 28 28 28 28 28 29 29 30 30 31 32 33 34 36 37 39 41 43 44 46 46 47 49 49 49 49 47 44 41 39 37 35 35 34 33 32 29 26 24 22
29 28 27 27 27 27 27 28 28 29 29 30 31 32 33 35 36 38 39 41 44 45 46 47 48 49 49 48 46 44 41 39 37 35 34 33 33 32 29 26 24 22 19
27 26 26 26 26 27 27 28 28 28 28 29 31 32 34 35 37 38 40 43 44 45 46 47 48 48 47 46 44 42 40 38 36 34 32 32 32 30 27 24 22 19 18

GEFSGL_500_meanwind_138.txt.gz
Wind_Speed
49 48 46 45 44 43 42 41 40 39 38 37 37 36 36 36 35 35 36 37 37 38 38 39 40 41 41 42 43 44 45 46 46 47 49 51 52 54 56 58 60 62 63
49 48 47 45 45 43 42 41 40 39 38 38 37 37 37 36 36 36 37 37 38 38 39 39 40 41 42 43 43 44 45 46 47 48 50 52 54 56 58 60 61 62 62
49 48 48 46 45 43 42 40 40 39 38 37 37 36 36 36 37 37 37 38 38 38 39 39 40 41 42 43 44 45 46 47 48 50 51 53 56 58 59 60 61 61 62
48 47 46 45 44 42 41 40 39 39 38 37 37 36 37 37 37 37 37 38 38 38 38 39 40 41 42 43 44 45 46 47 50 51 53 55 57 58 59 60 60 61 60
47 46 44 44 43 42 41 40 39 39 38 38 37 37 37 37 37 37 37 38 38 38 38 40 41 41 42 43 44 45 46 49 51 53 55 56 58 58 59 59 60 59 59
46 45 44 43 42 41 40 39 38 38 37 37 36 36 36 36 37 37 37 37 37 38 39 40 41 41 42 43 44 45 48 50 52 54 55 57 58 58 59 59 59 59 59
45 44 44 43 41 40 39 38 37 37 36 36 36 35 35 35 35 36 37 37 37 38 39 39 40 41 42 43 45 46 48 51 53 55 56 57 57 58 59 58 58 59 60
44 43 43 42 40 39 38 37 37 36 35 35 35 34 34 34 35 36 36 37 37 38 38 38 40 41 42 44 45 47 49 51 53 54 56 57 58 58 58 58 58 59 61
41 40 40 40 38 38 37 36 36 35 35 34 34 34 34 34 35 35 36 36 36 37 37 38 39 41 42 43 46 48 50 52 53 54 55 57 58 58 58 58 59 60 60
39 38 38 37 37 36 36 35 34 34 33 33 33 33 34 34 34 34 35 35 36 36 37 38 39 41 42 44 46 48 50 51 52 54 55 57 57 57 58 59 60 61 61
38 37 37 36 35 34 34 34 33 33 33 32 32 33 33 33 33 33 34 34 35 36 37 38 39 41 43 45 47 48 50 51 52 54 55 56 56 56 58 59 61 61 60
37 36 35 35 34 33 33 32 32 32 32 32 32 32 32 32 32 32 33 34 34 35 36 38 39 41 43 45 47 48 50 51 53 54 55 55 55 56 57 59 60 60 58
36 35 34 34 33 33 32 31 31 31 30 30 30 30 30 31 31 31 32 33 34 35 36 37 39 41 43 45 47 48 50 51 53 54 54 54 55 56 57 58 59 57 55
35 34 33 33 32 32 31 31 30 30 30 29 29 30 30 30 30 31 32 32 33 34 36 37 39 41 43 45 47 48 50 51 52 52 53 53 54 55 57 57 56 54 52
34 33 32 31 31 31 30 30 30 29 29 29 29 29 29 29 30 30 31 32 33 34 35 37 39 41 43 44 46 48 50 51 51 52 52 52 54 54 55 55 53 50 48
34 33 32 31 30 30 30 29 29 29 29 28 28 28 28 28 29 30 31 32 33 34 35 37 39 40 43 45 47 49 50 50 50 50 51 52 52 53 53 52 50 47 45
34 33 32 31 30 30 30 29 29 28 28 27 27 27 27 28 29 30 31 32 33 34 35 37 39 41 43 45 47 49 49 49 49 49 50 51 51 51 51 50 47 45 42
33 32 31 31 30 29 29 28 28 27 27 26 26 27 27 28 29 29 30 32 33 34 35 37 39 41 43 45 47 48 48 48 48 49 50 50 50 49 49 48 46 43 39
33 31 31 30 30 29 28 27 27 27 26 26 26 26 26 27 28 29 30 31 33 34 36 38 40 42 44 45 47 48 47 47 48 48 49 49 49 48 47 46 43 40 36
32 32 31 31 30 29 28 27 26 26 26 26 26 26 26 27 28 29 30 31 33 35 36 38 40 42 44 46 47 47 46 46 47 48 48 48 48 47 46 44 40 37 34
32 32 31 30 30 29 28 27 26 26 26 26 26 26 27 27 28 29 31 32 33 35 36 38 40 42 44 46 47 46 45 46 47 47 47 47 46 46 44 41 37 35 33
32 31 30 30 29 29 28 27 27 26 26 26 26 27 28 28 29 30 31 32 34 35 37 39 41 43 45 46 46 45 45 46 47 47 47 46 45 44 41 38 35 33 32
32 31 30 30 29 29 27 27 27 27 26 26 26 27 28 28 29 30 31 32 33 35 37 39 42 43 45 45 45 45 45 46 47 47 46 45 44 42 39 36 33 32 31
32 31 30 30 29 28 27 26 26 26 26 26 27 27 27 28 29 30 31 32 33 36 38 40 42 44 44 45 45 45 45 46 46 46 44 44 42 39 37 34 32 31 30
31 31 30 29 28 27 26 26 25 26 26 26 26 27 28 28 29 30 31 32 35 37 39 41 42 43 44 45 45 44 44 44 45 44 43 42 39 37 35 33 31 30 28
31 30 29 27 26 25 25 25 25 25 25 26 26 26 27 28 29 30 31 33 35 37 38 40 42 43 44 44 44 43 43 44 44 43 43 41 37 35 33 31 29 28 26

GEFSGL_500_meanwind_144.txt.gz
Wind_Speed
50 48 47 45 44 43 42 40 39 39 38 37 37 35 35 34 34 34 34 35 35 35 35 36 36 37 37 38 40 41 42 43 43 44 45 47 48 50 52 54 55 57 59
51 49 48 46 45 44 43 42 40 39 39 38 38 37 36 35 35 35 35 35 36 36 36 36 36 37 38 39 40 41 42 43 44 44 46 48 49 51 53 55 57 58 60
52 50 49 48 46 45 44 43 42 41 39 39 39 38 36 36 36 36 35 36 36 36 36 36 37 37 38 40 41 42 43 44 44 45 46 48 50 52 54 56 58 60 61
53 51 49 48 47 45 44 43 42 41 41 40 39 38 37 36 36 36 36 36 36 36 36 37 37 38 39 40 41 42 43 43 45 46 47 49 51 54 55 57 59 60 61
52 52 49 47 46 45 45 44 43 42 42 41 40 38 37 36 36 36 35 35 35 36 36 37 37 38 39 40 40 41 42 43 45 46 47 50 52 55 56 58 59 59 60
51 50 50 49 47 46 45 44 44 43 42 42 41 39 37 36 36 36 36 35 35 36 36 36 37 38 39 39 40 41 42 44 45 47 48 51 53 55 56 57 58 59 59
51 50 50 49 47 46 45 44 43 42 42 41 39 38 37 37 36 36 36 36 36 36 36 36 37 37 38 39 40 41 42 44 45 47 50 52 53 54 56 57 57 58 57
51 50 49 49 48 46 45 44 43 41 40 38 37 37 37 36 36 36 36 36 35 35 35 36 36 36 38 39 39 41 42 44 46 48 50 52 53 54 55 56 56 56 55
50 49 49 48 47 46 45 43 41 40 38 37 37 37 36 35 35 35 35 35 34 35 35 35 35 36 37 38 39 41 42 44 46 48 50 52 53 55 55 55 54 54 53
50 49 48 47 46 45 44 41 40 38 37 37 37 36 35 35 34 34 34 34 34 34 34 34 35 36 37 38 39 40 41 43 46 49 51 52 53 54 53 53 53 52 52
49 48 47 47 46 44 43 41 39 39 38 37 36 35 35 34 33 33 33 33 33 33 33 34 34 35 36 37 38 39 41 44 47 49 50 51 52 52 52 52 52 52 52
48 48 47 46 45 43 42 40 39 39 37 36 35 34 33 33 32 33 32 32 32 32 33 33 34 34 35 37 38 39 42 44 47 49 50 50 51 51 51 51 52 52 52
48 47 46 45 44 42 41 40 38 37 36 35 34 33 32 32 32 31 31 32 32 32 32 33 33 34 35 36 38 40 42 45 47 48 48 48 49 50 51 51 52 52 51
47 46 45 43 42 41 40 38 37 35 34 34 34 33 32 32 31 31 30 31 31 32 32 32 33 34 35 36 38 40 42 45 46 47 47 48 49 50 50 51 51 51 51
46 46 44 43 41 40 38 37 36 35 33 32 32 32 32 32 31 31 30 30 31 31 32 33 33 33 34 35 37 40 42 44 46 46 46 48 49 50 50 50 50 50 50
45 44 43 42 41 40 38 36 35 34 33 32 32 32 32 32 31 31 30 30 31 32 31 31 31 32 33 35 38 40 42 44 45 45 46 47 49 50 50 50 50 49 49
43 42 42 41 40 38 36 34 33 33 33 32 32 31 30 30 30 30 29 29 30 29 29 29 30 32 34 36 38 40 42 44 45 45 46 48 49 50 50 49 49 49 50
43 42 41 40 39 37 35 34 33 32 32 31 31 30 28 28 29 29 29 28 28 28 28 29 30 32 34 35 38 40 42 43 44 45 46 48 49 49 49 48 48 49 49
41 40 39 38 37 36 34 33 33 32 32 31 30 29 27 28 28 28 28 28 27 28 28 29 30 32 34 36 38 40 41 43 44 45 46 48 49 49 48 47 47 48 46
39 38 38 36 35 35 34 33 31 31 31 30 29 28 27 27 27 27 27 27 27 27 28 29 30 32 34 36 38 40 41 43 44 45 46 47 48 48 46 46 46 45 44
39 37 36 35 34 33 33 32 30 30 29 28 27 27 27 27 27 26 26 26 27 27 28 29 31 32 34 36 38 39 41 43 44 45 46 47 47 46 45 45 44 43 41
37 37 36 34 33 33 32 31 29 28 27 27 26 26 25 25 24 24 25 26 26 27 28 29 30 32 33 36 38 40 41 43 43 45 46 47 47 45 44 43 42 41 39
37 37 36 35 34 33 31 29 28 27 27 27 26 25 25 24 24 24 24 25 26 27 28 29 30 32 34 36 38 40 42 43 43 45 47 46 45 43 41 40 40 39 38
36 36 35 34 32 31 30 29 28 27 27 26 25 24 24 23 23 23 23 24 25 26 28 29 30 32 34 37 38 40 41 43 44 45 46 45 43 40 39 39 38 37 36
35 34 32 32 31 30 29 29 28 27 26 25 24 23 22 22 22 23 23 24 26 27 28 29 31 33 35 37 39 40 42 43 44 45 44 43 40 38 38 37 36 36 34
33 33 32 31 30 29 28 28 27 26 25 24 23 22 22 22 22 23 23 24 26 27 28 29 31 34 36 37 38 40 41 43 43 43 43 41 39 37 37 36 35 35 32

GEFSGL_500_meanwind_150.txt.gz
Wind_Speed
57 55 54 52 51 49 47 45 43 43 41 40 39 38 37 36 35 35 34 34 33 33 34 34 34 35 36 37 38 38 39 40 40 41 43 45 46 48 49 50 52 54 56
57 56 54 53 52 51 49 47 44 43 42 40 40 39 38 36 36 35 35 35 34 34 34 34 34 36 37 38 38 39 39 40 41 42 44 45 47 48 49 51 53 55 56
58 57 55 54 53 52 50 49 46 44 42 41 40 39 38 37 36 36 36 35 34 34 34 34 35 37 37 38 38 38 40 41 42 43 44 46 47 48 49 51 54 56 56
59 58 56 54 53 51 50 49 47 45 44 42 41 40 38 37 37 37 36 35 35 35 35 35 36 37 37 37 38 39 40 41 42 43 44 46 47 49 49 52 54 55 56
59 58 57 55 54 52 51 50 49 47 45 43 41 41 40 39 38 37 36 36 36 36 35 35 36 37 37 38 38 39 40 41 42 43 45 46 47 49 50 53 53 54 55
58 58 58 56 55 53 52 51 49 48 46 45 43 42 41 40 38 37 37 37 36 36 35 36 37 37 37 38 39 40 41 42 43 44 45 46 48 49 51 52 53 54 55
58 58 58 57 56 54 52 51 50 49 47 45 45 44 42 41 39 38 37 36 37 36 36 36 36 36 37 38 39 40 41 41 42 43 45 46 48 49 51 52 53 55 56
57 57 57 57 56 54 52 51 51 49 48 46 45 44 43 41 40 39 39 38 37 35 35 36 36 36 37 38 39 40 41 41 42 43 45 46 48 50 51 52 53 55 56
55 56 57 56 55 54 52 50 49 48 47 46 45 44 43 42 40 40 39 37 36 35 35 36 36 37 38 38 39 40 40 41 42 42 44 46 48 49 50 52 53 55 55
53 54 55 55 55 54 53 51 49 48 47 46 45 44 43 42 41 39 38 37 37 36 36 36 36 36 37 38 39 40 40 40 41 43 44 46 47 49 50 52 53 54 54
52 52 54 55 54 54 53 51 50 48 47 46 44 43 42 41 40 38 37 36 36 36 36 36 36 37 37 38 38 38 39 39 41 42 44 46 47 48 50 51 53 53 54
52 52 53 54 54 53 51 50 49 48 47 46 44 43 41 39 39 38 36 35 35 35 35 35 34 35 36 37 37 37 38 39 40 42 44 45 47 48 49 51 52 53 54
52 51 51 53 53 51 50 49 48 47 46 45 44 42 40 38 36 35 35 35 34 34 34 34 34 34 35 35 35 36 37 38 40 42 44 45 47 48 50 51 52 53 55
50 51 50 51 52 51 50 48 47 46 44 44 43 41 39 36 35 34 33 33 34 34 33 33 33 33 34 34 35 36 37 38 40 42 44 46 47 48 49 50 51 53 55
49 49 49 49 50 50 49 47 46 45 44 42 40 39 38 36 35 33 33 33 32 32 32 32 32 32 33 34 34 35 36 38 40 42 44 45 46 48 49 50 52 53 53
47 48 48 48 49 49 48 47 45 43 42 41 40 38 36 36 35 33 32 32 31 31 31 31 32 32 32 33 33 35 36 38 40 42 43 45 46 47 49 50 52 52 52
48 48 47 47 47 46 46 45 44 42 41 40 38 37 36 35 34 32 32 31 31 30 31 31 31 31 32 33 33 35 36 38 40 42 44 44 45 47 49 50 51 51 51
48 48 47 46 45 45 44 43 42 40 39 38 37 36 35 33 32 31 31 30 30 30 30 31 31 31 31 32 33 35 37 39 40 41 42 44 45 47 49 50 51 50 50
45 46 45 45 45 44 43 42 40 39 38 37 36 35 33 32 32 31 30 29 29 29 30 30 30 30 31 32 34 35 37 38 39 40 42 44 45 48 49 50 50 49 49
44 43 43 43 43 43 41 40 39 39 38 36 35 33 32 31 30 29 29 28 28 29 29 28 29 30 30 32 33 34 35 37 39 40 42 43 45 47 48 49 48 48 47
41 41 41 41 41 41 40 39 38 38 36 35 33 32 30 29 28 28 28 28 28 28 28 28 28 29 29 30 31 33 34 37 39 40 41 43 45 47 47 47 48 47 45
39 40 40 40 40 40 38 37 36 36 34 33 32 31 29 28 27 27 27 27 27 26 27 27 28 28 28 29 30 32 35 37 38 40 41 43 45 46 46 46 46 44 43
38 39 39 39 39 38 37 35 35 34 33 32 30 29 28 28 27 27 27 26 26 25 25 26 27 27 28 29 31 33 35 36 38 39 41 43 44 45 45 44 43 42 40
38 38 38 38 37 36 34 34 34 33 31 30 29 28 27 27 26 26 26 24 23 24 24 24 25 26 27 29 31 33 34 36 37 39 41 42 43 43 42 42 41 40 38
36 37 36 36 35 34 33 33 32 31 30 28 27 27 26 26 25 24 23 22 22 22 22 23 25 26 27 28 30 32 34 36 37 39 40 40 41 40 40 39 39 38 36
35 35 35 34 33 32 32 31 30 29 28 28 27 26 26 25 23 22 21 20 21 21 22 23 24 25 26 28 30 32 33 35 36 38 38 38 39 39 38 38 37 35 34

GEFSGL_500_meanwind_156.txt.gz
Wind_Speed
60 59 58 56 55 53 53 52 50 50 48 48 47 47 45 44 43 41 40 39 38 37 37 36 36 36 35 35 35 35 36 37 37 38 39 40 41 42 44 45 47 48 50
61 60 58 56 56 55 54 52 51 50 48 47 47 46 45 44 43 41 40 40 39 38 37 36 36 36 35 35 35 35 36 37 37 38 39 40 41 43 45 46 47 49 50
62 61 59 58 56 56 55 53 52 51 50 47 46 46 45 44 43 41 40 40 39 38 37 37 36 36 35 35 35 36 37 37 38 39 40 40 42 43 45 46 47 49 51
62 61 60 59 57 55 55 55 53 52 51 50 48 46 45 44 43 42 41 40 40 39 38 37 37 36 36 36 36 37 37 38 38 39 40 41 42 43 45 46 48 50 52
61 61 61 59 58 57 55 55 54 52 52 51 49 47 45 45 43 42 42 41 40 39 37 37 36 36 36 36 37 37 37 37 38 39 39 40 42 44 45 47 49 51 52
61 60 60 60 60 58 56 56 56 53 52 51 50 47 46 45 43 42 41 41 40 38 37 37 37 37 36 36 37 36 36 37 38 38 39 41 42 44 46 47 49 51 52
60 60 60 60 59 58 56 56 56 54 52 51 50 48 45 44 43 42 42 41 40 38 37 37 36 36 36 36 36 36 36 37 38 39 40 41 43 45 46 48 50 51 52
58 59 58 58 57 57 58 57 56 54 53 51 49 48 46 44 43 41 41 41 39 38 37 36 36 35 35 35 35 35 36 37 38 38 40 42 44 45 46 48 50 51 51
57 57 57 57 55 55 56 56 56 54 53 52 49 47 46 45 44 42 42 41 40 38 37 36 35 35 34 35 35 35 36 36 37 39 41 43 44 45 46 47 49 50 51
55 55 56 57 55 55 55 54 54 52 51 51 50 48 47 45 44 43 42 41 40 39 38 37 35 35 35 34 34 35 35 36 38 40 42 42 43 44 46 47 49 49 50
54 55 55 55 55 54 54 54 53 51 50 50 49 49 46 45 43 42 42 41 40 39 38 36 36 35 35 34 34 35 36 37 39 40 41 41 42 44 46 47 48 49 51
54 54 54 54 55 54 53 53 53 51 50 50 47 47 47 45 43 42 41 40 39 38 37 36 35 35 35 35 35 35 36 37 38 39 40 41 42 44 45 46 47 49 51
52 54 55 54 53 54 53 52 53 51 48 48 46 46 45 44 43 42 41 39 39 38 37 37 36 35 35 35 35 35 35 36 37 38 39 40 42 43 44 45 47 49 51
49 51 53 53 52 52 53 52 52 51 49 47 46 44 44 43 42 41 40 39 38 37 37 36 35 35 35 35 35 35 35 35 36 37 38 40 42 43 44 45 47 49 51
47 48 49 50 50 51 51 51 50 49 48 47 47 45 44 43 41 39 38 37 36 36 35 34 34 34 34 34 34 33 34 35 36 37 38 40 41 42 43 44 46 49 51
45 47 47 48 49 49 49 49 49 48 47 46 45 44 42 41 39 38 36 36 35 34 33 33 33 33 33 33 33 32 33 33 34 36 38 39 40 41 42 44 47 49 51
43 44 46 46 47 47 47 47 47 47 47 45 43 42 40 38 37 37 35 34 33 32 32 32 32 32 32 31 31 31 31 32 33 35 37 38 39 40 41 44 47 49 50
42 43 44 44 45 45 46 46 46 46 45 44 42 40 39 37 36 35 34 32 30 30 29 29 29 28 28 28 28 29 30 31 33 34 36 37 38 39 41 44 46 47 48
41 42 43 43 44 43 43 44 44 44 44 43 42 40 39 38 36 35 32 31 30 29 28 26 25 25 26 26 27 28 29 30 32 34 35 36 37 39 41 44 45 46 46
40 41 42 43 43 43 43 44 43 42 41 40 40 40 38 36 34 33 31 30 30 29 27 26 25 25 25 26 27 27 29 30 31 33 34 35 36 38 41 43 44 44 44
41 41 43 43 43 43 44 44 43 41 40 39 39 38 36 34 32 31 30 30 29 27 26 25 25 25 25 25 26 27 28 29 31 32 33 34 36 38 40 42 43 43 42
42 43 43 43 43 43 43 43 42 41 39 38 37 36 35 34 33 32 30 29 28 26 25 24 24 24 24 25 25 26 26 28 30 31 32 33 35 37 39 41 42 41 39
42 42 43 43 44 43 43 43 43 41 39 37 36 34 34 33 32 31 30 28 26 25 25 24 23 23 23 23 23 24 26 28 30 31 32 33 35 37 38 39 39 38 35
40 41 41 42 42 42 41 41 40 38 37 37 35 33 32 31 30 29 28 26 25 24 23 22 22 22 22 22 23 24 26 28 29 30 30 31 33 35 37 37 36 34 32
40 40 40 39 39 40 40 39 38 37 36 35 34 32 30 30 29 28 26 25 24 23 22 21 21 21 21 22 23 24 26 27 28 28 29 30 32 34 35 35 33 30 28
39 38 38 38 38 38 38 37 35 35 34 34 33 31 30 29 28 27 25 23 23 22 21 21 20 20 21 22 23 24 25 26 26 27 27 30 31 33 34 33 30 27 25

GEFSGL_500_meanwind_162.txt.gz
Wind_Speed
54 56 55 55 57 57 56 54 53 50 48 48 49 49 48 47 47 46 44 43 42 41 39 38 37 37 37 36 36 37 37 37 37 37 38 39 40 41 41 43 44 45 47
52 55 55 55 57 56 53 53 52 51 50 49 48 47 46 45 45 44 43 42 41 40 39 38 38 38 37 36 37 37 36 36 37 38 38 38 39 40 42 43 44 45 46
51 52 53 55 57 56 54 54 52 50 49 50 49 47 45 44 44 44 43 42 41 39 39 38 38 37 37 36 36 36 36 36 37 37 38 38 40 41 42 43 44 45 47
50 51 52 53 54 56 54 53 53 51 49 49 49 48 46 44 44 43 43 42 41 40 39 38 38 37 37 36 36 36 36 36 37 37 37 38 40 41 42 42 44 46 47
50 51 51 52 53 55 54 52 53 51 48 47 48 49 47 45 44 43 42 42 41 39 39 38 38 37 37 36 35 35 36 36 36 37 38 38 39 40 41 42 44 46 48
50 51 52 52 53 53 53 52 51 51 50 46 47 47 47 46 44 43 42 41 39 39 39 38 37 36 35 34 34 35 36 36 36 37 37 38 39 39 41 43 45 46 48
48 50 53 53 51 52 53 52 51 51 50 47 45 46 46 46 45 43 42 40 38 38 38 37 36 34 34 34 35 36 36 35 36 37 37 38 39 40 42 44 46 47 49
47 51 53 52 50 51 53 52 50 51 50 47 45 44 44 44 44 43 42 40 38 38 38 37 36 35 34 34 34 35 35 35 35 36 36 38 39 40 42 44 45 47 50
46 49 52 54 52 51 51 51 50 50 50 48 45 43 42 43 43 42 42 40 37 36 36 36 35 35 34 34 34 33 33 34 34 34 36 38 39 41 42 44 46 48 49
45 48 50 53 53 52 51 50 49 49 49 48 45 42 41 42 42 41 40 40 38 37 36 35 34 34 34 33 33 32 32 33 33 34 36 37 39 40 42 43 45 47 48
44 46 49 52 53 52 52 51 50 48 47 47 45 42 41 41 41 41 39 39 37 36 35 34 33 33 33 32 31 32 32 32 32 34 36 37 39 40 41 43 45 46 47
42 44 47 50 50 51 52 52 51 49 48 47 45 44 41 41 40 39 38 37 36 36 35 34 33 33 33 32 32 32 32 32 33 34 35 37 38 40 41 43 44 45 46
41 42 44 46 47 50 51 51 50 49 48 47 45 44 42 41 39 37 36 36 35 35 35 34 33 32 33 33 32 32 31 32 32 33 35 37 38 40 41 42 43 44 46
38 40 42 43 44 46 48 50 49 48 47 46 45 44 43 41 39 37 36 35 35 35 35 34 33 33 32 32 31 30 30 31 32 33 34 36 38 39 40 41 41 43 46
39 39 41 42 42 42 44 46 47 47 46 45 43 42 41 39 37 36 34 33 33 34 34 33 32 31 30 30 29 30 30 31 31 32 34 36 36 37 38 38 40 43 46
39 39 40 41 42 41 41 43 45 44 43 44 43 42 40 38 36 35 34 35 34 33 32 31 30 28 27 27 28 28 29 30 30 32 34 35 36 36 36 38 40 43 46
38 39 39 40 41 41 41 41 42 43 42 42 41 41 41 40 37 34 34 34 33 33 32 31 29 28 26 27 28 28 29 29 30 32 33 34 34 34 35 37 40 42 44
38 38 39 39 40 41 41 41 42 41 40 40 40 40 39 39 37 35 34 33 33 33 32 31 30 29 27 27 27 28 28 29 30 31 32 32 33 33 34 37 39 41 42
38 38 38 39 39 40 41 41 41 41 40 39 39 40 39 39 38 36 34 33 32 31 30 30 29 28 27 27 27 27 28 28 29 30 30 30 31 32 33 36 38 39 40
38 38 38 39 40 40 40 41 41 40 40 39 38 38 38 37 36 34 33 32 31 30 28 28 28 28 27 27 27 26 27 27 28 28 28 28 29 30 33 35 36 38 39
38 38 39 40 40 40 40 41 41 41 41 40 38 37 36 35 35 34 33 32 31 29 28 27 26 26 26 26 25 25 25 25 26 26 26 27 28 29 31 33 35 36 36
37 38 39 40 40 40 40 40 41 41 41 40 39 37 36 35 34 33 32 30 29 28 27 26 26 25 24 24 23 23 23 23 23 24 25 26 27 28 30 32 33 33 33
37 38 39 40 40 39 39 40 41 41 40 39 37 36 35 34 33 32 31 28 26 25 25 25 25 24 22 22 21 21 21 21 21 22 23 24 25 26 28 30 30 31 31
36 38 39 39 40 40 39 40 40 40 39 38 36 35 34 33 32 31 30 28 25 24 24 23 23 22 21 20 19 19 20 19 19 20 21 22 23 25 27 28 28 28 29
35 37 38 39 41 41 39 39 39 39 38 37 35 34 33 32 31 30 29 27 25 23 22 21 20 20 19 19 19 18 18 18 18 20 20 21 23 25 26 26 26 27 27
35 37 38 39 40 41 40 39 38 38 38 37 35 33 32 30 30 29 28 26 25 23 22 20 18 18 18 18 18 18 17 17 18 19 20 21 22 24 23 24 25 25 25

GEFSGL_500_meanwind_168.txt.gz
Wind_Speed
39 40 41 43 46 47 47 47 51 54 54 53 53 50 49 49 48 48 48 48 47 44 44 43 41 40 39 37 37 36 35 34 34 35 36 36 36 36 37 38 39 40 41
38 39 40 42 44 47 48 47 50 52 53 53 48 47 48 48 47 46 45 46 46 44 42 41 41 40 39 38 37 35 35 34 35 35 35 35 35 36 37 38 39 40 41
36 38 40 41 42 46 48 47 47 49 53 53 48 46 46 48 47 46 44 45 44 43 41 39 39 39 38 38 37 35 35 34 35 35 34 34 35 35 36 38 39 40 42
35 37 39 40 42 45 46 46 46 50 52 52 49 46 46 48 48 46 45 44 44 43 42 39 38 37 37 36 36 35 35 34 35 34 34 34 34 35 36 37 38 40 42
35 35 37 39 42 44 45 45 46 48 51 51 49 46 44 45 45 45 45 44 43 42 41 39 37 36 36 35 34 34 33 34 34 33 33 33 34 35 36 37 38 40 42
34 35 36 38 39 42 45 46 46 46 48 49 49 46 43 43 44 44 43 41 41 41 40 38 37 36 36 34 33 32 32 33 32 31 32 33 33 34 36 37 38 40 41
33 35 35 36 38 39 42 45 45 46 47 49 49 46 44 43 43 43 42 41 40 39 39 39 37 35 35 33 32 32 32 32 31 31 32 32 33 34 35 36 38 40 41
32 33 36 37 38 38 40 44 45 45 45 47 47 46 44 44 42 42 41 41 40 39 39 39 37 35 34 33 31 31 30 30 31 31 32 32 33 34 35 36 38 39 41
31 34 36 37 37 38 40 42 44 46 45 47 47 46 45 43 42 41 41 40 39 38 37 38 37 36 33 32 31 31 30 30 30 30 31 31 32 33 34 36 37 39 42
32 34 37 38 37 38 39 42 43 45 46 47 47 46 46 43 42 41 40 39 38 38 37 36 34 34 33 31 30 30 29 29 29 29 30 31 32 32 33 35 37 39 41
32 34 36 37 38 37 38 41 43 43 45 47 46 44 44 43 43 41 40 38 37 36 36 35 33 32 31 30 29 29 28 29 29 30 31 31 32 32 32 34 37 39 40
32 33 35 37 38 38 38 39 41 43 45 46 46 44 44 42 41 40 39 38 37 36 35 34 33 31 30 29 29 29 29 29 30 30 30 31 31 31 33 35 36 38 39
33 34 35 36 37 38 38 38 41 42 43 45 44 43 41 41 40 40 38 38 38 36 34 34 33 31 29 30 29 29 29 29 29 29 29 30 30 31 33 34 36 37 38
33 34 34 35 36 37 38 38 40 42 43 43 42 40 40 39 38 38 39 38 37 36 35 34 33 30 29 29 28 27 27 28 28 28 28 29 30 31 32 33 34 36 38
33 34 34 35 36 37 39 40 41 42 43 42 40 39 39 38 36 35 35 36 36 36 36 34 33 32 30 28 28 28 28 28 28 28 28 28 29 30 31 32 34 35 36
33 34 35 35 36 38 39 41 41 42 43 43 41 40 39 38 37 36 36 36 35 34 34 33 32 32 31 29 28 27 27 27 27 27 28 28 28 29 30 31 32 33 33
33 35 36 36 36 37 39 41 41 42 43 44 42 40 39 38 38 37 36 35 34 34 32 32 31 30 29 28 26 26 26 26 26 26 26 27 27 27 28 29 30 31 32
33 35 36 37 37 37 38 41 42 42 42 44 43 40 39 38 38 38 37 35 33 32 30 30 30 29 28 27 26 26 26 25 25 26 25 25 25 26 26 27 28 29 30
33 35 36 38 38 38 38 40 41 41 41 41 42 41 40 39 39 38 37 36 34 31 29 28 28 28 27 27 27 26 25 25 25 25 24 24 24 24 25 26 27 28 29
33 35 36 37 37 37 38 39 40 41 40 40 40 40 39 39 39 38 36 35 34 31 29 27 27 27 27 26 25 25 24 24 23 23 22 22 22 22 24 25 26 27 28
32 35 36 38 38 38 39 40 41 40 40 40 39 39 39 39 38 37 35 35 34 31 28 27 26 26 26 24 24 24 24 23 22 21 20 20 20 21 22 23 25 25 27
33 35 38 38 39 39 40 41 42 40 40 40 39 40 39 38 38 36 35 34 33 30 28 26 25 24 24 24 23 23 22 21 20 19 18 18 19 20 22 22 23 24 25
33 36 37 37 38 39 40 42 42 41 40 40 40 40 39 38 38 37 35 33 32 31 28 26 24 23 23 23 23 22 21 20 19 18 18 18 19 20 20 21 22 23 24
34 36 37 37 38 38 39 41 42 41 40 39 40 40 39 38 38 37 35 33 32 30 28 25 24 23 22 21 20 20 19 18 17 17 16 17 18 19 19 19 20 21 22
33 36 36 36 37 38 40 41 43 42 41 40 40 40 39 38 37 35 35 33 32 30 28 26 24 22 21 20 19 18 17 16 16 15 16 16 17 17 17 18 18 19 20
32 34 35 36 37 37 39 41 42 42 41 41 40 40 39 37 36 35 33 32 31 29 27 26 24 21 20 18 17 16 15 14 14 14 15 15 16 15 15 15 17 18 19

GEFSGL_500_meanwind_174.txt.gz
Wind_Speed
40 39 38 39 39 41 43 43 43 44 45 46 47 48 50 51 51 53 55 55 54 54 54 51 50 50 48 46 45 43 41 39 37 37 37 37 37 38 38 37 38 39 40
36 36 36 36 37 40 42 42 42 43 44 43 43 45 47 48 49 50 51 52 52 51 51 51 50 49 48 46 44 43 41 39 38 37 37 37 37 38 37 37 37 38 39
34 33 33 34 35 38 39 40 41 41 42 42 41 42 44 45 46 49 49 49 48 47 48 48 49 48 47 47 46 43 40 39 38 37 36 36 37 37 36 36 37 38 39
34 33 32 33 34 36 37 39 40 41 41 41 41 41 43 43 45 46 48 48 46 46 46 46 46 45 45 46 44 43 41 38 37 36 35 35 35 35 35 35 36 37 38
34 34 32 33 34 35 36 37 38 39 40 40 40 41 42 44 45 45 46 45 45 44 44 43 43 42 43 43 42 40 39 37 36 36 35 35 34 33 34 34 35 36 37
33 33 32 32 33 34 35 36 37 38 38 39 40 41 42 44 44 44 45 44 43 43 43 43 42 40 40 41 40 38 38 37 36 36 35 34 32 32 32 33 34 36 37
32 31 31 31 31 32 34 34 34 35 36 37 39 39 40 42 43 43 42 41 41 41 42 43 41 40 38 37 37 36 37 37 37 36 34 33 32 32 32 33 34 35 36
30 30 30 30 31 32 33 33 34 34 35 36 37 38 40 41 42 44 44 42 42 41 40 39 39 39 37 35 35 35 35 36 35 34 33 32 32 33 33 33 33 35 36
30 29 29 30 31 31 32 32 33 34 34 34 34 37 39 40 42 42 44 43 41 40 39 38 37 37 35 34 35 34 34 33 33 32 31 31 32 33 33 32 33 34 36
29 29 29 30 30 30 31 31 32 34 34 33 33 35 38 40 41 41 41 41 41 40 39 37 35 34 33 34 34 33 33 31 30 29 30 31 32 33 32 32 33 35 36
25 26 27 29 29 29 31 31 31 33 33 33 33 34 37 39 40 40 40 39 39 38 37 36 34 33 33 33 34 33 32 31 30 29 29 29 30 31 31 32 33 35 36
23 23 25 27 28 28 29 29 30 32 33 33 34 34 35 37 39 39 38 38 37 36 35 34 34 34 33 33 32 31 31 30 29 29 29 29 30 30 30 32 34 35 35
24 24 25 25 27 28 29 30 29 30 31 33 34 35 34 36 37 37 38 37 35 35 34 34 35 35 34 33 32 30 29 29 28 27 28 28 28 29 30 31 32 33 33
25 25 26 26 27 29 29 30 30 30 31 32 33 35 36 36 35 35 36 35 35 34 34 35 35 35 33 32 31 29 29 27 26 26 27 27 27 28 29 30 30 30 29
25 25 26 26 27 28 30 29 30 30 32 32 32 34 36 36 35 34 34 34 33 33 33 33 34 33 32 31 29 28 27 27 27 26 26 26 27 27 27 28 27 27 27
27 27 27 27 28 28 30 30 30 30 32 32 33 34 36 35 35 35 34 34 33 32 32 32 32 31 31 30 28 26 26 25 25 25 25 26 26 25 25 25 25 25 26
27 28 28 28 29 29 30 30 30 30 31 33 33 35 35 35 35 34 33 33 33 33 32 31 30 30 29 29 27 25 24 24 24 23 23 23 24 24 24 24 24 24 25
27 27 28 28 29 30 30 31 32 32 32 34 35 35 35 35 35 33 33 34 35 33 31 30 29 28 27 26 25 24 23 22 22 21 21 22 22 22 22 22 23 24 25
27 28 28 29 30 31 32 33 34 33 33 34 35 36 35 34 34 33 33 33 33 32 30 29 28 27 26 25 23 23 22 21 21 20 21 21 20 19 20 20 21 22 23
27 27 28 29 31 33 34 34 35 34 33 34 35 35 35 34 35 34 33 32 32 31 30 28 27 27 25 24 22 22 21 20 20 20 19 19 18 18 18 19 20 21 22
27 27 27 29 32 33 34 35 36 35 35 35 35 35 35 35 35 34 32 31 31 30 28 27 26 25 25 23 21 20 20 19 18 18 17 17 17 17 18 18 19 20 21
26 27 27 29 32 34 35 36 36 36 36 36 36 35 35 35 34 33 32 32 31 29 27 27 25 24 23 22 21 20 19 18 17 16 16 16 16 17 17 18 18 19 20
25 26 26 27 31 34 36 37 37 38 38 37 36 36 35 35 34 33 32 32 31 29 27 26 25 24 23 21 20 19 18 17 16 16 15 15 15 16 17 17 17 18 19
24 26 26 27 30 33 35 37 38 38 38 37 37 36 35 34 34 34 34 33 31 28 27 26 25 24 22 20 20 19 18 17 17 16 15 15 15 16 16 16 16 17 18
23 25 26 27 30 33 35 37 38 39 38 37 37 37 36 35 34 34 34 33 31 29 26 25 24 23 21 19 19 18 18 17 16 15 14 14 14 14 14 15 16 16 17
22 24 24 26 29 33 35 36 37 37 38 38 38 38 37 36 35 34 34 33 31 29 26 25 24 23 21 20 18 17 17 16 14 14 14 13 13 12 13 14 15 15 15

GEFSGL_500_meanwind_180.txt.gz
Wind_Speed
46 45 45 44 45 44 43 43 43 43 44 44 43 44 46 47 50 50 50 50 50 51 52 52 53 53 52 52 52 52 51 51 49 47 46 45 43 41 41 40 39 38 37
45 44 43 43 42 42 42 42 42 41 41 42 41 41 43 45 47 48 48 49 48 48 49 49 50 50 49 49 49 49 49 49 48 47 46 45 43 41 41 39 37 37 37
44 43 42 42 41 41 41 40 40 39 40 40 40 40 41 42 45 46 46 47 46 46 46 48 49 49 48 47 47 47 47 46 45 45 45 44 43 41 39 38 37 37 37
43 42 42 41 40 40 38 38 37 37 39 39 39 38 38 39 42 43 44 44 43 43 45 47 47 46 46 45 45 44 44 43 43 44 44 43 42 39 37 36 37 37 37
42 41 40 39 39 38 37 37 36 37 37 37 38 37 37 38 40 40 41 41 42 42 43 45 44 43 44 43 43 42 41 40 42 42 42 41 39 37 36 36 36 35 36
40 39 38 37 36 36 35 35 34 34 35 35 36 36 35 37 38 38 39 40 40 41 42 44 43 42 43 42 41 40 39 38 40 40 40 40 37 35 35 34 33 33 34
37 37 36 35 35 34 34 33 32 32 32 32 34 36 35 35 36 36 37 38 39 39 41 42 42 43 42 41 40 39 39 38 37 37 38 37 36 36 35 33 32 32 32
35 35 33 32 33 32 31 31 30 31 31 31 33 34 34 33 35 36 37 37 37 37 39 40 40 41 41 39 38 38 38 36 36 36 36 35 36 35 34 33 32 33 33
33 33 31 30 30 30 30 29 28 29 30 31 32 33 34 34 34 35 36 35 36 37 37 38 38 39 38 37 37 36 36 36 36 35 35 34 33 32 32 32 32 33 32
32 31 30 29 28 28 27 27 26 26 27 30 31 32 34 34 33 33 34 34 34 35 36 37 37 37 37 36 35 34 34 34 35 35 33 32 30 30 30 30 31 31 32
30 29 28 26 25 26 26 26 25 25 25 26 28 30 32 34 34 32 32 33 34 35 36 35 36 36 36 35 34 33 32 33 33 33 31 30 30 29 30 30 30 30 30
28 27 26 25 25 26 26 25 25 25 25 26 28 29 30 31 33 32 32 32 34 34 35 35 35 36 36 35 34 32 31 31 31 30 29 29 29 29 29 29 29 29 30
26 25 24 24 25 25 26 26 26 26 26 26 27 29 30 30 32 32 32 31 32 33 33 33 33 34 34 33 32 31 30 29 29 28 27 27 27 28 27 27 27 28 28
25 25 24 23 24 25 25 25 26 25 25 25 27 28 29 29 31 32 31 31 31 32 33 33 32 31 31 29 30 30 29 28 27 27 27 26 26 25 25 26 26 26 26
25 24 23 22 22 23 24 24 25 25 25 26 27 28 29 30 31 31 30 30 31 32 32 32 31 30 29 27 27 28 27 27 26 26 26 26 25 24 23 23 24 24 24
25 24 23 22 22 23 24 24 26 26 25 25 27 28 30 31 32 31 31 30 30 30 30 29 29 28 27 27 26 26 25 25 26 26 25 24 23 22 21 22 22 21 21
25 24 23 23 23 23 23 24 26 27 26 25 27 28 30 31 31 31 31 30 30 30 29 28 27 27 26 25 25 26 25 25 25 25 24 22 21 20 20 20 19 19 20
25 25 24 24 24 24 23 24 26 26 26 26 28 29 30 30 30 30 30 30 31 30 28 26 26 26 25 25 25 25 24 24 24 23 22 20 19 18 18 18 18 18 19
24 24 24 24 24 24 24 25 27 28 27 27 27 28 29 30 30 30 30 30 30 30 27 26 26 25 25 24 24 23 23 23 23 21 19 18 17 17 16 16 17 17 18
23 23 23 23 24 24 24 25 27 28 28 28 29 29 29 30 30 30 30 30 30 28 27 26 26 26 25 24 23 22 21 21 21 20 18 16 15 15 15 15 16 16 18
21 22 22 23 23 23 23 24 26 28 30 30 30 30 30 30 30 31 31 30 30 28 27 26 25 26 26 24 22 21 20 20 18 17 16 15 15 14 14 15 15 16 17
20 20 21 21 22 22 23 24 26 27 30 31 31 30 30 30 31 31 32 31 30 29 27 26 26 26 26 24 22 20 19 18 17 16 15 14 13 14 14 14 15 15 16
18 19 20 21 21 22 23 24 26 28 29 31 31 31 31 31 31 31 31 30 29 28 27 27 26 25 24 23 21 20 18 16 15 15 15 14 13 13 13 13 14 15 15
17 18 20 21 22 23 24 24 27 28 30 31 31 31 31 31 31 31 31 30 28 27 26 26 25 24 23 22 21 19 18 16 15 15 14 13 12 12 12 12 13 13 14
16 18 20 22 23 24 25 26 28 29 31 31 31 31 32 32 31 31 31 30 29 27 26 25 23 23 23 22 20 19 18 16 15 14 13 12 11 11 11 11 11 12 12
16 17 19 22 23 24 25 26 28 30 31 31 32 32 32 33 33 32 31 30 29 27 26 24 23 23 23 22 20 19 18 16 14 14 12 11 10 10 10 9 9 10 10

GEFSGL_500_meanwind_186.txt.gz
Wind_Speed
56 56 55 56 55 54 53 53 53 52 51 49 47 46 45 45 46 47 47 48 47 46 47 46 46 48 49 49 49 49 48 48 49 47 48 46 44 43 44 44 44 43 43
55 55 55 55 53 52 52 52 51 49 48 47 45 44 43 43 43 43 44 45 46 45 44 43 43 45 47 47 47 47 46 45 45 45 45 44 43 42 43 42 42 42 41
54 53 53 52 51 51 51 50 49 47 45 44 43 42 41 41 41 41 41 42 43 43 42 41 41 43 44 45 45 46 45 42 41 43 43 42 41 41 41 41 41 39 39
53 53 52 51 49 49 49 47 46 45 43 42 41 40 40 40 39 39 38 38 39 40 40 39 39 40 41 42 43 44 43 41 39 40 40 40 39 39 39 38 39 37 36
53 52 50 50 49 48 46 44 43 42 40 39 39 38 38 38 38 37 36 36 37 37 37 38 37 38 39 40 40 41 41 40 39 39 38 37 37 36 36 36 35 35 35
50 49 48 47 45 45 43 41 41 39 38 37 37 36 36 36 36 35 34 34 36 35 34 36 36 37 37 37 38 38 38 36 35 36 36 36 35 34 34 35 33 33 33
48 46 45 44 44 43 42 40 38 36 35 35 37 36 34 33 33 32 32 32 33 33 33 33 34 35 34 35 36 36 35 33 33 33 33 33 33 33 33 33 32 31 31
46 46 45 43 41 40 38 36 35 33 33 34 34 33 32 31 31 30 29 30 30 30 31 32 33 33 34 34 34 34 33 31 31 31 31 30 30 30 31 30 29 30 30
45 44 42 41 39 37 35 33 32 31 31 32 31 30 29 28 28 29 28 28 28 28 29 31 32 32 31 31 32 31 30 29 29 29 28 27 27 28 29 27 27 28 28
43 41 40 39 37 35 32 30 29 29 29 29 28 26 25 25 25 27 28 26 26 26 27 29 30 30 30 29 29 28 27 27 27 26 26 26 27 27 27 25 26 26 26
41 39 38 37 35 32 30 29 28 27 26 25 24 23 22 22 23 24 26 26 25 25 26 27 28 29 29 29 28 27 26 26 25 25 25 24 25 24 24 24 24 25 25
39 38 36 35 33 30 28 27 26 25 23 22 22 21 20 21 21 22 24 24 22 23 23 25 27 28 27 26 26 26 26 26 25 24 23 22 23 22 21 21 22 23 24
37 35 33 32 30 28 26 24 23 22 21 20 19 20 19 20 21 21 22 22 21 21 22 23 24 25 25 25 25 25 25 25 24 23 22 21 21 21 20 20 20 21 23
35 33 31 29 27 25 24 23 21 19 18 18 18 19 20 20 20 21 22 22 22 22 22 22 22 22 23 24 24 24 23 22 22 21 20 20 20 20 20 20 19 19 20
32 29 28 26 25 23 23 21 20 18 18 18 19 19 20 20 19 20 20 21 21 21 22 21 21 21 23 23 23 23 22 21 20 19 18 19 20 20 20 19 18 18 18
29 28 26 25 23 22 21 20 19 18 18 18 20 20 20 20 19 20 20 21 22 22 22 21 20 20 22 23 23 23 22 21 19 18 17 19 20 20 19 18 17 17 17
27 26 25 23 22 21 20 20 18 17 18 19 20 20 20 20 21 20 21 21 22 22 22 21 20 21 22 22 22 22 20 19 17 17 18 18 18 17 17 17 17 16 17
25 23 22 21 20 20 20 19 19 18 18 19 21 21 21 21 22 22 21 21 22 22 22 21 21 21 22 22 21 20 19 17 17 17 17 17 16 16 15 15 15 14 15
22 20 19 19 19 19 20 19 19 18 18 19 20 21 21 21 21 22 21 21 22 22 21 21 21 21 22 21 19 18 17 16 16 16 16 15 15 15 14 13 12 12 13
20 19 18 17 18 19 20 20 19 18 18 18 20 21 21 21 21 22 22 22 22 23 23 22 22 21 21 20 18 17 17 16 15 15 14 14 14 13 13 12 12 12 12
19 18 17 17 17 18 19 18 18 18 18 18 20 21 22 22 22 22 23 23 23 24 23 23 22 22 21 20 19 18 17 15 14 14 13 13 13 12 12 12 11 11 11
18 17 17 16 16 17 18 17 16 17 18 18 20 22 22 22 22 23 23 23 24 24 24 24 23 22 21 20 18 17 15 14 13 12 12 12 12 11 11 10 10 11 11
16 16 16 15 15 16 17 17 17 17 17 18 21 22 23 23 22 23 24 23 23 24 24 24 23 22 20 19 17 16 15 14 13 12 12 12 11 11 10 10 10 10 10
15 15 14 14 14 15 16 17 17 17 17 19 20 21 22 23 24 24 24 24 24 24 24 23 22 21 20 19 17 16 16 14 14 13 12 11 10 9 9 8 9 9 9
13 13 13 13 14 15 16 17 18 18 19 20 21 22 22 23 24 25 24 25 24 24 23 23 22 21 20 19 18 17 15 14 14 12 11 10 9 9 8 7 7 7 7
13 12 12 13 14 15 17 18 18 19 20 20 21 22 23 24 24 25 24 25 25 24 23 22 21 20 20 19 17 17 15 14 12 11 10 9 9 8 7 6 5 4 4

GEFSGL_500_meanwind_192.txt.gz
Wind_Speed
55 57 57 58 58 58 59 60 60 60 59 59 58 57 57 57 56 54 53 53 52 51 50 49 47 47 47 47 47 46 46 46 46 45 45 45 46 44 43 43 44 45 44
56 57 57 57 58 58 59 59 59 58 57 57 56 55 54 53 52 51 50 49 49 47 46 45 44 44 43 43 42 43 42 43 42 41 42 41 42 41 40 40 41 42 42
56 56 57 57 57 57 57 57 56 55 55 54 53 52 51 50 50 48 47 46 45 44 43 43 42 42 41 40 39 38 39 39 39 39 39 39 38 38 39 38 39 39 40
56 56 56 57 57 56 55 54 54 53 52 51 49 49 48 47 46 45 44 42 41 41 40 40 40 40 38 37 35 35 35 35 36 37 37 35 36 36 37 36 35 37 38
56 56 55 55 55 55 54 53 52 51 49 48 47 45 44 44 43 42 41 40 39 38 37 37 37 36 35 34 34 33 33 33 34 35 34 33 33 34 34 34 35 35 35
55 55 54 54 53 52 52 51 50 48 46 45 43 43 42 41 40 40 40 39 37 36 35 34 34 34 34 33 33 33 32 32 32 32 32 32 31 31 33 33 33 34 33
53 53 53 53 51 50 49 47 46 45 43 41 40 39 38 37 37 37 37 35 34 32 32 30 30 31 31 31 31 31 31 30 30 31 31 31 31 30 30 30 32 31 29
52 52 52 50 48 47 46 44 42 41 39 38 37 36 35 34 34 33 33 32 30 30 30 28 27 28 29 29 30 29 29 29 30 29 28 28 29 28 27 28 29 28 27
51 50 49 47 45 43 42 41 40 38 36 35 33 33 32 31 30 29 29 28 27 26 26 25 24 25 27 27 28 27 27 27 27 27 28 27 27 28 28 28 27 26 26
49 47 46 44 43 41 39 38 36 35 33 32 31 30 28 26 26 25 25 25 25 24 24 24 23 24 25 26 26 25 25 24 24 25 26 27 27 27 26 26 26 25 24
46 44 43 42 42 40 38 36 34 32 29 28 27 26 24 23 21 21 21 21 22 22 22 23 23 23 24 24 24 24 24 24 24 25 25 26 27 26 25 24 23 22 22
43 42 41 41 39 38 36 33 31 29 26 25 23 22 20 20 19 19 18 19 20 21 22 23 23 23 24 23 24 24 24 24 23 24 24 24 24 24 23 22 22 21 21
42 41 40 38 37 35 33 30 28 26 24 22 21 19 19 19 19 18 18 18 18 18 20 21 22 22 23 23 23 23 23 22 22 22 22 22 22 23 22 21 21 20 20
40 39 38 36 34 32 30 27 25 22 21 19 18 18 18 17 17 17 17 17 16 17 18 19 20 20 21 22 22 22 22 21 22 21 20 20 21 22 21 20 20 19 19
38 37 35 33 31 29 27 25 22 19 18 17 17 17 16 16 15 16 16 17 16 16 17 18 19 20 20 20 20 21 21 21 21 21 20 19 19 20 19 18 17 17 17
35 33 31 29 27 25 23 21 19 17 16 16 15 16 16 15 15 15 15 16 16 16 16 18 19 20 19 19 20 20 20 20 20 19 18 17 17 17 17 16 15 15 15
31 29 28 26 24 22 20 18 17 17 17 16 15 15 15 15 15 15 15 16 17 17 16 17 19 19 18 18 19 19 19 19 18 17 17 17 16 16 15 14 13 13 13
28 26 24 22 21 20 18 16 16 16 17 16 15 15 15 15 15 14 14 16 17 17 17 17 18 18 17 18 18 18 19 18 17 16 16 16 15 14 13 12 12 12 12
25 23 22 21 20 18 16 15 15 16 16 16 16 16 16 15 16 16 16 16 17 17 18 18 18 18 17 18 18 18 18 17 17 16 16 15 14 13 12 12 11 11 11
22 21 20 19 17 15 14 14 15 16 16 16 16 16 16 16 16 16 17 17 17 18 19 18 19 18 18 17 17 17 17 17 16 15 15 14 13 12 11 11 11 10 10
19 18 18 18 16 16 15 15 16 16 16 16 16 16 16 16 16 16 16 17 18 19 20 19 19 18 18 17 16 16 16 16 15 15 15 14 12 11 10 10 10 10 9
18 18 18 17 16 16 15 15 15 15 15 15 16 16 17 16 16 16 17 18 19 20 20 19 18 18 17 17 16 16 15 15 15 15 14 13 11 11 10 9 9 8 8
17 17 17 16 15 14 14 14 14 15 15 15 15 16 16 17 17 17 17 19 20 21 20 19 19 18 18 17 16 16 16 16 14 13 13 12 11 10 9 9 9 8 7
16 16 15 15 14 13 13 13 13 14 14 15 16 16 17 17 18 18 19 19 20 20 20 20 19 19 18 18 17 17 16 16 14 13 13 12 11 10 9 9 8 7 5
14 14 14 13 13 13 13 13 13 13 14 15 16 16 17 17 18 18 19 20 20 20 19 19 19 19 19 19 18 17 16 15 14 13 13 12 10 10 10 9 7 6 5
12 12 12 12 12 13 13 14 14 14 14 15 16 17 17 17 18 19 20 20 20 20 20 20 21 21 21 19 18 17 17 16 14 14 12 12 11 11 10 9 7 6 6

GEFSGL_500_meanwind_198.txt.gz
Wind_Speed
51 52 53 55 56 58 59 60 61 61 62 63 63 64 65 65 64 63 63 62 61 59 58 56 55 54 52 50 49 48 46 45 42 39 40 42 43 43 43 43 43 44 43
52 53 55 56 58 59 59 60 60 61 62 63 64 64 64 63 62 62 61 59 57 56 55 53 51 50 49 47 46 45 44 42 40 37 37 37 37 37 37 37 38 38 38
55 55 56 57 58 58 59 59 60 61 62 63 63 62 61 60 60 59 57 55 53 52 51 50 48 47 46 45 44 42 41 39 37 35 33 34 34 34 34 33 33 34 33
56 56 57 57 57 58 58 59 60 61 61 61 60 58 58 57 56 55 53 51 50 49 47 46 45 44 43 41 40 38 37 35 33 31 30 29 29 31 31 31 29 30 30
56 56 56 57 57 57 57 58 59 59 58 57 55 55 55 54 53 52 50 48 46 45 43 42 41 40 39 36 34 33 33 32 30 28 27 27 27 28 28 28 27 27 28
55 55 56 56 56 56 56 56 56 55 54 53 52 52 51 50 50 49 47 44 42 39 38 37 37 36 33 31 30 30 29 29 28 26 25 25 25 27 27 26 25 25 26
55 55 56 56 55 55 55 54 53 52 51 49 49 48 47 46 46 44 42 40 37 35 34 34 33 31 30 28 28 27 26 26 26 25 24 23 23 25 25 24 24 24 24
55 55 55 55 54 53 52 51 50 49 48 47 46 44 44 43 41 39 37 34 32 31 31 31 30 28 27 27 25 24 24 24 24 23 22 21 22 23 23 23 23 23 24
53 54 53 53 52 50 49 48 47 46 45 43 42 41 39 37 36 35 33 31 30 29 29 28 27 25 25 25 23 23 22 22 23 23 22 21 21 22 22 23 22 21 22
51 51 51 50 49 48 47 46 45 44 43 42 40 38 36 33 32 32 31 28 27 26 26 25 24 24 24 23 22 22 22 21 22 23 21 20 20 20 20 20 21 20 20
49 49 49 48 47 47 46 45 43 42 41 39 37 35 33 32 30 29 27 25 24 23 23 23 22 22 22 22 22 21 20 20 20 21 20 19 19 19 19 19 20 20 19
48 48 47 46 46 45 44 42 41 40 38 36 33 32 30 29 27 25 24 23 23 22 21 20 20 20 20 20 20 20 19 19 18 19 19 18 19 18 18 18 17 17 18
46 45 44 43 43 43 42 40 39 37 35 33 31 29 27 25 24 23 23 21 20 20 19 18 18 19 18 18 19 20 19 18 18 18 18 17 17 17 16 16 15 15 16
45 44 42 41 41 40 39 37 35 34 32 30 28 26 24 23 22 22 20 19 18 18 17 17 17 17 18 18 17 17 17 17 17 17 16 16 15 15 15 14 13 13 14
43 41 40 39 39 38 36 34 32 30 29 27 24 23 21 21 20 20 19 18 17 16 16 16 16 17 16 15 15 15 15 14 14 14 15 15 14 14 14 14 13 13 14
40 39 38 37 36 35 33 31 30 28 27 25 23 22 20 18 18 18 17 16 15 14 14 14 14 15 15 14 14 14 14 13 13 13 14 13 13 13 13 13 12 13 13
36 35 35 34 34 33 31 28 26 26 25 23 21 20 18 17 16 16 15 14 14 14 13 12 12 13 13 13 13 13 13 12 13 13 13 13 13 12 11 11 11 12 12
33 33 32 31 30 28 26 25 23 22 21 20 18 17 16 16 15 15 14 13 13 13 12 11 11 12 12 12 12 13 13 13 13 13 13 13 12 11 10 10 10 11 11
31 30 28 26 25 24 22 21 20 19 18 17 16 15 14 13 13 13 13 13 12 12 11 11 10 12 12 13 13 13 13 13 12 12 12 12 11 10 10 9 9 9 9
27 25 24 22 21 20 19 18 17 16 15 14 14 13 13 11 11 12 12 12 12 12 11 11 11 12 12 13 13 13 13 12 12 12 11 11 10 10 9 9 9 8 8
24 23 22 21 20 18 17 16 15 14 13 13 13 13 12 11 12 12 13 12 12 12 12 12 12 13 13 13 13 13 13 12 12 11 11 10 10 10 9 9 7 7 7
21 21 20 20 18 16 15 14 13 13 13 13 13 13 12 12 13 13 13 13 12 12 13 13 13 14 14 13 13 13 12 12 12 11 10 10 9 9 9 8 7 6 7
19 19 18 18 17 15 14 13 12 12 12 13 13 13 13 12 12 12 13 13 14 13 13 13 14 14 14 14 13 13 13 13 12 11 10 9 9 9 8 7 7 7 7
17 16 16 16 14 13 13 12 12 12 11 12 13 13 13 12 11 11 11 12 13 13 13 14 14 14 15 15 14 14 14 13 12 11 10 9 9 8 8 8 7 7 8
15 14 14 14 12 12 12 12 11 11 11 11 12 12 12 12 12 12 12 12 13 13 13 14 15 16 16 16 15 15 15 13 13 12 11 10 9 9 9 8 8 9 9
14 13 13 12 12 11 11 11 11 11 11 11 11 11 12 12 13 12 12 12 13 14 15 16 17 17 17 17 16 15 14 14 13 12 11 10 10 10 10 10 10 10 11

GEFSGL_500_meanwind_204.txt.gz
Wind_Speed
46 47 48 49 51 52 53 55 56 57 58 59 59 60 60 61 61 61 61 61 61 61 60 59 57 56 56 56 56 55 54 52 50 46 45 44 44 42 42 42 40 39 38
48 49 50 52 53 53 54 55 57 58 59 59 59 59 60 60 60 60 59 59 59 58 57 56 55 55 55 54 54 52 50 48 46 43 41 40 39 38 38 37 35 34 34
50 51 52 53 54 55 55 56 57 58 58 58 59 59 58 58 58 58 58 57 56 55 55 54 53 53 52 51 49 47 46 45 43 41 38 36 34 34 33 32 31 30 30
52 53 54 54 55 55 56 56 57 57 57 57 57 57 57 56 56 56 55 54 54 53 52 52 51 50 48 46 44 43 41 40 39 38 34 33 32 31 29 28 27 27 26
52 53 54 54 55 56 56 56 57 56 56 55 55 55 54 53 53 53 52 52 51 50 49 48 46 45 43 42 41 39 38 36 35 33 32 30 29 27 26 26 25 23 23
52 52 53 54 55 55 56 56 55 55 55 54 54 52 51 51 51 50 49 49 48 47 46 44 42 41 39 38 37 36 35 33 32 31 29 28 25 23 23 23 23 22 19
52 52 53 54 54 55 55 54 54 53 53 52 51 50 49 49 48 47 46 45 44 43 42 40 38 37 35 34 33 33 31 30 28 27 25 24 22 20 21 20 20 19 17
52 52 53 53 54 53 53 52 52 51 51 50 48 48 46 45 45 44 44 42 40 39 38 36 35 33 32 31 30 29 28 27 25 24 22 21 19 19 19 18 18 17 16
51 52 52 52 52 51 51 50 49 48 48 46 45 44 43 42 42 41 41 39 38 36 35 33 31 30 29 29 27 26 26 25 23 22 21 20 18 17 17 17 17 15 15
50 51 50 49 48 48 47 47 46 45 44 42 41 41 41 40 40 39 38 37 35 33 31 29 29 28 27 26 25 23 23 22 21 20 19 18 16 15 15 16 15 14 14
49 48 47 46 46 45 44 44 43 42 41 40 39 39 39 38 37 36 36 35 33 31 28 26 25 25 24 23 22 22 21 19 19 19 18 18 16 16 16 15 14 13 12
47 46 45 44 44 43 42 41 40 39 39 39 38 38 37 36 35 34 33 33 31 27 25 24 23 22 21 21 20 20 19 18 17 17 17 17 16 16 15 14 13 11 10
44 44 43 42 41 40 39 38 38 38 38 37 37 36 35 34 33 32 30 29 26 24 23 21 21 20 20 20 19 18 18 17 17 16 15 15 15 14 14 13 12 10 9
43 42 40 39 38 38 37 37 36 36 36 35 35 34 33 31 30 29 28 26 24 23 22 20 19 19 18 17 17 17 16 16 15 14 13 12 13 13 12 12 11 11 10
40 39 38 38 38 37 37 36 36 35 34 34 33 31 30 28 27 26 24 23 22 20 19 18 17 17 17 16 15 14 14 14 14 13 12 12 13 12 12 11 11 11 10
38 37 38 37 37 36 35 35 34 33 31 30 29 28 27 26 25 22 21 20 19 18 17 16 16 15 14 13 13 13 13 13 14 13 12 12 13 12 11 11 10 10 10
37 37 36 36 35 35 34 33 32 30 28 28 27 26 25 23 22 20 19 18 17 16 15 14 14 13 12 12 12 13 13 13 13 13 13 12 12 11 11 10 10 9 9
36 35 34 33 33 32 31 30 30 29 27 27 26 26 23 21 19 18 17 16 15 14 14 13 13 12 11 11 11 12 13 12 12 12 13 12 12 11 10 9 9 8 9
33 32 31 30 29 29 28 28 27 27 26 25 23 22 20 19 17 16 16 15 14 13 13 12 12 12 11 11 10 11 12 12 11 12 12 12 11 10 10 9 9 9 9
30 29 28 28 26 26 26 25 24 23 22 21 19 17 16 15 15 14 13 12 12 13 12 12 12 11 11 10 10 10 11 11 11 12 11 11 10 9 9 9 9 9 8
28 27 26 25 24 23 23 22 20 18 17 16 15 14 13 12 12 11 11 11 11 12 11 11 11 11 10 10 10 10 11 11 11 12 11 11 10 9 8 8 9 8 7
25 24 23 22 20 19 18 17 16 15 14 14 13 12 11 10 10 10 10 11 12 12 12 11 11 11 10 10 10 10 11 11 11 11 11 11 10 8 8 8 8 8 7
20 19 19 18 18 17 17 16 15 14 13 12 12 11 11 10 10 10 10 11 11 11 12 11 10 10 10 10 11 11 11 12 12 11 11 10 9 8 8 8 8 8 8
18 18 17 17 17 16 15 15 14 13 13 12 11 11 11 11 10 10 10 11 12 12 11 11 11 11 11 11 12 12 12 13 12 12 11 11 9 8 8 8 8 8 9
18 18 17 17 16 15 14 13 13 13 12 12 12 11 11 11 11 11 11 12 13 12 11 11 12 12 11 12 13 13 13 13 13 12 11 11 9 9 8 9 10 10 12
17 16 16 15 14 13 13 13 12 12 12 12 12 11 11 12 12 12 13 13 13 13 13 12 12 12 12 12 13 13 13 13 13 12 11 11 11 10 11 11 12 13 14

GEFSGL_500_meanwind_210.txt.gz
Wind_Speed
44 45 45 46 47 48 49 50 51 52 53 54 55 56 57 57 57 58 58 57 56 56 56 56 57 57 56 54 53 52 52 52 51 49 48 48 48 47 45 45 44 43 40
46 46 47 47 48 49 50 51 52 53 54 55 56 56 57 57 56 56 56 55 55 54 55 55 55 55 54 52 52 51 51 51 50 48 46 45 44 43 41 41 40 39 37
47 47 48 49 50 51 52 53 54 55 56 56 56 55 56 55 55 54 54 54 54 54 54 54 53 52 52 51 51 50 48 47 46 46 43 42 41 39 38 37 36 35 34
48 48 49 50 51 52 53 54 55 55 55 55 54 54 54 53 53 53 53 53 53 53 52 52 51 51 51 50 49 47 46 44 43 42 40 38 37 36 36 34 31 30 29
48 49 49 50 51 52 54 54 54 54 54 54 53 53 52 52 53 53 52 52 51 51 51 50 50 50 49 48 46 44 42 40 39 38 36 35 34 34 33 30 27 26 25
48 49 50 51 52 53 53 53 53 53 53 54 53 52 52 52 52 51 51 50 50 50 49 49 48 48 46 44 42 40 38 37 36 34 33 32 32 31 29 27 26 23 21
49 49 50 51 51 52 52 52 53 53 53 53 52 51 50 51 50 50 50 49 49 48 48 48 47 45 43 40 38 36 35 35 34 33 31 31 29 28 26 23 22 19 17
49 49 50 50 51 51 51 52 52 52 52 51 49 49 50 50 49 49 49 48 48 47 46 45 43 40 38 37 35 33 32 32 32 31 30 28 25 23 22 21 19 17 15
48 49 49 50 50 50 51 51 50 50 50 49 48 49 49 48 48 47 47 46 45 44 43 41 38 36 34 33 32 30 30 29 28 27 26 24 22 21 21 19 17 15 13
47 48 48 49 49 49 49 48 48 48 48 47 47 47 47 46 46 45 45 44 42 41 39 37 34 32 31 30 28 28 27 25 24 23 22 21 20 19 18 16 14 12 11
46 46 47 47 47 47 47 47 46 46 45 44 44 44 44 44 44 43 42 40 39 38 36 34 32 30 30 29 27 26 24 22 21 21 20 18 17 16 15 13 11 10 9
44 45 45 45 45 45 45 45 45 44 43 43 43 43 42 42 41 40 39 37 36 35 34 32 31 30 29 27 24 22 21 19 19 18 17 16 15 14 13 11 10 9 9
43 44 44 45 45 45 45 45 44 43 42 42 42 41 40 39 38 37 36 35 34 33 33 31 30 28 26 24 22 20 18 18 17 16 15 14 13 12 11 10 8 7 7
43 44 44 45 45 45 45 44 44 43 42 41 40 39 37 36 35 35 35 34 33 33 32 30 28 26 24 21 20 18 17 17 16 15 14 13 11 10 9 9 8 7 8
43 43 43 44 44 44 44 43 42 41 40 39 38 37 36 35 34 34 34 33 33 32 30 28 26 23 20 18 17 16 16 15 14 13 13 11 10 9 9 8 8 8 9
42 42 42 42 42 42 40 39 38 38 37 37 36 35 35 34 34 33 32 31 30 29 26 24 21 19 18 16 16 16 15 14 13 12 11 10 10 9 9 8 8 9 9
41 41 41 40 40 39 37 36 36 36 36 36 35 34 33 32 32 31 30 28 27 24 22 21 19 18 17 16 15 15 14 13 12 11 10 10 10 9 9 8 9 9 8
39 39 39 39 38 37 36 35 34 34 34 34 33 31 30 30 30 29 27 26 24 22 21 19 18 17 17 16 15 14 13 12 11 10 10 10 9 9 8 8 7 7 7
38 38 37 37 36 35 34 33 33 33 32 32 30 29 28 28 26 25 24 23 21 20 19 17 16 15 15 14 13 13 12 11 10 10 10 9 9 8 8 7 7 6 6
37 37 36 35 34 33 33 32 32 31 31 30 29 28 26 25 23 22 21 19 18 16 15 15 14 14 13 13 12 11 11 10 10 10 9 8 8 7 8 7 7 6 6
35 34 33 33 32 31 31 30 29 28 27 26 25 24 22 21 20 19 17 15 14 13 13 12 13 12 12 12 11 11 10 10 10 9 8 8 8 7 7 6 6 5 5
32 31 30 30 29 29 28 27 26 25 24 23 21 20 18 16 15 14 13 12 11 11 10 10 11 11 12 12 12 11 11 10 10 8 8 8 9 8 7 6 5 5 4
28 27 26 26 25 25 24 23 23 22 21 19 18 16 14 12 11 10 10 9 9 9 8 9 10 11 11 11 11 11 11 10 9 9 9 9 9 8 7 6 5 5 5
24 23 23 22 22 21 20 19 18 18 17 15 14 12 11 10 9 8 8 8 8 8 8 9 9 10 10 11 11 11 11 10 10 10 9 9 9 8 7 6 6 6 6
22 21 21 20 19 18 17 16 16 15 14 12 11 10 10 10 9 8 8 8 8 8 9 9 10 10 11 11 12 11 10 10 10 10 10 9 8 8 8 8 7 8 7
20 19 18 18 17 16 15 14 13 12 12 11 10 10 10 9 9 8 8 8 9 9 9 10 10 10 11 11 12 11 10 10 11 10 10 9 9 10 9 9 8 8 8

GEFSGL_500_meanwind_216.txt.gz
Wind_Speed
39 40 40 41 42 42 43 43 44 45 46 47 49 50 51 52 53 53 53 52 52 52 52 51 51 51 50 51 51 52 52 53 52 49 48 48 48 48 46 45 44 42 41
40 41 41 42 42 43 44 44 45 46 48 49 50 51 52 52 52 52 52 52 52 51 51 50 51 50 50 51 51 51 51 51 50 48 46 46 45 44 43 41 40 39 37
41 42 42 43 43 44 45 46 47 48 49 50 51 52 52 52 52 52 52 51 51 50 50 50 50 50 50 50 50 51 50 49 48 47 45 43 41 40 39 37 37 36 34
42 43 43 44 44 45 46 47 48 49 49 50 51 52 52 52 52 52 51 51 50 50 50 50 50 50 50 51 50 50 49 48 46 45 42 39 37 37 36 35 34 33 30
43 43 44 45 46 47 47 48 48 49 49 50 51 51 52 52 52 52 51 50 49 49 49 49 49 49 50 50 50 48 47 46 44 42 38 36 36 35 33 32 31 29 27
43 44 45 45 46 47 47 48 48 49 49 50 51 51 52 53 52 51 50 49 49 49 48 47 48 48 49 48 47 46 45 44 42 39 36 35 34 33 31 30 28 26 24
44 45 45 46 46 47 47 48 49 49 50 51 52 52 53 53 51 50 50 49 48 48 47 46 47 47 47 46 44 43 42 42 39 37 35 33 32 32 31 28 26 23 22
44 45 46 46 46 47 47 48 49 50 51 51 51 52 52 51 50 49 48 48 47 46 46 46 46 46 46 44 42 41 40 38 36 36 34 32 31 30 29 26 24 22 21
45 45 45 46 46 46 47 48 49 50 50 50 51 51 50 49 47 47 46 46 45 45 45 46 45 44 43 42 40 38 36 35 34 33 32 30 29 28 26 23 22 20 19
45 45 45 45 45 46 46 47 48 49 49 49 49 49 48 46 45 45 44 44 44 44 44 44 43 42 41 40 38 35 33 32 32 31 29 28 26 24 22 20 19 18 17
44 45 45 45 46 46 47 47 48 48 47 47 47 47 46 44 44 43 43 43 43 43 43 42 41 40 39 37 34 32 30 30 29 28 27 25 23 21 20 18 17 16 16
44 44 45 46 46 46 46 46 46 46 46 46 45 44 43 43 43 43 43 43 42 42 41 40 39 37 35 33 31 29 29 29 27 26 25 22 20 19 18 16 15 15 14
43 44 44 45 45 45 45 45 45 45 45 45 44 43 42 42 42 42 42 41 41 41 40 39 37 35 33 30 29 28 28 27 26 24 22 20 19 18 17 15 14 14 13
42 43 43 43 43 43 44 44 45 45 44 43 42 41 41 40 41 41 41 40 40 39 38 36 34 32 30 29 28 27 27 25 23 22 20 19 18 16 15 13 13 12 11
42 42 42 42 41 42 43 43 43 43 43 42 41 40 39 39 39 39 39 38 37 36 35 34 32 30 29 28 28 27 25 23 22 20 18 17 16 15 12 11 11 11 10
41 41 41 41 41 41 42 42 42 42 42 41 39 39 39 38 38 38 37 36 34 34 33 31 30 29 28 27 26 25 23 22 21 18 16 15 14 13 11 10 10 9 8
40 39 39 39 40 41 41 41 41 41 40 39 38 38 37 37 36 36 35 34 33 32 31 29 27 27 26 25 24 23 21 20 18 16 14 13 13 12 10 9 8 7 6
39 39 40 40 40 41 41 40 39 38 37 37 37 36 36 35 34 34 33 33 32 30 29 27 26 25 24 23 22 20 19 17 16 15 13 12 12 11 9 8 8 7 6
39 40 40 40 40 40 39 38 37 36 35 35 35 35 34 34 33 33 32 31 29 27 27 26 25 23 22 20 19 18 16 15 14 13 12 11 9 9 9 8 8 7 6
39 39 39 39 38 38 37 36 35 35 34 34 34 33 33 32 31 30 29 28 26 25 24 23 22 21 19 17 16 15 14 13 12 11 10 9 8 8 8 8 7 7 6
35 36 36 36 36 35 34 34 33 33 33 33 32 30 30 29 28 27 26 25 23 21 20 19 18 16 15 14 13 13 12 11 11 10 9 8 8 8 8 8 7 6 5
32 32 32 32 31 31 31 30 30 30 30 29 28 27 26 25 24 23 22 21 19 18 16 14 13 12 11 11 11 10 10 10 9 9 8 8 9 10 9 8 7 6 5
31 30 30 29 29 28 28 27 27 26 26 24 23 22 22 21 19 19 18 17 15 13 12 11 11 10 10 9 9 9 9 10 9 9 8 9 10 10 9 8 8 7 5
28 27 27 26 25 25 24 23 22 21 20 19 19 18 17 16 15 14 13 12 11 10 10 9 9 9 9 9 9 10 10 11 10 9 10 11 11 10 9 9 8 7 6
23 23 22 21 20 20 19 19 18 17 16 16 15 14 13 12 12 11 10 9 9 9 10 9 9 9 10 11 11 11 11 11 10 10 11 12 12 10 10 9 8 7 6
20 19 19 18 17 17 16 16 15 15 14 13 12 11 10 10 9 9 8 8 9 9 10 10 10 10 11 12 12 12 12 11 11 12 12 13 12 10 10 9 9 8 7

GEFSGL_500_meanwind_222.txt.gz
Wind_Speed
40 40 40 41 41 41 42 43 43 44 44 44 44 45 46 46 47 48 48 49 50 51 52 51 51 51 51 51 52 52 52 52 51 49 50 49 49 48 48 48 48 47 45
41 41 42 42 42 43 43 44 44 44 45 45 45 46 46 47 48 48 49 50 51 51 51 51 51 51 51 51 51 51 50 50 50 49 48 47 48 47 47 46 45 43 41
43 43 43 43 43 43 44 44 45 45 45 45 46 46 47 48 48 49 50 51 51 51 51 51 50 50 50 50 50 50 49 49 50 49 47 46 46 46 45 44 42 40 39
43 43 43 44 44 44 45 45 45 45 46 46 46 47 48 49 49 50 51 51 51 52 51 50 49 49 49 49 48 48 48 48 48 47 46 45 45 44 43 41 38 37 36
44 44 44 45 45 45 45 45 45 45 46 46 47 48 49 49 50 50 51 51 51 51 50 49 49 48 48 47 47 46 47 47 46 45 44 43 43 41 40 39 36 35 34
44 44 45 45 46 46 46 46 46 46 47 47 48 49 49 50 50 51 51 51 51 50 49 48 48 47 47 46 46 46 46 46 45 44 43 42 41 40 38 37 36 34 31
45 45 46 46 46 47 47 47 47 47 48 48 49 49 49 50 51 51 52 51 50 49 48 47 47 46 46 45 44 45 45 45 45 45 43 40 39 38 36 35 34 33 31
45 45 45 46 47 47 47 47 48 48 48 48 49 49 50 50 51 51 52 50 48 48 47 46 45 45 44 44 44 44 44 43 43 43 41 38 36 35 34 33 32 31 29
44 45 45 46 47 47 47 48 47 47 48 49 49 50 50 51 51 51 50 48 47 46 46 45 45 44 44 44 44 43 42 41 41 39 37 35 34 34 33 32 31 29 27
45 45 45 46 46 46 46 46 47 47 48 49 50 50 50 50 51 50 48 46 45 44 44 44 44 43 43 43 43 43 41 40 38 36 34 33 33 32 32 31 29 27 25
45 45 45 44 44 44 44 45 46 47 48 49 49 49 49 48 48 46 46 44 44 43 43 43 43 43 43 42 42 40 39 38 35 33 32 31 31 30 30 29 27 25 24
45 45 45 44 44 45 45 46 46 47 48 48 47 46 46 46 45 44 44 44 44 43 42 41 41 41 41 41 40 38 37 35 33 32 31 30 29 29 28 27 26 24 22
45 45 45 45 45 45 45 45 46 46 46 46 45 45 44 44 44 43 43 43 43 42 41 41 40 39 39 39 38 36 35 33 31 30 30 29 28 27 26 25 24 22 20
43 43 44 44 44 44 45 45 45 45 45 44 44 43 43 43 43 42 42 41 40 40 39 38 37 37 38 37 36 34 33 31 30 29 29 28 27 26 25 23 22 20 18
43 43 43 43 43 43 44 44 44 44 43 43 42 42 42 41 41 41 40 38 38 38 37 36 36 36 36 35 34 32 31 30 29 28 28 27 25 24 23 22 20 17 16
43 43 43 43 43 43 43 43 43 42 42 42 41 41 40 39 39 38 37 37 37 36 36 35 35 35 34 33 32 31 30 29 28 27 26 24 23 22 20 19 17 15 14
41 41 41 41 41 41 41 41 41 42 42 41 40 40 39 38 37 37 36 36 35 35 35 34 34 33 32 31 30 29 28 27 26 25 24 23 21 19 18 16 15 13 11
40 40 40 39 39 39 40 40 40 40 40 40 39 39 38 37 37 36 36 35 34 34 33 32 31 31 30 29 28 27 27 26 24 23 21 20 18 17 15 13 11 9 7
39 39 39 39 39 39 39 39 39 38 38 37 37 37 37 37 36 35 34 33 31 31 31 30 30 30 29 28 26 25 23 22 20 18 17 15 13 12 11 9 7 5 3
38 38 39 40 40 40 39 39 38 37 36 36 36 36 35 35 34 33 32 31 30 30 30 29 28 28 26 24 22 21 18 16 15 13 11 9 8 7 6 5 4 3 2
37 38 38 38 38 38 37 37 37 37 36 35 35 34 33 32 31 31 30 30 29 29 28 26 25 24 22 20 18 16 14 12 10 8 6 5 4 3 2 2 3 3 4
34 35 35 35 35 35 34 35 34 34 33 33 32 31 30 29 29 28 27 26 25 25 24 23 22 19 17 15 13 11 10 8 7 5 4 3 2 2 2 3 4 5 6
33 33 32 32 32 32 32 32 31 31 31 30 29 28 27 26 25 24 23 23 22 21 19 18 17 15 13 11 9 8 7 6 6 5 4 3 3 4 4 5 6 7 8
30 30 30 31 31 30 30 29 29 29 28 27 25 24 23 22 21 20 19 18 17 16 14 13 12 11 9 8 7 7 6 6 6 6 5 5 5 6 6 6 7 8 9
27 28 28 28 28 27 27 27 26 25 23 22 21 20 18 17 16 15 14 13 13 11 10 10 9 9 8 8 8 8 7 7 6 6 7 6 7 8 8 8 9 9 10
26 26 25 24 23 23 23 22 21 20 19 17 16 15 15 14 14 13 12 11 10 9 8 7 7 7 8 8 8 8 8 8 7 7 8 8 9 9 9 9 10 10 10

GEFSGL_500_meanwind_228.txt.gz
Wind_Speed
42 42 42 41 41 41 41 41 41 42 42 43 44 44 45 46 46 47 46 46 46 46 47 48 49 50 51 50 49 49 49 49 48 47 47 47 47 47 46 47 47 47 47
43 43 42 42 42 42 41 42 42 43 44 44 45 46 46 46 47 47 46 46 46 47 48 49 50 51 50 49 49 49 49 49 48 47 47 46 46 46 47 47 46 46 46
44 43 43 43 42 42 43 43 43 44 45 46 46 46 46 47 47 47 46 47 47 48 49 50 51 51 50 49 50 49 49 48 47 47 46 46 46 46 46 45 45 45 44
44 44 43 43 43 43 43 44 44 45 46 46 46 46 47 47 47 47 48 48 49 49 50 51 51 50 49 50 50 48 47 47 47 47 46 46 45 46 45 44 43 43 42
44 44 44 44 44 44 44 44 45 46 46 46 46 47 47 47 47 47 48 48 49 50 51 51 51 50 50 49 48 47 47 47 47 47 46 45 45 45 44 43 42 40 39
45 44 44 44 44 45 45 45 46 46 46 46 46 46 47 47 47 48 48 49 50 51 51 51 50 49 48 47 46 47 47 46 46 45 45 44 44 44 43 42 41 38 36
45 45 45 45 45 45 46 46 46 46 46 46 46 46 47 47 47 48 48 49 50 51 51 50 48 47 46 45 45 46 46 46 45 44 43 43 43 42 41 40 38 36 34
44 44 45 45 45 45 45 46 46 46 46 46 46 46 47 47 48 49 50 50 51 51 49 48 46 45 44 44 43 44 44 44 43 43 43 42 41 40 39 37 34 33 32
43 43 44 44 44 45 45 45 45 45 46 46 46 46 47 48 49 50 50 50 50 48 47 46 44 43 43 43 43 42 42 42 41 42 41 40 39 39 37 35 33 32 31
42 42 43 43 44 44 45 45 45 45 45 46 46 47 48 48 49 49 49 48 47 46 45 44 43 43 42 42 42 41 40 41 40 39 38 38 38 36 34 33 32 31 30
42 42 42 42 43 43 44 44 45 45 45 46 47 47 47 47 47 47 46 45 44 43 43 41 41 41 41 40 40 40 40 40 39 38 37 36 36 34 32 32 31 30 28
42 41 42 42 43 43 43 43 44 44 45 45 46 46 46 45 44 44 43 42 42 42 41 40 40 40 39 39 39 39 39 39 38 36 35 34 34 32 31 31 29 27 26
41 41 41 41 41 41 41 41 42 42 43 44 44 44 43 42 41 40 40 40 40 40 39 39 39 39 38 38 38 38 38 37 36 34 33 32 31 31 30 28 27 26 24
40 40 40 40 40 41 41 41 41 41 41 41 41 41 40 40 39 39 38 39 39 39 39 38 38 38 37 37 36 36 35 34 33 31 30 30 30 29 28 26 25 25 23
39 39 40 40 40 40 40 40 40 40 40 40 39 39 39 39 38 38 38 39 39 38 37 36 36 35 35 34 33 32 32 31 30 29 29 28 27 26 26 24 23 22 21
38 39 39 40 40 40 40 40 40 40 40 39 39 39 39 39 38 38 38 38 37 36 35 34 33 32 32 31 30 29 29 29 28 27 26 25 25 24 23 22 21 20 18
38 39 39 40 40 40 40 40 40 40 40 39 38 38 38 38 38 37 37 36 35 33 32 31 30 29 29 28 28 27 27 27 26 25 24 23 22 21 20 19 17 16 15
39 39 39 39 40 39 39 39 39 40 39 38 38 38 37 37 36 36 35 33 32 31 30 29 29 28 27 27 26 26 26 25 24 22 21 20 19 18 17 15 14 13 12
37 37 38 38 38 39 39 39 39 38 37 37 37 36 36 36 35 34 32 31 30 29 29 28 27 27 26 26 26 25 24 23 20 19 19 18 17 15 14 13 11 11 10
35 35 36 36 36 37 37 37 36 36 36 35 35 35 34 34 33 32 31 29 28 27 27 26 25 25 24 24 24 23 21 18 17 17 16 15 14 13 11 11 10 9 7
34 34 34 34 34 35 35 35 34 34 34 33 33 33 33 32 31 30 29 28 27 26 25 25 24 23 23 22 22 21 18 16 15 14 13 13 11 10 9 8 7 6 4
33 33 33 33 33 33 33 32 32 32 31 31 31 31 30 29 29 28 27 26 25 24 23 22 22 22 21 21 20 18 16 15 14 13 12 10 9 8 8 6 4 2 2
32 32 32 32 32 31 30 30 29 29 28 28 28 27 27 26 26 25 25 24 23 23 22 21 21 20 19 18 17 15 14 13 12 11 9 8 8 6 5 3 1 3 5
29 29 29 29 29 29 28 27 27 26 26 25 25 24 24 24 24 24 23 23 22 21 20 19 19 18 16 15 13 12 10 10 9 8 7 6 5 3 2 3 5 7 8
26 26 26 26 26 26 25 25 25 25 24 24 23 23 23 23 23 23 22 21 20 19 18 16 15 14 13 11 10 9 9 8 7 6 5 4 4 4 6 7 8 10 10
23 23 23 23 23 23 23 22 22 22 22 22 21 21 21 21 20 20 19 18 17 16 14 13 12 11 11 9 8 8 7 7 5 5 5 6 6 7 8 9 10 11 12

GEFSGL_500_meanwind_234.txt.gz
Wind_Speed
43 43 43 42 42 41 41 41 40 41 41 41 41 42 42 42 43 43 44 45 45 45 46 46 47 48 50 51 52 53 53 52 51 49 49 48 47 47 47 47 46 46 46
44 44 44 44 43 43 42 42 42 42 42 42 42 42 43 43 44 44 45 45 45 46 46 47 48 50 51 52 53 52 52 50 50 48 47 47 46 46 47 46 45 46 46
46 46 45 44 44 44 43 43 43 43 43 43 43 43 43 43 44 44 45 45 46 46 47 48 50 51 52 52 52 51 49 49 48 48 47 46 46 46 46 45 46 46 45
45 46 46 45 44 44 44 44 43 44 44 44 44 44 43 44 44 44 45 46 46 47 48 49 50 51 51 51 50 48 48 47 47 47 47 46 46 46 45 44 44 43 43
45 46 46 45 45 44 44 44 44 45 44 44 44 44 44 43 44 46 46 46 46 47 48 50 50 50 50 49 48 46 47 47 47 46 46 45 45 44 44 43 42 42 42
43 45 45 45 45 45 44 44 45 44 44 44 44 44 44 44 45 46 46 46 47 47 48 49 49 48 48 47 46 46 46 46 46 45 45 44 44 44 43 42 42 41 40
42 43 43 44 44 45 45 45 45 44 44 44 44 45 45 45 46 47 47 47 47 48 48 48 48 47 47 45 45 45 45 45 44 44 44 43 43 43 43 42 41 41 40
41 42 43 43 44 44 44 45 44 44 44 44 44 45 45 45 46 47 47 47 47 47 48 48 46 46 45 45 44 43 43 43 43 44 43 43 43 43 42 41 41 40 39
40 41 42 43 43 43 43 44 44 45 45 45 45 45 45 45 46 47 47 46 46 46 46 46 45 45 44 44 43 42 42 42 43 42 43 43 42 41 40 40 39 38 37
39 40 40 41 42 42 42 43 43 44 45 45 45 45 45 45 45 46 46 45 45 45 45 44 44 43 42 42 41 41 41 41 41 41 42 42 41 39 38 37 36 35 34
39 40 40 40 41 41 42 42 43 43 44 44 44 44 44 44 45 44 45 45 44 44 44 43 43 42 40 40 41 41 40 40 40 40 40 40 38 36 35 34 33 32 31
39 40 40 40 40 40 41 41 41 42 42 42 42 43 44 44 44 43 44 44 44 43 43 42 41 40 39 39 40 39 39 38 38 38 37 36 35 34 33 32 31 30 29
39 39 40 40 40 40 40 41 41 41 41 41 41 42 42 42 43 43 43 43 42 41 40 40 39 38 37 38 38 38 37 36 36 35 34 33 32 31 30 30 29 28 27
38 38 38 39 40 40 40 40 39 40 40 41 41 41 41 41 41 41 41 40 40 39 39 38 37 37 36 36 36 35 35 34 33 32 32 31 30 29 28 26 25 25 25
37 37 38 38 39 39 38 39 39 39 39 39 39 39 40 40 40 39 39 38 39 38 38 37 36 35 34 34 33 33 33 32 31 30 29 28 27 26 25 24 24 24 24
36 36 36 37 37 38 38 38 38 38 38 38 39 39 39 39 39 38 37 37 38 37 35 35 34 33 32 31 30 30 29 28 28 27 26 26 25 24 23 23 23 22 22
35 35 35 35 36 36 35 36 36 36 37 37 37 37 37 37 36 36 35 35 35 34 33 32 31 30 29 29 28 28 26 26 26 25 25 25 23 22 22 22 21 21 21
35 35 35 35 35 35 35 35 35 36 36 35 35 35 35 34 34 34 34 34 33 32 30 29 29 28 27 27 26 25 25 24 24 24 24 23 22 20 20 20 20 19 19
34 34 34 34 35 35 35 35 35 36 35 35 35 34 33 32 32 33 33 32 31 30 28 28 27 26 25 25 25 24 23 22 22 22 22 22 20 19 19 19 19 18 17
33 33 34 34 35 35 35 35 35 35 35 36 35 34 33 32 32 31 31 30 29 28 27 26 25 24 24 24 23 23 22 22 22 22 22 21 19 18 18 17 16 15 14
32 32 33 33 34 34 34 34 34 34 34 34 33 32 32 31 30 30 29 29 28 27 26 25 24 24 23 23 23 22 22 22 22 22 21 19 18 17 16 15 14 12 11
32 32 32 32 32 32 33 33 33 32 32 31 31 30 30 30 29 28 28 27 26 25 25 24 24 23 22 22 21 21 20 20 20 20 19 18 16 14 13 12 12 10 9
32 32 31 31 31 31 30 30 30 30 30 29 28 28 27 27 27 27 27 25 25 24 23 23 22 21 21 20 19 18 18 17 17 17 17 15 12 11 11 10 9 7 6
29 29 29 29 29 29 29 28 27 27 26 25 25 25 24 25 25 25 25 24 22 22 21 21 20 19 19 18 17 16 16 15 15 15 14 11 9 8 8 6 5 4 3
26 26 27 27 28 27 26 25 25 24 23 22 22 22 21 21 21 21 21 20 20 19 19 18 18 17 17 16 15 14 14 13 13 11 9 7 5 4 4 3 3 4 5
24 24 24 24 24 24 23 23 22 22 22 21 21 20 20 20 20 20 19 19 19 18 17 16 16 15 15 13 12 11 10 9 8 7 5 3 2 1 2 3 4 6 7